GFSWCAN_sfc_30mbdewp_000.txt.gz
Dewpoint
55 54 52 52 50 49 49 50 50 51 51 51 51 52 53 53 51 50 48 48 47 41 42 41 40 34 34 33 34 32 33 32 31 32 32 31 31 29 28 29 29 26 26 25 27 26 22 33 32 30 31 34 33 32
54 53 52 50 49 49 49 49 49 49 50 50 51 51 52 53 52 51 48 48 48 46 44 46 45 44 39 40 35 33 37 33 33 33 33 31 30 29 28 27 30 28 31 30 29 27 32 33 32 33 34 33 33 33
52 53 51 49 49 49 48 47 47 48 49 49 50 51 52 53 52 51 48 47 47 45 44 44 44 45 44 42 40 36 36 37 37 39 34 33 32 31 28 28 30 31 33 31 31 32 34 33 33 34 34 34 34 34
52 52 50 49 48 48 47 46 46 48 48 48 49 50 51 52 52 51 49 49 47 45 41 43 45 44 45 45 43 40 39 41 42 41 38 36 35 35 33 33 32 32 34 33 33 34 33 34 34 34 34 34 34 34
52 51 49 49 48 47 47 46 45 45 48 48 50 50 51 52 52 51 50 50 51 45 41 43 44 43 44 46 42 41 40 39 38 37 36 36 39 37 37 36 35 36 33 31 31 34 33 33 34 35 35 34 34 33
51 50 49 48 48 47 47 46 45 45 46 48 49 50 50 52 52 50 45 49 51 50 41 37 43 41 44 45 44 43 42 42 41 38 37 39 40 36 32 31 33 35 36 35 34 34 33 34 35 35 35 34 33 33
50 49 49 48 48 48 47 46 45 46 46 46 48 49 51 50 48 45 42 46 49 50 41 38 38 40 41 43 43 43 43 42 41 39 38 37 37 37 35 31 33 35 36 34 34 34 34 35 34 34 34 35 35 35
48 49 48 48 48 47 47 46 46 46 45 47 49 50 49 48 47 45 46 48 50 45 42 34 36 37 40 40 39 43 41 41 41 39 39 37 38 37 32 35 34 35 34 34 35 36 35 35 34 35 34 33 32 32
42 46 49 49 48 48 47 46 46 45 45 47 50 48 46 44 42 43 46 47 46 43 38 37 33 32 39 39 40 39 39 36 41 37 37 37 35 32 33 34 34 35 33 33 35 34 33 33 33 33 33 32 32 32
39 41 44 46 49 48 48 47 47 46 47 49 45 42 39 41 44 43 40 40 40 41 40 35 38 34 37 37 36 35 35 34 32 35 37 34 33 35 35 36 36 35 35 34 33 30 28 27 30 31 33 33 32 32
40 40 42 44 46 48 48 47 47 47 49 44 39 37 41 43 39 37 34 33 35 33 37 37 36 34 37 33 34 33 31 31 26 28 30 26 26 29 31 33 33 34 34 33 30 29 31 31 31 32 33 33 32 29
39 40 40 42 44 45 48 47 47 46 44 41 39 41 40 36 34 30 28 30 30 27 34 34 35 35 36 36 32 33 28 29 22 31 27 23 26 28 28 27 27 28 28 29 30 28 28 30 31 32 32 31 28 16
37 39 40 41 42 43 44 48 48 45 41 39 37 35 33 33 27 24 23 24 26 30 34 34 33 34 35 35 32 31 27 26 30 27 23 24 25 28 27 25 24 25 26 27 24 23 23 28 31 31 30 23 15 12
37 38 40 40 41 42 42 44 46 45 42 36 32 28 27 25 26 25 22 24 29 32 34 34 32 32 34 32 31 27 29 27 24 21 20 23 25 26 27 26 22 19 23 24 24 22 18 18 22 21 20 15 12 9
38 37 38 39 41 41 41 43 46 44 39 33 32 25 26 23 27 27 29 30 31 33 32 30 30 30 30 28 29 28 25 22 22 20 24 25 25 26 25 22 20 19 19 21 24 24 22 17 12 10 10 9 9 10
38 37 37 38 39 40 42 43 43 40 35 33 30 25 28 28 27 27 27 29 31 31 29 28 27 25 25 25 25 23 21 18 21 26 25 25 24 23 22 22 20 20 21 22 23 25 25 20 15 12 10 12 12 13
37 36 37 38 38 40 42 38 37 32 32 31 28 29 27 27 28 27 29 31 32 29 26 27 21 19 26 24 24 25 21 23 24 23 24 27 26 25 26 26 24 20 20 22 24 25 26 22 15 12 10 11 14 14
36 36 36 36 39 39 37 35 32 32 29 31 27 28 31 31 29 29 30 32 31 29 28 25 25 23 20 18 20 23 26 27 25 26 26 27 28 28 27 27 25 21 20 21 22 24 24 21 16 14 14 15 14 14
36 36 38 39 38 36 31 31 32 28 29 31 30 31 31 31 30 30 30 31 30 30 30 28 25 22 21 23 18 21 23 23 22 24 26 27 28 28 27 25 23 20 20 21 24 25 24 19 17 16 16 15 14 12
36 35 38 37 39 34 30 30 33 30 27 29 30 29 29 29 30 30 31 31 30 28 26 25 24 24 24 25 27 25 25 26 26 26 26 26 27 24 23 21 21 22 22 22 21 21 19 19 17 15 14 13 12 12
36 36 38 34 33 33 31 30 29 30 29 28 28 28 27 29 29 29 29 30 29 27 25 27 27 27 28 27 27 27 27 27 26 26 26 25 25 21 19 20 21 22 21 20 20 20 18 16 14 12 12 11 12 13
34 38 33 34 31 31 29 31 29 29 26 26 28 27 25 24 25 28 31 29 28 26 27 27 27 27 27 26 26 26 26 25 25 24 24 24 20 19 19 19 20 20 22 19 18 17 15 13 13 13 12 12 11 10
35 35 31 31 27 26 25 31 25 25 22 23 25 23 23 24 26 29 26 27 27 28 28 28 26 25 25 23 21 20 19 19 20 20 21 22 22 22 23 23 22 19 18 18 16 14 13 14 15 12 10 10 10 9
32 26 23 23 24 21 24 23 26 23 22 21 21 18 20 21 25 23 22 21 23 24 24 23 23 23 21 20 20 21 20 20 20 21 22 22 22 22 21 20 21 21 20 15 13 12 12 12 12 10 10 10 9 10
21 21 19 18 21 19 18 19 20 20 18 17 16 16 18 20 18 18 16 16 17 18 17 16 18 18 18 18 19 16 20 23 22 21 22 23 20 18 16 15 13 13 14 12 11 11 10 10 10 11 10 10 10 11
18 21 18 16 18 16 16 15 17 17 17 16 15 16 16 16 14 12 13 15 14 14 13 13 13 15 17 14 14 17 18 18 22 19 18 21 20 17 15 13 10 11 13 12 11 10 10 11 11 10 10 10 11 10
16 17 21 20 19 17 17 17 18 16 15 14 15 15 15 12 12 13 12 11 12 12 12 13 13 13 14 12 14 16 15 16 17 16 16 15 16 16 13 10 9 11 14 12 11 12 12 11 11 10 10 9 9 8
18 18 16 20 19 15 15 15 15 14 14 14 14 13 12 11 11 11 11 11 11 11 12 13 13 13 13 14 14 13 13 14 13 12 10 11 13 14 14 14 15 16 14 12 13 12 11 10 11 11 10 8 6 5
19 19 19 18 17 16 15 14 14 15 16 16 13 12 12 10 8 9 10 10 11 12 12 10 11 12 12 12 12 13 14 14 13 12 10 9 8 11 12 12 12 11 10 9 11 11 12 12 11 10 7 5 4 4
19 18 16 15 16 15 16 15 15 15 17 14 12 10 8 7 7 9 8 8 11 11 11 10 11 11 10 10 10 11 11 12 12 12 11 8 8 11 11 11 10 10 10 9 9 8 9 9 6 4 3 2 2 3
18 18 16 15 15 12 14 16 16 15 13 13 11 11 9 5 7 7 6 6 8 9 10 11 11 12 12 11 10 10 10 12 12 11 11 10 11 12 11 11 10 10 10 9 7 6 6 5 3 2 2 1 1 2
19 18 16 15 13 12 14 15 14 14 12 12 10 8 8 8 9 5 6 6 9 10 11 10 10 9 11 11 13 15 14 12 12 12 12 11 11 12 12 11 10 10 8 7 6 6 5 4 3 2 2 1 0 -0
14 13 13 11 10 11 13 13 12 9 8 7 7 8 9 10 8 4 7 8 7 8 7 8 9 10 10 10 10 11 11 12 15 17 18 17 16 14 12 12 11 9 8 7 7 6 5 4 3 2 1 0 -1 -1

GFSWCAN_sfc_30mbdewp_003.txt.gz
Dewpoint
45 45 46 54 53 53 52 51 50 51 52 52 53 53 53 53 51 50 47 47 46 39 41 41 39 33 33 33 32 29 32 31 30 32 32 31 30 29 28 29 26 25 25 25 27 26 24 32 32 30 31 34 32 32
43 45 46 52 53 52 51 50 50 51 51 52 52 52 52 53 51 51 47 47 47 43 42 46 45 44 39 39 32 32 36 32 33 33 32 31 30 29 29 28 31 28 29 28 28 27 33 33 32 33 33 32 33 33
43 45 47 49 52 52 51 50 50 50 51 51 51 52 52 53 52 50 47 47 46 44 44 43 43 44 44 43 39 36 36 36 38 37 33 32 30 30 28 28 29 30 32 31 31 33 33 33 34 34 34 34 34 34
41 43 44 49 52 51 51 49 48 49 50 50 51 51 52 52 51 51 47 49 46 44 41 42 45 43 44 45 40 39 38 42 41 41 36 35 34 34 32 32 30 31 34 32 32 34 34 33 34 34 34 34 34 34
40 41 45 51 51 50 50 48 47 48 50 49 50 51 51 52 51 50 50 50 50 44 41 42 43 42 45 44 41 41 40 38 38 37 36 36 39 37 37 36 34 35 33 31 29 33 32 33 34 35 34 34 35 34
40 43 46 51 50 50 49 48 47 47 48 49 50 50 51 52 51 49 44 49 50 49 41 38 42 41 44 44 43 43 42 42 40 38 37 39 40 35 31 31 33 35 36 35 33 34 33 33 35 35 35 34 35 34
40 45 51 50 50 49 48 48 47 47 48 49 50 50 52 52 48 43 40 46 49 49 40 38 37 40 41 42 43 43 43 42 41 39 37 37 37 36 33 30 32 34 36 34 34 34 34 35 33 34 34 35 35 35
40 40 49 50 50 49 48 47 47 47 49 49 50 51 49 48 47 44 46 49 49 44 39 34 34 37 40 40 39 42 41 41 40 38 38 36 37 36 29 33 34 34 34 34 35 35 34 34 34 34 34 34 32 32
40 40 44 50 49 48 48 47 46 47 48 50 50 49 46 44 42 44 46 47 45 41 36 36 33 31 39 39 39 38 39 36 40 37 36 35 34 29 32 33 34 34 34 33 34 33 33 32 32 32 32 32 31 31
40 40 41 45 49 49 48 47 47 48 49 49 45 41 38 42 45 44 40 41 40 39 39 33 37 34 37 37 35 34 34 34 32 35 37 34 33 35 35 35 35 34 34 34 33 32 31 27 25 28 30 32 32 32
39 40 40 43 46 49 49 48 47 48 48 44 40 37 41 44 39 36 34 35 35 31 36 35 35 34 37 33 33 33 31 31 27 29 32 28 25 27 29 31 33 34 34 33 31 28 26 27 27 28 30 32 32 32
39 39 40 41 43 48 48 48 48 47 45 41 40 41 40 36 33 30 29 30 29 27 33 34 35 36 36 35 32 31 28 27 21 32 28 23 24 28 27 28 29 30 30 28 29 28 27 27 28 30 31 31 31 31
39 38 40 40 41 43 48 48 48 45 42 41 38 36 34 32 27 24 23 24 25 28 34 34 33 35 35 33 31 29 25 24 29 24 23 23 24 27 27 24 24 25 26 26 26 27 25 24 27 30 30 31 28 21
37 38 38 40 41 41 43 45 47 45 41 34 32 28 29 26 25 24 22 23 27 33 34 35 33 33 34 31 31 26 28 29 23 20 19 22 24 25 27 24 21 20 23 23 24 24 22 19 19 24 28 26 20 17
37 38 37 38 40 41 41 42 43 44 36 32 32 28 27 25 25 24 28 31 32 36 33 31 30 30 30 28 28 28 25 21 21 19 21 23 25 25 25 24 21 19 19 19 20 22 23 22 19 16 13 12 14 13
37 37 37 38 39 40 40 41 38 38 33 32 30 25 27 25 25 26 27 30 33 32 29 28 27 26 26 27 25 24 22 19 20 23 24 24 25 24 22 23 23 21 21 21 20 21 23 24 23 20 15 11 10 9
37 35 37 37 39 39 40 35 35 32 32 31 28 29 27 26 26 28 29 32 32 31 26 26 22 21 26 23 22 24 20 18 23 25 24 24 22 23 23 24 26 26 24 21 20 22 23 25 24 19 17 13 12 12
35 37 37 36 38 38 35 33 32 31 29 31 27 27 29 29 29 29 30 32 31 29 27 23 24 23 21 18 20 24 25 26 24 24 25 27 27 27 27 27 28 28 25 22 21 21 22 23 23 22 17 14 13 14
35 37 38 38 39 35 31 31 31 28 29 30 29 30 31 30 29 30 32 31 30 30 28 26 21 18 18 21 17 22 24 24 24 24 25 26 27 27 28 27 27 25 23 20 21 22 23 23 22 18 16 16 15 14
36 37 38 37 37 32 30 30 31 30 27 29 31 29 29 28 29 31 31 31 29 28 25 20 17 22 23 25 25 23 24 25 26 25 25 26 26 25 25 24 23 22 21 21 22 22 20 20 18 16 15 14 12 12
36 37 37 36 33 33 31 30 29 29 29 27 28 28 28 29 29 29 30 30 28 24 21 25 25 26 27 26 27 27 26 26 25 26 25 24 24 22 20 18 19 21 21 20 20 20 21 18 15 13 13 12 13 12
34 37 33 34 31 31 29 31 29 28 27 26 27 27 26 26 27 28 31 29 27 26 26 26 26 27 27 26 25 26 25 25 24 24 25 25 22 20 19 20 20 19 19 20 19 19 16 13 13 13 12 11 10 9
33 34 31 30 27 26 24 30 24 25 23 24 26 23 23 23 26 30 26 27 27 27 28 27 25 24 25 23 21 19 19 19 19 19 19 21 21 21 20 21 20 20 18 17 16 14 14 17 15 10 10 9 9 9
31 25 23 23 24 20 25 23 25 22 23 21 21 19 20 22 25 24 22 22 23 24 22 21 22 22 20 20 20 19 21 21 20 21 21 21 21 21 20 20 20 19 18 15 14 13 13 12 11 10 9 8 9 10
17 19 17 17 20 17 17 18 19 18 17 18 17 16 17 21 19 19 18 16 18 18 16 16 17 18 18 18 18 17 19 21 20 20 20 22 19 17 15 14 14 14 14 12 11 10 9 10 10 9 9 10 10 11
17 19 16 15 17 15 16 15 16 17 17 16 15 16 17 17 14 11 13 15 15 14 12 12 14 15 15 14 15 16 16 16 19 18 17 19 19 15 14 13 12 11 13 11 10 9 10 10 10 9 9 9 10 8
14 17 20 20 18 17 16 17 18 16 16 15 14 15 15 12 11 13 13 13 13 12 12 12 12 13 13 12 15 15 15 14 16 15 15 15 16 17 15 12 9 12 13 11 11 11 11 10 10 10 9 8 7 6
17 17 15 19 18 14 15 15 15 14 14 14 15 14 12 11 10 12 11 11 11 11 11 12 12 12 12 12 12 13 13 13 13 13 12 13 13 14 15 15 15 15 13 13 12 11 10 11 11 10 10 7 5 3
18 18 18 17 17 16 15 14 13 15 16 15 13 12 12 10 7 8 10 10 9 11 10 10 10 11 11 11 12 13 13 13 12 10 9 9 9 11 12 12 10 9 8 8 11 11 12 11 11 10 7 4 3 2
18 18 16 15 15 14 15 15 14 13 15 13 12 10 8 6 6 7 7 8 10 10 10 9 9 10 10 10 10 11 11 12 13 14 12 12 9 11 11 9 9 9 9 8 7 6 9 7 5 3 2 2 2 3
17 16 15 14 15 12 12 14 16 14 12 12 10 11 9 5 6 6 5 6 7 8 10 10 10 10 10 10 10 10 10 12 12 11 11 11 11 11 10 10 10 10 9 7 6 5 4 4 3 2 2 1 0 1
19 19 16 15 14 10 12 14 13 13 11 12 10 7 7 8 9 5 5 5 7 9 10 10 9 9 11 12 13 15 14 12 12 12 12 12 12 11 11 11 10 9 7 7 6 5 5 4 4 3 2 1 0 -1
14 14 11 10 10 11 12 11 11 9 7 7 7 7 7 9 9 4 7 7 7 8 8 8 10 10 10 11 11 12 12 12 17 19 19 17 15 13 11 11 10 9 8 8 7 6 5 4 3 2 1 -0 -1 -2

GFSWCAN_sfc_30mbdewp_006.txt.gz
Dewpoint
41 41 43 46 46 48 52 53 52 51 50 52 53 53 53 53 51 50 46 46 44 37 41 42 38 32 32 31 25 26 29 29 30 30 30 31 29 28 28 29 25 20 21 24 27 25 22 32 32 29 31 33 32 32
40 41 43 44 45 47 51 53 52 50 50 52 52 53 52 52 52 50 46 46 46 41 42 45 44 43 39 38 31 31 33 31 31 32 33 31 30 29 29 27 31 25 27 26 27 27 33 33 33 34 33 32 32 32
40 41 42 42 43 45 48 53 51 49 50 51 51 52 52 52 52 51 46 46 45 43 43 42 43 44 44 44 40 35 36 35 36 36 33 32 30 30 29 29 29 31 33 31 30 32 32 33 34 33 33 33 34 34
40 41 40 41 44 44 47 52 50 50 50 50 51 51 52 52 51 50 47 48 45 43 40 41 44 42 44 44 40 40 38 41 40 39 36 35 32 33 30 31 29 30 32 32 32 34 34 33 34 34 34 34 34 34
40 40 41 41 44 45 48 51 50 50 50 50 50 51 52 52 51 50 49 49 50 44 41 42 43 42 44 43 41 41 40 39 38 36 36 35 37 36 35 35 33 34 32 30 29 33 33 33 34 34 34 34 34 34
39 40 41 41 45 46 51 50 49 48 49 50 50 50 51 52 51 47 44 48 49 48 42 39 41 42 43 44 43 42 42 41 39 37 37 38 40 34 31 30 32 35 36 35 33 34 33 34 35 35 34 34 35 34
38 39 41 41 46 49 51 49 48 49 49 49 50 50 51 51 47 43 40 45 49 48 40 37 37 40 41 43 43 42 43 41 39 38 37 37 37 35 32 29 31 33 35 34 34 34 34 34 33 34 34 35 35 34
38 40 41 40 45 51 50 48 48 48 49 49 50 51 49 48 47 44 47 47 48 41 38 34 35 38 40 40 39 42 40 40 40 38 38 36 37 35 29 32 34 34 34 34 34 33 34 33 33 34 34 32 30 29
37 40 40 40 42 50 50 48 47 48 49 50 50 48 46 43 42 45 47 46 44 40 34 35 31 30 39 39 39 37 39 36 39 36 36 35 33 30 29 32 34 34 33 34 33 33 33 32 32 32 32 32 30 30
36 40 39 40 41 48 49 48 48 49 50 49 45 39 38 42 46 42 40 40 38 38 36 33 36 33 37 37 35 34 35 34 32 35 37 34 31 34 34 34 34 34 33 33 33 32 30 25 22 25 27 29 31 32
36 40 39 40 40 44 49 48 49 50 48 43 39 37 41 44 38 35 34 34 34 32 36 34 34 34 37 33 32 33 31 30 27 29 31 28 26 28 29 31 34 34 33 32 32 28 23 23 24 25 27 30 31 32
36 39 39 40 40 41 49 49 49 47 45 41 40 42 40 35 32 30 29 30 30 27 33 33 34 35 35 35 30 30 27 27 23 32 30 24 24 27 27 30 32 33 33 31 27 25 26 25 26 27 28 29 30 31
36 38 40 39 40 40 48 48 49 45 42 41 39 37 35 33 28 26 24 25 25 28 34 34 33 34 34 32 30 28 24 23 29 26 22 23 24 27 26 25 27 28 28 26 27 27 25 23 24 26 26 29 30 29
35 37 40 38 40 39 46 47 46 45 39 34 32 29 30 27 28 25 23 23 26 32 34 34 33 32 33 30 29 24 27 27 22 20 19 22 24 27 25 23 22 21 23 23 23 23 22 21 20 20 24 27 26 23
35 37 38 38 39 39 39 45 45 41 36 32 32 28 27 25 25 23 25 30 33 35 33 31 30 31 30 28 28 26 24 21 21 19 20 22 24 26 24 24 20 18 20 20 21 21 22 22 22 21 19 16 17 18
36 36 37 39 39 39 38 39 39 37 32 32 30 27 26 24 24 26 28 30 34 34 30 29 27 26 26 27 25 23 21 20 20 22 22 24 25 25 24 23 21 21 20 21 21 21 21 23 23 23 20 17 13 11
36 35 38 38 38 38 39 34 34 32 32 30 27 28 25 24 25 28 31 33 33 31 26 25 24 24 26 24 23 24 22 19 21 24 24 25 24 23 23 24 25 26 25 24 22 21 21 23 23 22 21 20 14 12
34 36 37 38 38 37 34 32 32 31 28 30 27 27 28 28 28 30 32 33 33 29 25 21 25 23 21 18 20 23 24 24 22 24 24 24 24 24 24 25 27 27 27 26 22 20 20 21 22 22 20 15 13 14
35 36 37 37 37 33 31 31 31 28 29 29 28 30 29 29 29 31 31 30 30 28 26 25 21 17 18 21 21 23 24 23 25 25 25 26 26 26 27 26 26 26 25 23 21 21 22 22 22 19 17 15 15 14
36 38 37 37 36 31 30 30 32 29 27 28 30 29 28 28 30 31 30 29 29 27 23 20 18 22 23 24 23 23 23 25 25 24 23 25 26 25 26 25 25 24 21 20 22 22 20 19 17 16 15 14 13 12
34 36 37 36 33 32 31 29 29 29 28 26 28 28 27 30 30 30 30 30 29 27 21 25 25 26 26 26 26 26 26 26 25 24 24 24 24 22 21 18 18 21 20 20 20 21 20 18 15 14 13 12 12 10
33 36 33 34 30 31 29 30 28 28 27 26 26 27 26 26 27 29 31 29 28 26 27 27 27 27 26 25 25 25 25 25 24 24 25 25 23 20 19 19 20 19 18 18 19 18 14 13 13 13 12 10 9 10
32 32 30 29 26 25 24 30 24 24 23 23 26 23 23 24 26 30 26 27 27 27 28 26 24 24 23 20 20 20 20 19 19 19 20 21 20 19 19 20 18 19 19 16 15 14 15 16 14 10 10 8 8 10
29 23 22 22 23 20 25 22 24 22 23 21 20 19 19 22 26 25 23 23 23 23 22 21 22 21 20 19 19 20 21 20 20 20 20 20 20 18 19 19 18 17 16 15 15 14 13 12 11 8 8 9 10 10
15 18 16 15 18 18 18 18 19 18 17 18 17 17 18 21 20 20 20 18 19 18 16 16 18 18 18 17 17 17 17 20 20 20 19 21 18 16 15 15 15 15 15 13 11 10 9 9 9 9 9 10 11 9
15 18 15 14 16 15 16 15 17 16 17 16 15 16 18 19 18 16 14 16 15 14 13 13 15 15 14 15 16 16 15 15 19 18 17 19 18 15 14 14 13 12 12 11 10 9 9 9 9 9 9 9 10 5
13 16 19 19 17 16 15 17 18 18 16 17 16 16 16 14 13 13 13 13 13 12 12 12 13 14 13 14 15 14 14 14 16 15 15 15 16 16 15 14 11 12 12 11 10 10 9 9 10 9 9 8 6 4
17 17 14 17 17 13 14 14 14 14 15 15 15 14 12 9 9 11 11 11 10 10 11 12 12 11 12 12 13 13 13 13 14 14 13 13 13 14 15 14 14 14 13 12 11 10 10 11 11 10 9 7 4 2
18 17 18 16 16 15 14 13 12 14 16 15 13 12 12 9 7 8 9 9 9 10 10 10 10 11 11 11 12 12 13 12 11 11 10 10 11 11 11 11 9 9 10 11 12 12 11 11 10 9 6 3 2 2
17 17 15 15 14 14 15 13 13 13 13 12 11 9 7 6 5 6 6 7 9 10 9 8 9 9 9 9 10 11 11 12 13 11 10 11 10 10 9 9 9 9 8 6 5 5 10 5 5 3 2 1 1 3
16 15 14 13 13 11 10 12 14 13 10 10 8 10 8 5 5 5 4 4 5 5 7 8 8 8 9 9 9 10 11 12 11 12 11 11 11 10 9 9 10 9 7 6 5 4 4 4 3 2 2 0 -0 1
18 17 16 15 13 9 11 12 11 11 9 11 8 6 6 7 9 4 5 4 6 8 10 9 9 9 10 12 13 14 13 13 13 13 12 11 10 10 10 10 10 7 7 7 6 5 5 4 3 3 2 1 -0 -1
14 13 11 11 10 11 11 11 10 9 6 7 5 6 6 9 9 3 6 6 6 7 9 9 10 11 11 11 12 13 13 14 17 17 16 14 12 12 11 10 9 9 9 8 7 6 5 4 3 2 1 -1 -1 -3

GFSWCAN_sfc_30mbdewp_009.txt.gz
Dewpoint
33 37 39 41 41 43 43 44 46 53 52 51 51 51 53 53 53 49 46 46 43 37 41 41 38 31 31 27 27 27 28 28 35 35 35 30 29 28 27 25 23 24 22 21 25 21 16 31 31 27 31 34 33 32
31 38 39 40 41 42 43 44 46 52 52 51 51 52 53 53 53 51 46 46 46 40 41 44 44 42 39 37 28 31 31 28 29 31 32 32 29 29 29 24 30 22 24 23 24 23 33 33 33 34 33 32 32 32
30 37 39 40 40 42 43 44 45 49 51 51 51 52 52 52 53 51 47 45 44 42 42 41 42 44 44 44 42 32 36 34 35 36 33 32 30 30 27 29 29 30 33 30 29 32 32 33 33 33 33 33 33 33
30 37 38 40 40 41 43 44 45 47 50 51 51 51 52 52 53 51 46 47 45 42 38 40 44 42 44 42 40 40 38 40 39 38 35 33 30 32 29 30 29 30 32 31 32 33 33 33 33 34 34 34 34 34
29 36 36 40 40 41 43 47 47 48 50 51 51 51 51 52 52 51 49 49 49 43 40 41 42 43 44 42 41 41 40 39 38 36 35 35 34 35 34 33 31 33 31 29 28 33 33 33 34 34 34 34 34 34
30 35 36 40 41 41 43 47 47 51 50 50 51 50 51 52 51 49 45 48 49 47 42 39 41 42 43 43 42 41 41 40 38 37 37 37 39 34 32 31 32 34 34 33 32 34 33 34 34 34 34 34 33 33
31 35 36 40 41 41 43 47 49 50 50 50 50 50 51 51 47 43 41 45 49 48 40 37 38 40 41 43 42 42 42 40 38 37 36 36 37 34 31 29 30 34 35 35 34 34 33 34 34 34 34 35 35 34
31 35 37 40 40 41 42 47 50 50 50 50 50 51 50 48 47 44 47 47 47 40 38 34 34 39 40 40 40 41 40 40 39 38 38 35 37 34 31 31 33 34 34 33 33 33 34 33 33 34 34 32 29 28
32 35 37 40 40 40 42 50 50 49 49 50 50 49 46 44 42 44 46 45 44 39 35 33 33 34 40 39 39 37 39 37 39 36 36 35 32 30 31 31 33 34 33 33 32 32 32 32 32 32 32 30 29 29
32 35 37 40 40 40 41 49 49 49 49 49 46 40 39 43 46 43 40 40 38 38 35 33 35 34 37 36 35 34 35 34 33 35 37 33 30 32 32 33 34 34 33 33 32 31 30 27 26 28 26 28 29 30
32 34 37 40 39 39 40 49 49 49 49 44 39 37 42 44 37 35 34 34 33 33 34 34 34 34 37 33 32 33 31 30 28 29 32 28 27 30 32 33 33 34 34 33 33 32 27 21 23 24 26 28 29 30
32 34 37 38 39 40 40 44 49 48 45 41 41 42 39 34 32 29 29 30 30 28 33 33 33 34 34 34 30 30 27 25 23 31 29 25 25 26 28 31 33 33 32 29 23 24 24 24 24 25 26 27 29 30
32 34 37 38 39 39 39 47 48 45 43 41 39 37 35 33 29 26 24 26 26 29 34 33 32 33 32 31 28 26 23 23 29 27 23 23 24 26 27 29 32 33 30 26 25 25 24 24 25 25 25 27 29 29
32 35 37 38 40 38 38 47 46 44 39 34 32 29 30 28 28 26 25 24 26 31 34 33 31 31 31 27 28 23 25 25 21 19 18 21 24 27 25 27 31 31 26 25 25 23 21 21 20 21 23 25 26 25
32 36 37 38 39 38 38 42 43 39 36 32 33 28 28 25 24 21 25 29 33 36 33 31 30 30 29 27 27 25 23 20 20 18 20 20 23 25 23 22 24 23 23 22 22 22 22 22 21 22 21 18 19 20
34 36 37 39 38 38 38 38 40 37 32 32 30 26 25 24 24 27 28 31 35 33 29 28 27 25 25 26 24 22 20 18 19 22 21 23 26 24 22 21 19 19 19 19 20 21 21 21 22 23 21 19 16 13
36 35 37 37 37 38 37 33 34 32 32 30 27 27 24 24 25 27 30 33 35 30 25 25 24 23 26 23 23 22 21 20 20 22 23 26 26 24 23 22 23 23 23 23 22 21 21 23 23 21 21 19 15 12
34 36 37 36 37 37 33 32 32 31 28 28 27 27 28 28 29 31 32 33 32 27 24 21 25 23 22 19 20 22 23 22 21 24 25 25 23 23 25 25 26 27 26 25 22 20 20 21 22 22 19 14 13 14
34 36 37 36 37 33 30 31 31 27 27 28 29 29 29 29 30 31 32 31 29 27 26 24 19 17 19 21 19 22 22 23 25 25 25 26 26 26 26 26 25 25 24 21 21 21 21 21 20 18 16 15 14 14
36 36 36 36 36 31 29 29 32 29 26 28 30 28 28 29 31 31 30 29 28 29 26 18 16 20 21 23 23 24 24 25 25 24 24 25 25 24 23 24 24 23 21 22 22 20 18 17 16 16 15 14 13 12
32 35 35 35 33 32 30 28 28 28 28 25 28 28 27 30 30 31 30 30 31 29 23 24 24 25 26 26 26 26 25 24 22 22 22 23 22 21 20 18 20 21 20 19 20 22 19 17 16 14 12 12 10 9
32 33 31 32 30 29 27 29 27 28 26 26 26 28 26 26 27 29 31 29 28 26 26 26 26 26 25 25 24 25 25 25 25 26 26 25 22 21 20 19 19 18 18 18 18 16 14 14 13 12 11 10 11 13
31 30 27 25 23 21 23 29 24 24 23 23 25 23 22 24 26 30 25 26 25 26 26 24 23 23 21 20 20 20 20 20 20 20 21 20 19 19 19 18 17 18 18 16 14 13 14 16 14 10 10 9 9 10
25 21 20 21 20 19 23 21 24 22 22 21 20 18 19 22 26 25 22 22 23 24 23 22 21 20 19 19 19 19 20 20 20 20 20 20 19 18 18 18 17 16 15 16 16 15 12 12 11 8 9 9 10 9
14 16 15 13 15 17 17 18 18 18 17 18 18 17 18 20 21 20 19 20 20 18 18 20 20 20 19 17 17 17 18 20 20 20 20 19 16 16 15 15 15 15 15 15 13 11 9 8 8 9 10 10 10 5
13 16 15 13 14 14 15 16 17 16 17 16 16 17 18 20 19 16 16 15 15 15 15 16 16 16 16 16 16 16 15 16 19 17 17 19 17 15 14 14 13 13 12 11 10 8 8 8 8 8 7 8 9 3
10 14 19 19 17 16 15 17 17 17 17 17 17 17 18 16 16 14 13 12 13 12 12 12 13 14 14 14 14 14 14 14 16 15 15 15 16 15 14 14 12 11 11 10 9 9 8 9 9 9 8 7 5 3
15 16 13 16 16 12 14 13 13 13 14 15 16 16 12 10 11 11 10 10 10 10 11 11 11 12 13 13 13 13 13 14 14 14 13 13 13 13 13 13 13 14 11 10 10 10 11 10 9 9 8 5 2 2
17 17 16 15 15 15 14 13 12 13 15 15 13 12 12 7 6 8 9 9 9 10 11 11 10 11 11 12 12 13 12 12 11 11 10 10 11 12 11 12 12 12 12 12 13 13 11 10 10 7 4 2 1 1
17 16 15 14 13 12 13 11 12 11 12 10 10 9 7 5 5 6 7 8 9 9 8 8 9 9 10 10 10 11 11 12 11 10 10 10 10 10 8 7 7 6 6 4 5 9 10 5 5 2 2 1 0 2
15 14 13 13 13 10 9 11 12 11 8 8 6 8 7 4 5 5 4 4 5 5 8 8 8 8 9 9 9 10 11 11 11 11 11 10 9 8 8 9 8 6 5 4 4 4 4 3 2 2 2 1 -0 0
17 16 15 14 12 9 11 11 9 9 8 10 7 4 5 7 8 3 4 3 5 7 9 9 9 9 9 10 11 11 13 12 12 12 11 10 9 9 10 9 7 6 6 6 6 5 4 4 3 2 2 1 -1 -2
12 12 11 10 10 10 10 10 9 8 5 6 5 5 5 8 9 3 6 6 5 7 8 8 9 10 11 12 13 14 14 14 14 14 13 12 12 11 10 8 7 8 8 8 7 5 4 3 2 2 0 -2 -3 -4

GFSWCAN_sfc_30mbdewp_012.txt.gz
Dewpoint
31 31 29 33 39 40 40 42 44 45 46 47 52 51 51 52 53 49 47 46 44 38 40 42 39 31 31 36 37 31 36 36 39 38 35 34 32 33 26 27 26 27 27 26 30 31 24 31 30 27 32 35 35 35
31 31 28 32 39 40 41 41 43 45 45 47 52 51 51 53 53 51 47 46 47 42 42 44 44 42 39 35 33 32 37 35 40 38 36 33 29 29 28 24 29 26 29 24 26 25 33 34 33 35 35 34 33 33
31 31 29 31 39 39 41 41 43 46 45 46 52 51 52 53 53 51 48 47 45 44 43 42 42 44 44 44 43 34 36 33 35 38 36 35 32 32 28 28 29 29 32 29 28 32 32 33 34 34 34 33 34 33
33 31 29 31 39 39 41 41 43 45 46 47 52 52 52 53 53 51 47 47 46 43 39 40 43 43 44 43 41 40 38 39 38 38 36 35 33 33 32 31 30 31 32 31 31 33 33 33 33 34 34 34 34 34
34 31 31 31 39 39 41 41 42 45 47 47 51 52 52 52 52 51 49 49 49 44 40 40 42 43 44 42 41 41 40 39 39 38 37 36 35 35 35 33 31 32 31 30 29 33 32 32 34 35 34 34 34 34
33 32 32 32 39 39 41 41 42 45 48 49 51 51 51 52 52 49 45 49 50 48 42 38 42 42 42 43 42 42 41 40 40 39 38 39 39 36 34 33 34 33 34 33 31 34 34 34 35 35 35 35 34 34
33 33 32 33 39 39 41 41 42 46 48 51 51 51 51 52 49 45 43 47 49 48 41 37 39 41 41 43 43 42 42 41 40 39 38 38 38 36 33 32 31 34 35 34 34 34 34 34 34 35 35 35 34 33
33 33 32 33 39 39 41 40 42 45 50 51 50 50 51 49 48 45 47 47 48 43 40 36 36 39 41 41 40 41 41 41 40 39 38 36 37 35 33 33 32 35 34 34 34 34 34 34 34 35 35 33 29 29
33 33 32 34 37 38 40 40 41 47 50 50 50 50 47 45 43 45 46 44 44 40 35 35 35 35 40 39 39 37 39 37 39 37 37 37 35 34 35 33 33 34 34 34 33 34 35 34 34 33 31 29 27 28
33 33 32 34 37 38 40 40 43 50 50 50 47 43 40 42 46 45 41 40 39 38 36 33 36 35 38 37 35 35 36 35 34 36 37 34 34 34 33 33 34 35 34 33 32 32 32 32 32 31 28 28 28 29
33 33 32 36 37 39 40 39 47 49 49 44 39 38 42 44 38 36 36 35 34 33 35 35 35 35 37 34 33 34 32 32 31 31 33 31 29 32 33 34 35 35 34 35 35 34 33 31 27 26 26 28 29 30
33 33 33 36 37 40 39 40 44 47 46 41 41 41 38 34 32 30 32 31 32 30 33 34 34 35 35 34 31 30 28 27 26 31 30 27 28 28 32 33 34 34 34 32 32 28 23 24 25 25 26 27 29 30
33 33 34 36 38 39 39 39 44 46 44 41 39 37 35 34 29 27 26 28 27 30 34 33 32 33 32 32 29 27 25 26 30 27 25 27 26 28 30 33 33 33 28 25 25 25 25 25 26 26 26 27 29 29
34 32 35 37 38 39 38 38 46 45 40 36 32 30 31 29 30 28 27 27 29 34 34 34 31 31 30 28 27 24 25 26 22 20 18 23 25 27 28 32 33 28 25 25 24 24 24 24 23 24 25 26 26 26
33 33 36 38 37 38 38 38 43 40 36 32 33 29 30 27 25 23 26 29 33 36 33 31 31 30 29 27 26 26 23 20 20 17 21 23 26 26 28 32 31 26 25 24 23 22 21 21 21 22 21 20 22 22
32 35 36 36 36 38 37 37 39 37 32 32 30 26 26 26 25 27 29 31 36 34 30 30 27 26 26 27 24 22 20 16 20 24 25 24 25 25 27 30 28 24 23 22 22 21 22 22 22 23 21 19 16 15
34 33 36 36 36 37 37 33 35 32 32 30 27 27 25 26 27 28 31 33 36 30 26 27 24 24 27 24 24 23 21 22 23 24 25 28 24 22 21 21 21 20 21 22 22 21 22 23 23 22 22 18 14 12
31 34 37 36 37 36 34 32 32 31 27 28 27 28 29 28 28 29 33 34 33 27 25 24 27 25 24 22 22 25 24 23 22 25 27 25 24 24 25 24 25 25 25 24 23 22 22 22 22 22 19 15 15 15
35 35 35 36 37 33 30 31 31 26 27 28 29 29 30 30 32 33 33 30 28 27 26 24 19 18 20 22 20 23 24 25 24 25 24 25 26 26 26 27 26 26 24 22 21 21 22 22 22 19 16 15 14 14
34 35 34 36 36 31 29 29 32 29 25 28 30 28 29 29 31 31 30 30 29 30 28 21 16 19 21 23 24 25 25 26 25 24 25 25 25 26 26 26 24 22 21 21 22 20 18 17 17 16 15 15 14 13
31 33 33 34 33 32 29 27 27 28 28 26 28 29 28 31 30 31 31 33 33 31 26 24 25 25 26 26 26 26 25 25 25 24 24 24 22 21 21 21 22 22 21 21 21 22 19 17 17 17 16 12 11 14
31 32 30 30 29 28 27 29 27 28 26 26 27 28 27 27 28 30 32 29 28 27 26 26 25 25 24 23 24 25 25 26 26 25 25 23 21 21 21 21 21 20 21 21 21 18 16 14 13 12 11 12 13 13
29 26 24 22 21 21 23 28 24 25 22 23 25 23 23 24 26 30 25 26 25 25 25 24 23 22 21 20 20 20 20 21 21 21 20 19 19 20 19 18 20 20 20 17 16 15 15 15 13 10 10 10 9 8
23 20 18 18 18 19 21 21 24 22 22 21 20 18 19 22 25 25 21 21 22 23 23 21 21 20 20 20 19 19 20 20 20 20 20 20 20 19 18 18 17 17 17 16 16 16 14 12 11 9 10 10 9 6
13 14 13 11 13 16 17 18 18 18 17 18 18 18 19 21 21 20 19 19 19 18 20 21 21 20 19 18 18 18 19 21 20 20 19 18 17 16 16 15 15 16 16 16 14 12 10 9 10 10 10 10 8 4
11 15 14 13 14 14 15 16 17 17 18 16 16 18 19 21 18 15 15 14 14 15 15 19 19 18 17 17 17 17 17 18 18 18 18 18 17 17 16 16 16 15 14 14 12 9 8 9 8 8 8 9 10 4
8 13 18 19 17 15 14 16 16 17 17 17 17 18 19 15 15 13 13 11 12 12 13 14 17 17 16 15 14 15 15 16 17 16 16 15 15 15 16 16 14 13 12 11 10 9 8 8 9 8 7 7 6 4
15 16 12 15 15 12 13 12 12 13 14 16 19 16 16 12 12 8 9 10 10 12 12 12 13 14 14 14 14 14 14 14 14 14 13 13 13 13 13 13 14 13 11 11 10 10 10 10 9 8 7 5 4 3
16 16 15 14 14 15 14 12 12 14 13 14 13 13 11 6 5 7 8 9 10 12 12 12 12 12 13 13 13 13 13 13 13 12 12 11 11 12 13 13 13 13 14 14 14 12 10 10 10 7 4 3 3 2
16 15 15 14 11 10 12 9 12 11 11 9 9 8 7 5 5 6 7 8 10 10 9 10 10 11 12 12 12 12 12 12 11 11 11 10 11 11 10 10 9 8 8 12 13 13 10 7 7 4 3 3 2 3
14 13 13 12 12 9 8 11 11 9 7 7 5 8 6 5 5 5 4 4 5 7 9 9 8 9 10 11 11 12 13 12 11 10 10 10 10 8 8 7 6 5 5 4 5 5 5 4 3 3 3 2 1 1
16 15 15 13 11 9 11 10 8 8 8 9 7 3 5 7 7 3 4 4 6 8 10 9 9 10 9 10 10 11 13 11 12 12 10 9 9 9 9 8 7 7 7 6 6 5 4 4 3 3 2 1 -1 -2
12 12 10 9 9 9 9 9 8 8 5 7 5 4 4 8 9 3 5 6 5 6 8 9 9 11 11 12 13 14 13 13 13 13 12 11 11 11 9 8 8 8 8 7 6 5 4 3 2 2 0 -1 -2 -3

GFSWCAN_sfc_30mbdewp_015.txt.gz
Dewpoint
35 34 33 30 30 32 35 40 40 41 43 45 46 46 52 52 52 50 48 47 44 40 40 40 38 33 40 41 35 34 39 39 41 38 36 35 33 31 31 34 35 33 33 33 34 32 29 31 30 26 33 33 32 32
35 33 34 31 30 31 35 41 40 41 43 44 47 47 52 52 53 51 47 48 47 45 43 44 43 43 40 39 39 33 38 39 42 40 38 36 34 32 29 27 29 32 32 29 29 32 33 33 34 34 35 34 34 34
36 34 34 33 31 32 35 39 40 41 42 45 46 48 52 52 53 51 48 48 47 45 43 42 41 44 44 44 44 39 40 39 41 43 40 38 34 34 31 31 27 28 30 28 26 31 32 33 34 35 35 34 34 34
36 35 34 33 32 32 35 39 40 41 42 45 46 48 52 52 53 51 47 48 48 44 40 41 44 43 44 43 42 42 41 39 38 40 41 38 35 34 33 32 29 30 30 30 30 33 33 33 34 34 34 34 34 34
36 35 34 33 33 32 36 39 40 41 42 44 47 48 52 52 53 51 50 49 49 46 40 40 43 43 43 42 41 40 38 38 37 39 40 38 36 35 35 33 31 32 30 29 27 32 32 33 34 34 34 34 34 34
35 35 34 33 33 32 36 38 40 40 42 44 48 49 52 52 52 49 45 49 50 49 43 38 43 42 43 42 41 41 41 41 41 41 40 39 39 38 35 33 34 32 33 33 31 33 34 34 34 35 34 35 35 35
34 35 34 33 33 32 36 37 38 40 42 45 49 51 51 52 50 46 44 47 50 48 42 38 38 42 42 43 43 42 42 42 42 41 40 40 38 38 36 34 34 33 34 34 34 34 34 34 34 35 35 35 34 32
34 34 35 33 33 33 37 37 39 40 42 45 48 51 51 50 48 46 48 49 50 44 41 37 37 40 42 41 41 42 42 42 42 41 39 38 38 37 35 36 32 34 35 34 34 34 35 35 35 35 35 33 30 29
35 35 35 33 33 33 37 38 39 40 43 45 51 50 48 46 43 45 46 48 46 44 38 37 35 35 41 39 40 40 41 39 40 39 38 38 37 36 38 37 33 35 34 34 35 36 35 35 36 35 33 29 26 27
36 36 35 33 33 35 37 39 39 40 43 50 48 44 40 43 47 45 43 42 41 39 38 37 39 35 39 37 36 37 37 37 35 37 38 36 36 38 37 36 34 35 36 35 34 34 34 33 34 32 27 25 26 27
36 36 34 33 33 36 38 39 40 41 49 45 41 39 43 46 39 38 38 38 38 35 36 36 37 36 38 35 34 35 34 35 33 34 35 34 31 34 36 35 36 37 36 35 36 35 35 34 31 26 26 27 28 29
36 35 34 33 35 37 39 40 39 39 46 43 42 42 39 36 34 32 35 34 33 33 35 35 36 36 35 35 32 32 32 31 30 33 32 28 31 29 33 34 36 35 35 35 35 33 32 28 25 25 26 27 28 29
36 34 34 32 36 38 37 40 39 40 46 43 40 36 35 34 30 29 27 28 29 34 35 35 33 33 33 33 31 30 28 29 31 28 27 29 28 32 33 34 34 34 32 30 26 25 25 25 26 26 26 27 29 29
34 34 32 35 36 36 37 39 38 42 42 36 33 31 31 28 30 31 30 32 34 36 34 35 32 33 31 31 30 27 28 28 25 23 21 25 27 31 33 34 31 29 26 25 25 25 25 25 25 25 26 27 27 26
34 32 35 35 36 36 38 38 38 40 36 32 34 30 30 31 28 29 31 32 35 36 34 33 33 31 31 28 27 26 24 23 23 21 24 27 29 30 33 33 27 25 24 24 25 24 23 23 23 23 23 24 23 23
31 33 34 35 36 35 39 36 38 37 32 32 31 28 29 29 26 27 30 32 37 35 34 34 30 29 27 28 25 24 22 19 23 28 30 28 28 30 33 28 25 24 23 23 23 23 22 23 23 22 21 19 18 18
32 31 35 33 35 36 37 32 34 32 32 30 28 29 30 31 30 30 32 35 36 32 30 30 26 27 28 25 24 24 23 27 30 28 28 28 29 31 32 25 24 23 22 22 22 22 22 24 23 22 21 18 14 13
30 35 34 34 36 36 34 32 32 31 27 29 29 28 28 29 29 31 33 35 34 31 29 28 29 26 25 24 24 27 28 27 27 28 28 26 27 28 25 23 23 23 23 23 25 24 25 24 23 23 21 18 17 15
34 34 34 34 36 33 30 31 31 27 27 29 30 30 29 31 33 33 34 33 30 29 28 26 24 25 25 27 27 28 28 26 26 25 23 24 25 26 27 28 27 26 25 24 23 23 23 24 23 19 16 15 14 13
32 33 33 35 36 31 29 29 32 29 26 28 31 29 30 30 32 31 30 30 30 31 27 21 18 20 22 25 27 28 28 27 25 24 25 26 28 29 28 27 25 24 23 24 23 21 20 18 18 17 17 16 14 14
31 32 33 33 33 32 29 27 28 28 29 27 29 30 29 32 31 31 31 34 32 31 27 25 24 26 26 26 27 27 27 25 23 24 25 24 24 25 25 25 25 23 22 22 21 21 19 18 17 18 17 13 13 13
31 31 30 29 28 28 28 29 26 29 28 27 28 29 28 28 29 30 32 30 28 27 29 28 28 27 25 24 25 26 26 26 26 26 25 23 22 23 24 24 23 23 24 24 23 21 18 17 15 13 13 14 13 9
28 26 25 24 21 22 23 29 25 25 23 24 26 24 24 25 27 31 26 26 25 26 26 25 24 22 21 21 21 21 22 22 21 21 21 21 22 22 23 22 24 23 21 20 20 19 17 16 14 12 14 13 11 7
22 19 16 17 18 17 21 22 25 23 23 22 21 20 20 23 26 25 21 21 23 25 23 22 21 21 20 20 19 20 20 21 20 21 21 21 20 20 20 19 20 21 20 19 18 18 15 13 12 10 10 10 8 6
13 13 14 9 16 16 17 19 20 20 18 19 19 19 20 22 22 20 19 18 19 20 23 22 22 22 20 19 19 19 20 21 21 19 19 19 18 18 17 16 17 17 18 17 16 14 12 11 11 11 10 10 8 6
8 15 14 14 15 14 15 17 18 18 19 18 18 20 21 22 18 14 13 13 14 14 15 18 20 19 18 19 19 19 18 19 20 19 18 18 19 21 19 18 17 16 16 16 13 11 10 11 10 10 11 11 10 6
7 12 18 19 17 15 14 16 16 18 17 16 18 19 20 16 14 12 13 11 12 12 14 15 19 18 16 15 16 16 16 17 18 17 16 15 15 18 19 19 17 15 14 14 12 11 10 9 9 9 8 8 7 6
14 15 12 15 15 14 13 12 13 14 15 17 20 15 15 12 11 9 9 11 12 14 14 14 16 17 17 16 16 16 16 16 16 15 14 14 14 15 15 15 15 15 13 12 12 11 11 10 9 9 8 7 7 6
17 17 17 13 14 15 13 13 14 14 13 14 15 14 10 7 7 7 9 10 12 15 15 13 14 15 15 15 15 16 16 16 16 14 14 13 13 13 15 14 14 14 14 14 13 12 11 11 9 8 6 5 5 5
17 18 15 13 11 11 13 11 13 14 11 10 10 9 8 7 7 8 9 10 11 10 11 12 13 15 15 14 14 14 14 13 13 14 13 13 13 13 13 13 13 14 16 15 14 14 14 10 9 6 5 5 4 5
16 15 14 13 12 11 11 12 12 10 10 9 8 10 8 7 7 7 6 6 8 10 12 12 12 13 13 14 14 14 14 14 12 12 13 13 12 12 11 9 9 9 11 12 10 8 7 5 5 5 4 3 1 2
16 15 15 12 11 10 12 12 10 10 10 11 9 8 7 9 9 5 5 6 9 10 12 11 11 11 11 12 12 13 14 13 13 13 12 11 10 10 9 8 9 9 8 7 7 6 5 5 5 4 3 2 0 -1
14 13 11 10 10 10 10 11 10 10 8 8 7 6 6 8 9 4 6 6 6 8 10 11 12 12 13 14 14 14 14 13 13 13 12 12 11 10 9 10 9 9 8 7 7 6 5 3 3 2 1 -0 -1 -2

GFSWCAN_sfc_30mbdewp_018.txt.gz
Dewpoint
36 36 35 35 34 34 31 33 35 40 40 42 43 45 48 48 53 51 48 48 46 43 42 41 39 35 41 40 37 38 38 39 41 37 37 37 33 34 36 37 34 34 34 34 34 32 29 30 29 27 33 33 32 34
34 33 36 35 34 34 31 32 35 40 40 41 42 45 47 48 53 52 47 48 49 45 45 44 43 43 41 44 40 40 40 40 42 40 39 36 34 32 31 33 37 33 34 34 35 34 33 33 34 35 35 34 35 36
36 35 36 36 35 34 32 32 35 39 39 41 42 44 47 47 52 51 48 48 47 44 43 44 42 44 45 45 45 40 41 43 42 44 40 38 35 35 29 29 30 32 31 30 29 31 32 34 34 35 36 35 36 35
36 36 36 36 35 33 33 32 34 39 39 40 42 44 47 48 52 51 47 48 48 46 40 42 44 43 44 45 45 46 45 43 45 45 42 39 37 36 36 33 29 29 30 30 30 33 33 34 34 35 34 34 34 35
36 36 35 35 35 33 33 33 35 39 38 40 42 44 46 48 52 51 50 49 50 46 41 40 43 43 44 43 43 45 44 44 40 41 41 39 38 35 35 33 31 31 29 30 29 32 31 33 35 35 34 34 35 35
37 36 36 33 35 34 33 33 35 39 39 41 42 44 48 49 52 49 44 49 50 49 44 38 43 42 43 42 41 40 40 41 42 42 41 40 39 38 33 32 34 32 33 33 32 34 34 35 35 35 35 35 35 35
35 36 36 33 35 35 33 32 36 37 40 40 42 44 47 51 51 46 43 47 51 49 43 38 37 42 42 43 43 42 43 43 43 42 41 40 39 38 37 35 36 33 34 34 35 35 34 34 34 35 35 35 34 33
36 37 37 36 36 35 33 33 37 38 39 40 43 46 47 51 49 47 48 50 50 45 43 37 37 40 42 41 40 42 42 43 42 41 40 39 38 37 34 37 34 34 34 34 34 35 35 35 35 34 33 31 30 30
37 37 37 37 36 34 33 36 38 40 40 40 43 46 49 47 44 45 48 47 46 45 39 37 35 35 41 40 40 40 42 40 41 40 39 39 38 35 37 37 34 34 34 34 36 36 35 35 35 34 31 29 28 29
37 37 37 36 35 33 34 37 39 39 39 42 43 44 41 44 47 46 43 42 41 40 40 37 40 36 39 38 37 38 38 37 35 37 38 36 35 39 39 38 35 36 36 36 34 34 35 34 33 31 27 27 28 29
38 37 36 35 34 33 36 38 37 40 41 44 42 40 44 47 41 40 38 37 38 35 37 38 39 36 38 36 35 36 35 35 33 34 35 34 33 35 36 35 37 37 36 35 36 36 36 35 31 26 27 28 28 29
37 36 36 34 33 34 35 37 38 37 33 36 41 43 42 38 36 35 34 35 34 33 36 36 37 37 35 36 34 34 32 32 30 33 32 29 31 30 33 36 36 36 36 36 36 35 34 29 27 28 28 29 30 31
36 35 34 33 33 36 35 37 38 39 39 41 40 37 37 35 31 30 27 29 30 34 35 35 34 33 33 33 31 31 28 30 31 29 28 29 30 32 34 35 35 35 35 32 30 27 26 27 27 27 28 29 30 31
35 34 32 33 35 35 34 37 39 37 34 35 32 31 31 30 30 31 31 30 33 35 35 34 33 32 32 31 30 26 29 28 26 23 20 27 28 33 34 33 31 28 26 26 26 26 26 26 26 27 28 28 28 27
33 31 33 34 33 33 35 38 38 36 33 31 32 31 30 31 29 31 33 33 36 36 34 32 31 31 30 27 28 26 24 23 24 21 26 28 32 33 32 29 26 25 25 25 25 25 25 25 25 25 24 24 24 22
32 32 33 32 33 34 37 37 35 36 32 31 31 29 31 30 27 29 31 33 37 36 35 32 29 26 26 27 24 22 21 18 21 27 29 29 32 33 29 25 24 24 24 24 24 24 23 23 22 20 19 19 19 18
32 31 32 33 34 35 37 33 32 32 32 30 29 30 32 31 29 30 32 35 36 33 29 29 25 24 28 25 24 25 22 27 30 28 29 29 32 29 26 24 24 24 23 23 23 24 24 22 21 20 18 14 14 13
30 34 33 33 34 35 35 32 31 31 28 29 29 29 29 30 31 32 34 36 35 33 30 29 29 25 24 21 23 27 28 27 29 28 29 31 30 26 24 23 23 23 23 24 24 24 23 23 22 20 17 15 14 14
32 31 32 33 35 34 30 31 31 27 28 30 30 30 31 32 34 34 35 34 30 31 30 29 25 26 26 28 29 29 26 27 26 26 27 27 25 26 27 26 25 24 23 23 24 24 23 23 21 19 16 15 14 13
29 31 32 34 35 30 29 29 32 29 26 28 31 30 30 30 32 32 31 30 30 30 24 19 20 22 23 25 27 29 28 26 25 26 27 27 28 27 26 25 24 24 23 23 23 21 19 18 17 17 16 15 14 14
31 32 31 32 32 31 29 27 27 28 28 28 30 30 29 32 31 31 31 34 32 31 25 25 25 26 27 27 28 28 26 25 25 27 26 26 26 26 25 24 24 23 22 21 21 21 18 17 18 16 14 13 12 11
31 30 29 30 27 26 28 29 26 28 28 28 28 30 29 29 29 30 32 30 28 27 29 27 27 26 25 25 26 27 27 27 26 26 26 26 25 24 24 24 23 23 23 22 20 18 18 16 14 15 16 14 10 7
28 26 25 22 19 19 22 28 24 25 23 24 26 25 24 26 27 31 25 26 24 26 27 26 26 26 23 22 22 23 25 25 24 23 23 24 24 24 24 25 24 23 21 20 19 17 16 17 16 15 15 12 10 7
23 18 14 15 17 14 20 22 25 23 24 22 21 20 21 23 26 25 20 20 22 26 24 24 24 22 21 21 20 21 21 21 21 21 22 22 21 21 21 21 21 20 20 19 18 15 14 14 15 12 10 8 7 6
12 12 13 7 14 15 14 18 20 20 18 19 19 19 20 22 22 19 17 16 18 17 20 25 21 21 19 19 20 20 21 21 21 20 19 19 18 18 18 18 18 19 19 17 15 14 12 11 11 10 9 7 6 6
6 14 12 13 14 14 15 16 17 18 19 19 19 21 22 22 17 12 11 11 13 13 13 15 20 19 19 19 19 18 19 20 19 18 18 20 20 18 17 17 17 17 17 16 13 12 11 11 10 11 11 10 9 6
6 9 18 19 17 16 14 14 15 17 17 15 17 19 20 15 11 10 13 10 11 12 14 15 19 18 17 17 16 17 17 18 18 16 16 16 17 19 19 18 16 15 15 13 12 11 10 9 9 8 7 6 6 5
15 15 11 15 15 15 13 12 13 13 15 16 19 14 13 10 9 8 9 11 12 14 15 16 17 17 17 17 17 16 16 16 15 15 15 15 16 16 16 16 16 15 13 12 11 11 10 9 8 8 7 6 5 5
17 17 16 12 13 14 13 12 14 14 12 13 14 12 9 7 7 7 9 10 13 16 14 14 14 16 16 16 17 18 18 17 16 15 14 13 13 13 15 15 14 14 14 14 13 11 9 9 8 6 5 5 4 4
17 18 15 12 10 10 12 11 13 13 11 10 10 9 9 8 8 9 9 9 10 11 12 14 16 16 15 15 14 14 14 13 15 15 14 12 12 13 14 15 15 14 14 15 15 15 13 9 8 5 4 4 3 4
17 16 13 13 11 11 11 12 13 11 11 9 9 9 8 7 8 8 7 7 10 13 14 13 14 16 16 16 15 14 13 13 13 14 14 13 13 12 11 12 13 14 12 9 8 7 6 4 4 4 3 1 0 -0
16 15 12 11 10 10 12 11 10 10 10 10 8 8 8 10 9 6 6 7 12 12 14 14 13 11 13 14 15 16 15 14 14 13 12 11 10 9 8 8 8 8 8 6 4 4 4 4 3 2 1 0 -1 -2
13 12 10 9 9 9 10 10 10 9 8 7 6 6 6 7 8 4 6 7 7 8 10 12 13 14 14 14 15 15 14 13 13 14 13 11 10 9 9 9 8 8 7 7 6 4 3 2 1 0 -1 -2 -3 -4

GFSWCAN_sfc_30mbdewp_021.txt.gz
Dewpoint
36 35 36 36 36 36 35 35 32 33 36 40 41 42 44 47 48 50 48 49 46 42 42 42 39 36 41 41 37 39 39 40 41 37 37 36 35 36 35 35 34 34 33 34 34 31 27 30 28 24 31 33 35 35
35 36 36 36 36 36 36 33 32 33 35 39 40 41 43 46 48 51 46 49 50 45 44 46 43 43 41 45 42 41 41 41 42 39 38 39 35 33 36 32 37 33 35 35 33 31 34 34 33 35 35 34 36 35
34 34 36 36 36 36 36 33 32 33 34 39 40 41 43 46 47 51 47 48 47 44 43 43 42 44 44 45 47 41 42 44 43 44 40 38 35 35 30 30 35 36 34 33 34 32 33 33 35 35 36 35 36 35
35 35 36 37 36 35 36 33 32 33 35 39 40 42 43 46 47 50 47 48 47 45 40 41 44 43 45 45 46 47 45 45 45 45 42 38 37 36 36 32 31 31 32 32 30 33 33 34 34 35 35 35 35 36
37 36 36 37 36 35 35 35 32 33 35 39 40 40 42 46 48 50 49 48 50 46 41 41 43 43 44 45 45 46 46 45 44 42 40 39 39 35 35 34 33 30 29 31 31 32 30 31 35 35 34 35 35 35
36 37 35 36 37 37 37 36 33 33 36 38 40 40 42 46 47 49 44 49 50 49 43 38 43 42 43 43 44 43 44 43 43 43 41 41 40 38 32 30 33 33 32 32 31 34 34 35 35 35 35 35 35 35
38 38 37 37 37 37 37 34 32 34 38 40 39 40 42 46 47 46 43 47 50 50 43 38 38 42 42 42 43 43 43 43 43 41 40 40 38 38 38 35 36 33 34 35 35 35 34 34 34 35 35 35 34 34
38 38 38 37 37 37 36 33 33 36 40 38 39 40 43 46 49 47 48 50 51 46 44 37 37 39 42 42 40 42 42 43 41 41 39 39 38 37 34 37 34 34 34 34 35 35 35 35 34 34 33 32 32 31
39 38 38 38 37 36 34 32 36 37 37 38 40 42 45 47 45 45 48 47 47 45 39 38 35 34 41 40 40 40 41 39 41 39 39 39 37 34 35 36 33 34 34 35 35 35 35 34 33 32 31 30 30 30
38 38 38 37 36 34 33 35 36 39 38 40 42 42 40 45 48 47 45 43 42 41 41 37 40 36 39 38 37 37 38 37 34 37 37 35 35 38 39 39 35 35 35 35 34 33 33 32 31 29 28 29 29 29
37 37 36 36 34 33 33 35 34 39 38 38 38 40 44 48 43 41 38 38 38 35 38 39 38 36 38 36 35 36 35 34 32 33 34 33 34 35 35 36 36 36 36 35 35 35 34 33 30 27 28 29 29 29
37 36 35 34 32 33 35 34 34 38 35 34 33 37 42 39 38 36 34 35 35 34 37 37 38 38 38 38 35 35 33 33 30 33 32 30 31 30 33 36 36 36 36 35 36 35 33 28 28 28 28 29 30 31
35 34 33 32 33 34 32 34 36 40 38 37 35 33 33 35 32 30 28 31 31 35 36 36 35 33 35 36 32 30 30 30 31 28 26 28 30 31 34 35 35 36 35 35 33 29 28 28 29 29 30 31 31 30
34 33 32 33 35 33 34 33 38 37 32 31 31 29 31 29 30 30 30 31 32 34 35 34 33 32 32 30 30 27 29 28 25 22 20 25 29 33 34 34 32 31 29 28 27 27 27 27 28 29 30 30 30 29
33 33 33 34 31 33 34 35 38 36 31 30 30 30 31 30 29 31 33 34 35 36 34 31 30 30 29 28 27 26 25 22 23 19 23 28 31 32 29 27 27 27 26 26 26 26 27 27 27 26 26 25 23 21
33 32 31 30 33 33 34 37 35 35 31 30 31 30 31 29 28 30 32 33 36 35 33 30 27 24 25 25 24 22 20 16 18 26 28 30 32 30 26 26 26 26 25 25 25 25 24 24 23 21 20 19 18 17
33 30 31 33 32 33 36 34 32 31 31 30 29 31 31 30 28 30 33 35 37 33 29 27 23 22 26 23 21 23 19 20 29 28 28 31 31 26 25 25 24 24 24 24 24 22 21 19 18 17 16 14 14 14
31 32 33 32 33 33 34 33 31 31 27 29 28 29 30 30 30 32 34 36 35 32 29 26 28 25 22 19 19 24 28 28 27 28 29 30 25 25 24 24 24 24 24 24 23 22 21 19 18 15 15 15 14 13
32 31 32 32 34 33 29 30 31 26 28 29 30 31 31 32 33 34 35 34 31 32 30 29 24 22 23 25 27 28 26 27 27 29 28 25 24 25 25 25 25 24 24 23 23 23 22 20 17 15 14 14 13 13
30 32 32 32 33 29 26 26 31 28 25 28 30 30 30 30 32 32 31 30 30 26 22 19 21 24 24 26 27 28 27 27 28 27 25 26 26 26 25 24 23 23 22 22 21 20 19 17 17 16 15 14 14 14
31 31 31 31 30 30 26 25 25 27 27 26 30 30 29 32 31 32 32 34 32 31 24 25 25 26 27 27 29 28 26 27 27 27 26 26 26 25 24 24 24 23 22 21 20 20 18 17 17 17 15 13 13 11
29 30 27 27 22 22 26 27 25 27 26 27 27 28 28 28 29 30 32 29 26 26 28 27 26 25 25 25 26 26 26 27 28 28 27 26 24 24 24 23 22 21 21 20 19 18 17 16 15 14 13 13 9 7
28 23 20 16 14 14 16 24 22 23 21 22 26 24 24 25 27 30 24 23 22 25 25 26 26 24 23 23 25 25 26 26 26 26 25 25 24 24 24 23 22 21 19 18 18 16 16 18 16 12 11 9 9 8
22 16 13 13 14 10 16 18 22 22 23 21 20 19 21 22 25 23 18 18 19 21 23 24 25 24 24 22 22 22 22 23 23 23 24 23 23 22 22 21 21 20 19 18 17 17 16 16 15 11 8 6 5 4
10 10 11 5 11 13 12 14 16 19 17 20 18 18 20 22 21 17 14 13 14 14 15 20 23 23 21 20 21 22 22 23 22 20 20 20 19 19 19 19 19 18 17 16 15 15 14 12 10 8 6 6 5 5
4 11 9 10 11 12 13 13 14 15 18 18 19 21 22 20 14 10 9 9 10 11 11 12 15 20 19 20 20 20 20 21 20 19 19 20 20 19 18 18 18 17 16 15 14 12 11 10 8 6 6 9 9 5
5 7 17 19 17 15 13 13 13 15 15 15 16 17 18 14 10 9 11 10 9 11 13 15 17 18 17 16 17 17 17 18 18 17 18 18 18 19 19 18 17 16 15 14 12 11 10 10 10 9 7 6 5 4
12 14 9 13 14 14 11 11 12 12 13 14 16 13 12 9 9 7 9 11 11 13 15 16 18 18 17 17 17 16 17 17 17 17 16 16 16 17 17 16 16 16 13 12 11 11 10 9 7 5 4 3 3 4
16 16 14 11 13 12 11 11 12 12 12 12 12 10 8 7 7 7 9 10 12 15 15 14 15 17 17 17 17 18 18 18 17 15 15 14 14 15 15 15 15 15 14 14 13 10 8 7 7 6 5 4 4 4
15 16 13 10 9 9 11 10 11 12 10 10 10 10 8 7 8 9 9 10 11 12 14 16 17 17 16 15 15 15 15 17 19 17 14 13 12 14 14 14 14 14 14 14 14 14 13 10 8 5 4 3 3 2
16 14 12 10 9 9 9 11 12 11 9 7 7 8 8 7 8 9 7 8 10 14 14 14 15 16 16 16 16 16 15 14 15 14 14 13 14 14 14 14 14 13 12 9 8 7 5 3 2 1 -0 -2 0 -2
15 13 11 10 9 9 9 10 8 8 8 8 7 5 7 8 7 6 6 8 12 12 15 14 13 13 15 15 16 16 15 15 14 13 12 12 12 12 13 12 10 8 6 5 4 4 3 3 1 0 -1 -2 -3 -3
12 10 7 7 8 9 9 8 8 8 5 6 5 4 4 7 9 5 7 8 8 9 10 12 13 14 14 15 15 15 14 13 13 13 13 12 12 11 10 9 8 6 5 4 3 2 1 0 -1 -1 -2 -3 -3 -4

GFSWCAN_sfc_30mbdewp_024.txt.gz
Dewpoint
36 37 35 34 36 37 36 37 36 32 32 35 37 41 42 44 47 48 48 49 46 42 42 41 39 39 42 40 36 39 40 39 41 37 35 36 35 36 34 34 34 34 32 33 33 30 25 32 29 24 28 35 35 35
36 35 36 35 36 37 36 36 36 33 32 34 37 40 42 43 46 48 46 50 50 45 44 46 44 43 41 43 41 42 41 41 41 39 38 38 36 36 34 31 36 33 35 34 33 31 34 34 32 35 34 34 35 35
36 37 37 37 36 37 36 35 36 35 32 33 36 40 41 42 45 48 47 49 48 44 43 43 42 44 44 45 47 40 42 44 44 44 40 38 36 34 34 34 35 36 36 35 34 33 34 33 35 36 36 35 35 35
37 36 36 37 36 37 37 35 37 36 33 34 37 39 41 41 45 47 48 48 47 44 39 41 44 43 45 45 47 47 46 46 46 45 41 37 36 37 35 32 34 35 34 32 32 32 33 33 34 35 36 35 35 35
38 37 38 38 37 36 37 37 37 35 33 35 38 40 40 41 44 46 49 49 49 45 40 41 43 43 44 45 45 46 46 45 44 43 41 39 40 36 36 34 32 31 33 33 32 32 30 31 35 36 35 35 35 34
38 37 38 38 38 37 37 37 36 33 34 35 38 40 38 40 43 45 44 49 50 49 42 38 43 42 43 44 44 45 45 43 44 43 41 41 40 37 34 33 33 33 31 33 32 34 34 35 35 36 35 35 35 34
39 39 39 39 38 37 37 36 34 33 35 37 39 38 38 41 44 43 43 46 50 49 43 38 37 42 42 42 43 43 44 44 44 42 41 39 38 38 36 35 36 34 34 34 35 35 34 34 34 35 35 35 35 35
40 39 38 38 38 37 36 34 33 35 36 36 38 38 40 41 46 44 49 50 50 46 45 37 37 39 42 41 40 44 43 43 41 41 40 39 38 37 34 36 35 34 34 35 35 35 35 35 35 34 34 34 33 33
38 37 37 36 36 35 33 32 34 35 35 38 39 41 42 44 43 46 49 49 47 45 40 38 34 33 41 41 40 41 42 39 40 39 39 38 37 34 34 35 34 34 34 34 35 35 35 34 33 33 32 32 31 31
37 37 36 35 34 33 33 35 33 33 37 39 42 40 38 45 48 48 47 44 43 42 41 38 39 36 39 39 38 37 38 37 35 37 37 36 35 37 39 39 36 35 35 35 33 33 32 32 32 31 30 30 30 29
37 36 35 34 33 33 35 32 33 36 39 36 32 36 37 47 45 43 39 38 38 36 38 39 38 36 39 36 36 36 35 34 32 33 34 33 33 35 34 36 36 35 35 35 35 34 34 32 30 29 29 29 29 29
36 35 34 33 33 34 34 33 34 36 38 36 35 34 36 40 39 36 34 36 35 34 37 37 38 38 38 38 36 35 33 33 30 33 32 30 32 32 32 36 35 35 35 35 35 34 32 29 29 29 29 29 29 29
35 34 34 34 33 34 32 34 33 37 38 36 32 30 31 34 31 31 29 31 32 36 37 37 35 36 37 37 34 32 32 31 31 29 26 28 30 30 33 35 35 35 35 34 31 29 29 29 29 29 29 30 30 29
35 35 34 34 30 31 34 34 34 38 34 30 30 28 29 30 31 31 31 32 33 35 36 35 33 32 33 31 31 28 29 28 25 24 22 25 29 32 34 34 34 34 32 30 29 29 29 29 30 30 30 30 30 29
35 35 36 33 30 34 33 34 37 37 32 29 30 27 30 32 31 31 31 33 34 37 35 32 31 30 29 29 27 26 26 24 24 21 23 26 29 32 32 31 30 29 29 28 28 28 28 29 28 28 28 28 28 26
36 34 30 30 34 33 34 37 36 35 31 30 30 29 31 30 29 30 32 32 36 36 32 30 27 27 27 25 24 24 22 18 18 24 27 29 31 29 28 28 28 27 27 27 27 27 27 26 26 23 22 21 20 19
35 28 30 34 33 33 35 34 33 31 30 30 29 31 31 31 29 30 32 35 37 33 31 26 25 26 24 22 21 21 18 18 24 28 28 30 29 27 26 26 25 26 25 25 25 24 22 21 20 19 17 15 15 14
32 32 35 33 32 34 32 33 29 30 27 29 26 28 31 31 30 30 33 36 35 32 28 25 27 25 24 21 19 21 25 28 25 28 30 29 26 25 25 25 25 24 24 23 22 21 20 19 17 16 15 14 14 12
34 34 32 32 33 30 29 29 30 24 27 29 29 30 31 32 34 33 34 34 32 32 29 27 23 22 22 23 22 25 25 26 27 29 27 25 25 25 25 26 25 24 24 22 21 20 19 17 16 15 13 13 12 11
33 33 32 32 32 28 24 24 28 26 24 26 29 29 30 30 32 32 32 31 30 26 24 23 22 24 26 26 27 27 27 27 28 27 25 25 25 25 25 25 24 23 22 22 21 19 17 16 15 14 14 13 12 11
30 30 30 29 29 28 25 24 22 26 26 25 28 29 29 31 31 31 32 34 32 29 24 24 24 25 26 27 28 28 28 29 29 27 25 25 25 25 24 24 24 23 22 21 19 20 17 16 16 17 17 14 13 9
27 30 26 23 19 18 24 26 24 25 25 25 25 27 26 27 29 30 31 29 26 24 26 26 26 25 25 26 26 27 28 28 28 27 27 26 24 24 24 24 22 22 21 20 19 18 17 16 15 14 14 14 11 10
28 21 16 14 12 11 13 19 21 21 20 21 23 23 23 23 26 29 23 22 21 21 24 25 24 24 24 25 26 27 28 27 26 26 25 24 24 24 24 23 22 20 19 18 17 17 16 17 16 12 12 9 9 9
20 15 11 11 12 7 13 14 16 20 20 19 19 19 21 22 25 21 16 16 16 17 16 18 25 24 23 23 23 24 25 26 25 24 24 24 23 22 21 20 20 19 18 18 18 18 16 15 14 10 9 8 6 5
10 6 10 3 9 9 10 11 13 16 15 18 18 18 20 22 19 15 12 12 12 12 12 13 18 23 22 21 22 22 23 24 23 23 23 22 21 20 19 18 18 18 18 18 17 16 15 12 10 8 6 5 4 4
7 7 7 5 9 9 11 10 12 13 16 16 18 19 21 19 15 11 10 9 9 11 11 11 11 14 19 21 21 21 22 23 22 21 22 24 23 22 19 18 17 17 17 17 16 14 11 9 7 6 6 8 9 5
7 6 15 18 16 15 12 13 12 13 14 14 14 14 16 13 12 10 10 10 9 11 12 13 14 17 17 17 18 19 20 21 22 19 20 20 20 20 20 19 18 16 16 16 14 12 10 7 7 8 9 8 5 4
12 11 9 13 14 12 10 10 10 11 12 12 13 12 10 9 9 8 9 11 11 12 13 16 18 18 17 17 18 18 18 18 18 18 17 17 17 18 18 17 17 17 14 13 12 11 10 9 9 8 6 3 3 2
15 15 13 11 12 12 11 10 11 12 12 11 11 11 9 8 7 6 8 9 11 13 15 15 16 17 17 17 18 18 20 21 21 19 17 15 16 15 17 17 16 15 15 14 14 12 9 8 6 4 4 3 3 3
15 14 12 8 9 7 10 9 10 11 10 10 10 9 8 7 7 9 8 9 9 11 14 16 17 17 16 16 16 17 17 19 22 20 18 16 14 15 15 14 14 14 14 13 13 13 13 11 10 6 4 4 4 3
14 12 10 9 9 8 8 9 10 10 7 6 5 7 8 7 8 9 7 8 10 14 15 15 15 16 17 17 17 17 16 16 17 17 16 15 15 14 14 14 15 14 14 13 12 10 9 4 2 1 1 1 2 -2
14 13 11 10 9 7 7 8 7 8 6 7 7 4 7 8 9 7 7 8 12 11 15 14 14 13 15 15 17 18 17 16 16 15 15 14 14 14 13 12 11 10 9 7 6 4 2 1 0 -1 -3 -3 -4 -3
9 7 4 6 8 8 7 8 7 8 5 6 5 3 4 6 10 6 8 9 8 9 11 12 13 14 14 15 15 15 14 14 15 16 15 15 14 13 10 8 7 6 5 4 4 2 1 -0 -2 -2 -3 -4 -4 -5

GFSWCAN_sfc_30mbdewp_027.txt.gz
Dewpoint
37 37 36 38 37 36 36 37 36 36 36 32 33 36 40 42 44 46 45 49 47 42 42 41 41 41 42 39 36 38 38 40 39 36 34 34 32 33 33 32 34 33 31 30 32 30 24 31 29 25 28 34 34 35
35 36 37 36 37 37 35 37 36 37 37 34 33 35 40 41 43 46 45 50 50 44 43 47 45 43 43 44 41 41 40 40 41 37 37 37 36 36 34 31 36 32 34 32 33 29 33 34 33 35 34 34 34 35
37 37 37 37 36 38 36 37 37 37 37 34 33 35 39 41 41 44 45 48 48 44 43 43 42 45 45 46 47 39 41 43 44 45 40 38 36 35 33 33 34 36 37 35 34 33 35 33 35 36 36 35 36 36
39 38 37 36 37 38 37 38 37 37 36 33 35 37 39 40 40 43 44 48 47 44 39 40 45 43 45 47 48 47 45 46 46 45 42 38 36 37 34 33 35 35 35 34 33 33 33 33 34 35 35 35 35 34
38 39 39 39 38 38 38 38 37 37 34 33 35 38 41 39 40 43 44 48 49 46 40 41 43 44 45 45 46 47 46 45 44 43 42 39 40 37 36 34 33 32 34 33 32 34 31 31 35 36 35 34 34 33
39 39 39 38 38 38 37 37 36 34 33 35 37 37 38 39 40 43 44 49 49 48 43 38 43 42 43 44 44 44 45 44 44 43 41 42 40 38 34 33 35 34 32 35 34 34 34 35 36 36 35 34 34 33
39 38 37 37 37 36 36 34 33 33 34 36 35 35 37 38 40 39 41 45 49 48 44 38 37 42 43 43 43 43 44 44 44 43 42 40 38 39 36 33 36 34 33 34 35 35 34 35 35 36 35 35 35 34
38 37 37 36 35 34 33 33 34 35 33 34 35 37 39 41 42 42 46 47 49 46 45 37 36 39 42 41 40 45 42 43 42 42 40 40 39 37 34 36 37 34 35 35 35 35 35 35 35 35 35 34 33 32
38 37 36 35 34 33 33 34 33 33 33 36 39 42 41 41 41 46 50 49 48 44 40 38 35 32 41 41 40 41 42 39 41 38 39 38 37 33 34 35 35 34 34 34 35 35 35 34 34 34 33 33 32 32
38 37 35 35 34 33 33 34 33 34 36 40 41 40 38 43 46 49 47 44 43 43 41 38 38 36 39 39 38 38 38 37 35 36 38 36 35 37 38 38 37 35 35 34 33 33 33 33 32 32 32 32 32 32
38 37 35 35 34 34 32 33 32 35 38 37 33 32 35 38 43 43 39 38 38 36 39 38 38 36 39 36 36 36 35 34 31 32 34 32 32 35 34 37 38 35 35 35 34 34 34 33 31 30 30 30 30 30
38 36 36 35 35 32 32 32 34 35 36 37 37 36 34 37 39 34 34 36 35 34 37 38 37 37 37 38 35 35 33 33 29 32 31 29 31 32 33 36 36 35 35 34 34 33 32 31 30 30 29 29 28 26
37 36 36 36 35 30 32 34 33 36 38 36 33 30 31 33 30 31 29 32 32 36 37 37 36 37 38 37 34 32 32 31 31 29 27 29 30 30 32 35 34 35 35 33 31 30 30 29 29 29 29 29 26 24
37 36 36 36 31 32 34 33 34 38 34 30 29 27 28 29 31 32 32 32 33 35 37 36 34 33 35 34 33 32 29 28 26 25 24 25 28 31 33 34 34 34 32 30 29 29 29 29 29 30 29 28 26 24
37 36 37 32 32 34 33 34 37 37 33 28 30 26 29 32 31 31 32 32 34 37 35 32 31 31 30 31 27 27 26 25 25 23 23 24 27 32 33 33 33 31 30 29 29 29 29 29 29 29 29 28 25 22
36 36 26 33 35 33 33 36 37 36 31 29 29 28 31 30 30 30 31 31 35 37 33 32 29 28 28 27 25 25 24 22 22 24 25 26 30 31 31 30 29 29 29 29 29 29 28 28 27 26 25 24 21 18
36 28 29 36 34 33 35 33 33 31 30 29 28 31 30 30 30 31 32 33 37 34 32 28 27 27 24 23 24 22 22 21 21 26 26 29 30 29 28 27 27 27 27 27 27 25 24 23 23 23 22 17 16 15
33 32 36 33 32 33 30 32 29 27 25 27 26 27 29 30 31 31 31 34 36 34 28 26 26 26 25 23 21 21 22 27 25 26 29 28 26 26 26 26 26 26 25 24 24 23 23 21 20 17 16 15 14 13
35 36 33 32 32 30 27 28 29 23 24 27 28 28 29 30 33 34 33 33 33 33 29 27 24 23 24 24 21 22 24 26 27 29 27 26 25 25 25 25 24 24 24 23 22 20 19 18 16 15 14 13 12 11
35 33 32 32 32 26 24 23 25 25 22 24 27 27 28 28 31 32 32 33 31 30 30 27 24 23 25 27 26 27 26 26 27 27 25 24 25 25 25 25 24 23 21 20 19 18 16 15 14 14 13 12 11 11
30 30 30 27 28 27 24 24 21 24 25 23 24 26 26 30 30 31 31 33 32 31 29 25 25 25 26 26 27 27 27 28 28 28 26 24 25 25 24 24 23 22 21 19 18 19 16 15 14 16 15 12 10 7
27 30 23 20 17 16 23 24 21 23 23 22 23 23 24 25 26 27 28 28 23 21 23 24 25 24 25 26 26 27 28 28 27 27 27 26 24 24 24 24 23 22 21 20 19 17 16 16 16 15 13 12 10 10
26 20 15 13 11 9 11 17 20 19 19 19 19 20 22 23 25 28 21 20 18 18 18 20 20 24 23 25 27 28 28 27 26 26 25 25 25 25 24 24 22 21 19 18 18 17 16 17 17 13 13 10 10 10
19 14 10 9 11 4 12 12 14 17 18 17 17 16 19 21 24 21 17 15 15 17 15 15 16 23 24 24 25 25 26 26 25 24 24 24 23 22 22 21 21 21 19 18 18 18 17 15 15 12 11 10 8 5
12 6 9 3 8 7 6 8 11 13 14 14 17 15 19 22 19 16 13 13 12 12 12 13 14 15 19 21 22 23 24 25 24 24 23 22 20 20 19 19 19 19 19 18 17 16 15 13 12 11 9 8 5 4
7 5 7 1 5 5 7 5 10 11 13 14 15 16 17 18 15 13 11 10 10 11 11 10 10 12 15 19 21 22 23 24 23 22 22 22 22 21 19 18 18 18 19 18 16 14 13 12 10 8 7 9 9 4
7 6 13 15 14 13 12 12 11 12 13 13 12 12 13 11 12 11 11 11 10 11 12 12 12 12 14 18 19 19 20 22 22 21 21 23 25 25 23 21 19 18 18 18 16 14 12 10 8 8 9 10 7 4
13 10 9 13 13 10 8 9 8 9 11 12 12 11 11 11 10 7 8 11 10 11 11 13 16 17 17 17 18 18 18 19 19 20 20 19 20 20 20 19 19 19 17 16 14 12 10 9 9 9 8 4 3 3
15 14 12 12 11 11 11 8 8 11 11 10 10 11 10 9 7 6 6 7 9 12 13 15 16 17 17 18 18 19 20 21 21 19 18 16 16 16 19 19 19 19 19 16 14 12 10 10 9 7 5 4 2 2
14 13 12 8 8 5 9 8 10 10 9 9 9 9 8 7 6 8 8 7 8 10 12 15 17 17 16 17 17 17 18 20 22 21 19 17 16 17 18 18 18 17 16 15 14 14 14 12 9 6 4 4 4 4
12 11 10 8 9 7 6 6 8 9 5 6 3 7 8 6 7 9 8 7 8 13 15 15 15 16 17 17 17 18 17 17 18 18 17 16 17 17 17 17 16 15 14 14 12 11 9 4 3 3 2 1 1 -2
13 12 11 10 8 5 5 7 5 7 4 7 7 2 5 7 9 7 7 8 12 11 14 13 13 13 15 15 17 19 18 17 17 17 16 15 15 15 14 14 13 12 11 10 8 5 3 2 1 1 -0 -2 -3 -4
7 5 2 6 7 7 6 7 6 8 5 7 6 3 3 6 10 7 7 9 9 10 11 12 13 14 14 15 15 16 16 17 19 19 19 17 15 13 11 10 10 8 6 5 3 2 1 -0 -1 -3 -4 -4 -5 -5

GFSWCAN_sfc_30mbdewp_030.txt.gz
Dewpoint
35 37 36 38 37 37 37 38 37 38 37 37 36 34 35 40 42 43 43 47 46 42 42 42 41 40 41 39 35 38 37 39 39 35 34 34 32 33 32 31 33 32 33 30 30 29 24 33 30 26 29 33 34 34
37 38 37 37 38 35 37 38 37 38 37 37 35 34 36 40 41 42 42 45 51 45 44 47 45 43 44 43 41 41 39 40 40 36 37 37 35 35 33 30 35 32 33 30 32 30 32 35 33 35 35 34 34 35
38 39 38 39 39 38 38 38 38 37 37 37 34 34 36 40 40 41 42 44 48 44 43 43 42 46 47 47 48 40 41 42 44 45 39 38 35 35 33 33 34 35 36 35 34 33 33 34 35 35 35 35 36 35
39 39 39 38 37 38 38 38 37 37 36 35 33 34 38 39 40 40 41 43 45 44 39 40 45 44 46 48 48 47 45 45 44 45 42 39 35 36 34 34 34 35 36 35 34 34 34 33 34 35 35 35 34 34
39 39 39 37 36 36 36 37 36 35 33 33 34 36 37 37 38 41 42 44 47 45 40 41 43 44 45 46 46 47 46 44 43 42 41 39 40 37 36 34 33 34 34 33 32 34 32 31 35 35 34 34 33 32
39 38 37 36 35 34 33 33 32 32 33 35 35 33 35 36 37 40 41 48 49 49 42 38 44 42 44 44 44 44 45 45 44 42 42 42 41 38 35 33 35 34 33 35 34 34 34 35 36 35 34 33 33 32
39 37 37 36 35 34 33 33 33 34 32 33 35 34 36 37 39 37 40 43 45 46 43 38 37 42 43 43 43 43 44 43 43 43 42 41 39 39 36 33 34 35 35 33 35 35 34 35 35 35 34 34 33 31
39 38 37 36 35 34 33 33 33 32 34 34 35 38 40 41 41 40 43 44 45 46 45 37 36 39 42 41 40 45 42 43 43 42 41 40 39 37 35 37 37 34 35 35 35 35 35 35 35 34 34 32 31 30
38 38 38 36 35 35 34 32 33 32 35 36 40 42 41 40 40 44 49 49 49 45 39 38 34 31 41 41 41 41 42 38 41 39 39 38 38 35 36 35 35 35 34 34 35 35 35 34 34 33 32 31 30 29
38 38 38 36 36 36 34 32 32 34 35 38 38 39 38 40 39 45 46 43 43 43 41 38 38 35 39 39 38 38 38 37 35 36 38 35 36 37 38 37 36 35 35 34 33 33 33 33 33 32 31 31 30 29
37 38 37 37 37 36 35 31 33 34 37 36 33 32 36 38 42 42 36 37 38 36 39 38 37 35 39 36 36 37 36 34 31 32 34 31 32 34 34 37 38 35 35 35 34 34 35 34 33 32 31 31 30 29
38 38 38 37 37 35 31 34 34 34 34 36 36 37 35 36 38 35 33 36 35 33 37 37 37 37 37 38 35 35 33 33 28 32 31 28 30 32 33 35 36 35 35 34 34 34 33 32 32 31 31 29 27 24
38 38 38 37 36 31 34 34 33 35 38 37 33 31 31 33 30 30 29 31 32 35 37 37 36 37 38 36 34 33 31 30 31 29 28 29 29 30 31 34 34 35 35 33 32 32 31 30 30 30 28 25 23 21
37 38 37 37 33 35 35 33 34 38 34 30 29 27 28 29 30 31 31 32 32 33 37 36 35 35 36 35 34 33 30 29 27 25 24 25 26 30 33 34 34 33 32 31 30 30 30 29 29 28 25 24 22 21
37 37 37 32 35 36 34 34 35 38 33 28 29 26 28 31 32 32 32 32 33 35 35 33 32 32 31 33 29 28 26 26 26 24 24 24 25 31 33 33 32 31 30 29 29 29 29 29 28 26 25 23 21 19
37 36 26 34 37 34 33 34 37 36 32 29 29 27 30 29 30 31 31 30 34 37 34 33 30 29 30 29 28 27 25 23 24 26 25 24 29 31 32 32 30 30 29 29 29 29 29 28 27 25 22 20 19 17
36 34 30 37 34 33 34 32 32 31 29 27 28 30 30 29 29 30 32 32 36 35 33 30 28 28 26 24 25 24 24 24 22 23 25 26 30 30 29 29 29 29 29 29 28 27 26 25 23 22 20 17 16 15
34 33 36 36 32 32 30 32 28 26 24 25 25 26 28 29 29 30 33 33 34 35 31 28 27 26 25 24 23 23 23 24 26 25 28 28 27 27 28 27 28 28 27 26 25 25 25 24 22 19 17 16 15 14
35 36 35 32 32 30 25 27 28 22 23 25 26 27 27 28 29 31 33 33 34 34 32 30 25 25 25 24 23 21 21 26 26 28 26 26 26 26 26 25 25 25 25 24 24 24 22 21 19 17 15 15 13 12
36 33 32 32 31 26 22 23 25 24 22 23 25 25 26 26 28 30 31 32 32 32 31 30 28 24 25 26 26 26 27 25 27 27 25 25 25 25 25 25 24 23 21 20 20 19 17 16 15 14 14 13 12 12
30 29 29 27 27 26 24 23 20 22 24 22 23 22 24 25 27 29 30 31 30 31 29 26 26 26 26 26 27 27 27 27 27 27 26 24 25 24 24 23 22 21 20 20 18 19 17 15 14 16 15 11 9 8
28 28 21 19 17 17 22 24 21 21 21 22 22 19 21 22 24 26 27 27 21 17 18 19 20 21 23 24 25 26 28 28 28 27 27 26 24 24 23 23 22 21 20 20 19 17 16 16 15 13 11 11 10 11
25 20 14 12 11 8 10 15 20 18 18 18 16 18 19 21 23 25 20 19 17 18 18 17 17 19 20 25 26 27 28 27 26 26 26 25 24 25 24 23 23 21 20 19 18 17 17 17 15 13 12 11 11 12
19 14 10 8 9 1 10 11 13 14 16 16 16 13 16 20 22 20 18 15 15 17 15 14 15 16 22 25 25 25 25 26 25 25 25 25 24 24 23 23 22 22 19 18 18 18 17 16 15 12 12 11 10 6
15 9 9 2 6 7 4 7 10 12 13 12 15 14 17 19 18 16 14 13 12 13 13 12 12 13 14 18 22 23 25 25 25 24 24 23 21 21 20 20 19 19 19 19 18 17 17 14 13 12 11 9 7 5
11 5 6 2 3 2 3 1 7 9 11 12 13 13 13 16 15 13 12 11 10 11 11 10 9 10 11 16 17 20 22 24 25 23 22 22 21 21 20 20 19 19 20 20 18 16 15 14 12 11 10 10 9 5
8 6 10 13 12 11 11 11 11 10 10 12 12 11 11 11 11 13 12 11 9 10 11 12 11 11 11 13 17 20 20 22 24 22 23 25 24 24 23 21 19 19 19 19 17 15 14 13 12 12 11 11 7 5
14 10 7 13 13 9 6 8 7 7 9 11 11 10 11 11 11 9 7 9 9 8 10 11 14 15 16 17 18 19 19 20 20 21 21 21 21 23 23 23 22 23 20 17 16 15 14 13 12 11 9 6 4 4
14 12 12 11 10 11 10 6 4 9 11 10 10 10 11 9 7 6 6 7 7 7 9 12 14 18 18 18 18 19 19 20 20 19 19 16 17 18 23 23 21 19 18 18 18 17 15 12 10 8 5 4 3 3
14 12 11 8 9 5 8 7 9 8 9 8 8 9 8 7 6 6 7 7 7 8 9 10 14 16 16 16 16 17 18 19 23 22 18 17 15 18 20 20 20 20 20 20 19 18 16 13 10 6 4 4 4 3
12 10 10 8 8 6 5 5 7 8 5 6 2 7 8 6 6 7 7 7 7 9 12 13 14 14 15 16 17 17 17 18 20 21 19 18 18 18 19 19 20 20 20 18 14 11 9 5 4 4 3 3 3 -2
12 12 11 10 8 3 3 5 4 7 4 6 6 1 4 6 9 7 6 7 10 11 13 12 12 12 14 15 16 18 18 18 18 18 18 17 17 18 18 18 18 17 15 11 8 6 5 4 4 2 1 -0 -3 -4
5 4 2 5 6 6 5 6 6 7 4 7 6 3 3 6 10 7 5 7 8 8 10 12 14 14 15 16 16 17 17 18 20 20 20 19 18 17 16 14 11 9 7 6 5 4 3 2 1 -0 -2 -4 -4 -5

GFSWCAN_sfc_30mbdewp_033.txt.gz
Dewpoint
36 35 38 37 39 38 38 38 38 38 38 37 37 34 34 38 43 41 41 45 44 42 42 42 41 40 40 39 36 38 38 38 37 34 33 33 33 33 32 31 32 30 31 32 32 28 25 33 31 28 31 33 34 34
35 37 38 38 38 36 37 38 39 38 37 37 36 34 34 38 41 42 39 43 45 45 43 46 45 44 42 41 40 40 39 39 40 36 35 36 34 35 32 29 34 31 33 30 30 29 32 35 35 35 35 34 34 35
36 38 39 38 37 35 36 36 37 37 37 35 34 33 34 37 38 39 41 42 45 44 42 42 41 46 47 46 46 40 41 42 42 44 39 37 35 36 32 32 33 34 36 34 34 33 34 34 34 35 35 35 35 34
36 39 38 38 36 35 34 33 33 33 33 33 33 34 36 36 36 37 39 41 41 43 39 39 45 44 47 47 48 47 45 46 44 44 41 39 35 36 33 34 34 35 36 35 34 34 34 34 34 35 35 34 32 30
38 39 37 37 36 35 33 33 33 33 32 34 33 32 33 35 36 38 39 42 43 42 39 40 44 44 45 47 47 48 46 44 42 41 40 38 40 37 36 35 34 34 34 33 32 34 33 32 35 35 34 33 31 29
39 38 38 37 36 35 34 34 33 33 32 33 34 35 35 36 36 38 39 46 47 47 43 37 44 42 44 45 45 45 45 44 43 42 41 42 42 38 36 34 35 35 34 36 35 34 35 35 35 35 34 33 31 29
39 37 38 38 37 35 35 34 34 33 32 33 35 37 37 37 37 36 39 42 44 43 43 38 37 42 43 43 43 43 45 44 43 43 41 42 40 40 38 34 35 35 35 34 35 35 34 35 34 34 33 32 30 28
39 37 37 38 37 36 35 35 33 33 33 35 35 39 41 42 41 39 42 44 44 43 45 36 36 38 42 41 40 44 42 43 43 42 41 40 39 38 36 37 37 35 35 34 35 35 35 35 34 33 32 31 29 27
39 37 37 38 37 37 36 35 33 33 34 35 38 42 40 39 38 42 43 46 46 45 38 38 33 31 41 41 41 41 42 38 42 39 39 38 38 35 37 37 36 36 35 34 35 35 35 34 33 32 32 30 28 27
39 38 38 38 37 37 36 33 33 34 34 37 38 37 36 39 40 41 45 43 43 43 42 38 37 34 39 39 38 38 38 37 35 36 38 36 36 38 39 38 37 36 35 35 34 34 34 33 33 32 30 29 28 27
38 38 38 38 37 37 33 34 34 34 35 34 33 32 36 39 41 42 37 38 38 36 39 38 36 34 38 36 37 37 35 34 32 32 33 32 32 34 34 34 37 36 35 35 34 35 35 34 32 31 30 29 28 25
38 38 38 38 37 37 32 35 34 34 34 35 36 37 36 36 38 35 33 35 35 33 37 37 37 36 37 38 35 35 33 33 28 31 31 28 30 32 32 35 36 35 35 34 34 34 34 33 32 31 30 27 25 23
37 38 38 38 38 34 36 35 34 35 37 36 34 32 32 33 30 30 29 32 32 34 37 37 36 37 37 36 33 33 31 29 31 29 28 29 30 29 31 34 35 35 34 33 33 33 32 32 31 29 26 24 23 21
37 37 38 38 35 37 36 34 34 36 33 29 28 28 27 28 30 30 30 31 31 33 35 37 36 36 36 35 34 30 30 30 27 25 25 26 25 29 32 33 34 33 32 32 31 31 31 30 28 26 24 23 22 20
37 37 38 33 37 36 34 34 36 37 32 28 28 25 27 31 32 32 32 32 32 35 36 34 33 32 32 33 30 30 28 26 27 25 25 24 24 29 32 33 32 31 30 30 30 30 29 27 25 24 23 22 19 17
37 37 28 33 37 34 33 33 36 36 32 29 28 26 29 28 29 29 30 31 33 36 35 33 31 30 30 30 29 29 26 24 24 27 25 24 28 31 32 32 31 30 30 30 30 29 27 25 24 22 20 19 17 16
36 34 33 37 35 33 34 31 31 30 29 27 27 29 30 27 27 29 32 32 35 35 33 33 31 30 26 25 26 26 26 26 24 22 25 25 29 30 30 30 29 29 29 29 29 28 25 22 21 19 18 16 15 15
34 34 36 37 33 31 29 30 27 25 24 25 24 25 27 28 28 28 30 34 33 33 32 31 28 27 26 26 25 24 24 22 25 26 27 27 28 28 29 29 29 29 28 27 27 25 23 22 20 18 17 16 16 15
35 35 36 33 32 28 24 26 27 22 22 24 25 26 26 26 28 29 29 30 33 33 31 30 28 27 26 24 23 23 23 24 26 27 26 26 27 27 27 27 26 26 26 26 26 25 23 21 19 18 16 16 14 13
36 34 32 32 31 25 21 23 26 23 21 22 24 23 25 25 26 27 28 30 31 31 29 29 29 25 24 25 25 25 26 26 26 27 26 25 25 25 25 26 25 24 23 22 22 20 19 18 17 16 15 14 14 13
29 30 28 28 26 25 23 22 20 22 22 21 22 21 22 23 24 25 28 29 29 29 28 24 23 21 23 24 25 26 27 27 26 27 27 25 25 24 24 23 22 22 21 21 20 21 19 17 15 17 17 13 11 10
28 27 21 19 17 19 21 24 20 20 20 20 21 16 19 20 21 24 25 25 21 17 17 17 18 18 17 20 22 24 25 27 28 27 27 26 24 24 23 22 22 21 21 21 21 19 17 17 15 13 12 12 11 12
25 20 14 12 11 8 9 15 19 17 16 17 14 17 17 19 20 21 21 17 16 17 18 17 16 17 17 20 24 27 28 27 27 27 27 25 25 24 24 23 22 21 21 20 19 18 17 16 15 13 13 12 12 12
18 15 12 9 8 0 9 10 12 13 15 15 15 11 13 17 18 19 18 15 14 16 15 14 14 13 15 19 21 23 24 25 26 26 26 25 24 24 24 23 23 22 21 19 19 18 17 15 15 13 13 13 10 7
16 10 9 4 6 6 3 7 10 12 10 11 12 11 15 14 17 15 15 13 12 12 11 12 11 12 12 13 16 19 22 23 23 24 25 24 23 22 21 21 20 20 20 19 18 17 17 15 14 14 12 10 7 6
11 7 5 3 3 2 -0 -2 5 8 10 7 11 11 10 15 13 13 13 12 11 9 9 9 9 9 10 13 14 15 17 21 20 22 24 24 23 22 21 20 19 19 20 20 19 17 16 15 14 13 12 11 10 8
10 7 8 10 9 9 9 10 10 8 6 6 11 12 11 11 10 11 12 11 9 9 9 8 9 10 10 11 14 16 19 20 20 22 24 25 25 23 23 22 21 20 21 21 20 18 16 14 13 13 13 14 11 7
15 11 6 12 12 8 6 8 7 3 6 10 11 9 9 10 10 11 9 8 9 7 7 7 9 11 13 14 16 17 18 20 20 21 22 22 23 25 26 25 24 25 23 22 21 19 16 15 14 14 13 9 6 5
14 11 12 11 10 10 8 4 2 7 10 11 9 9 10 10 9 7 6 6 5 6 7 8 10 11 15 18 19 18 19 18 17 17 18 17 18 19 23 24 25 23 23 23 21 17 16 16 15 13 8 6 5 4
14 11 10 9 8 6 7 7 8 7 8 8 7 9 9 8 7 4 6 6 7 8 7 7 9 10 13 15 16 17 18 19 19 19 19 18 18 20 21 21 21 22 22 20 19 21 21 17 13 7 4 4 4 3
11 10 9 8 8 5 3 3 5 7 4 5 1 7 8 6 6 5 6 6 6 6 9 11 10 12 12 12 14 15 17 19 19 22 22 19 20 20 20 21 21 22 22 20 17 15 14 9 6 4 3 3 3 -0
11 12 11 10 8 2 2 4 4 6 4 5 6 -0 4 6 9 8 6 6 8 9 11 11 10 10 13 14 16 15 19 18 19 20 20 19 19 20 21 21 20 19 17 16 14 13 9 6 5 4 4 3 -1 -2
4 3 1 5 6 6 4 5 5 6 3 6 5 3 3 6 9 7 4 5 7 8 8 10 13 15 16 17 17 18 18 18 20 21 21 20 20 19 19 18 17 16 15 13 10 7 5 4 4 3 0 -2 -3 -4

GFSWCAN_sfc_30mbdewp_036.txt.gz
Dewpoint
35 35 36 36 37 36 35 35 36 37 38 38 37 35 34 35 39 41 41 45 41 41 42 42 41 40 40 39 36 39 37 38 38 34 33 30 30 32 31 31 32 31 31 31 32 30 26 33 34 31 33 35 34 35
36 36 38 37 37 36 34 33 33 34 35 34 34 34 34 35 38 39 39 42 43 41 43 46 46 45 43 41 40 40 38 38 38 36 35 34 33 34 32 28 34 31 32 32 31 29 34 35 36 36 36 35 35 35
36 35 37 37 37 36 35 34 33 32 32 32 32 33 36 35 35 37 38 40 41 44 42 43 41 46 47 46 45 39 40 42 41 44 40 36 35 36 32 32 33 34 35 34 34 34 35 34 35 35 35 35 35 35
36 37 39 37 37 36 35 34 34 33 33 33 32 33 33 34 35 36 38 40 40 39 39 39 45 44 47 47 48 47 45 45 44 43 40 39 34 37 35 34 34 34 36 35 35 35 35 34 35 35 34 33 31 30
35 38 37 38 37 36 35 35 34 34 34 33 32 33 32 35 35 37 39 40 41 39 38 40 44 44 45 47 47 48 46 44 42 40 39 35 39 36 37 36 35 35 34 33 32 34 34 33 35 35 34 32 30 29
35 38 38 37 37 37 36 35 35 34 34 33 34 34 36 38 36 37 39 44 46 45 41 37 44 42 44 45 45 45 45 44 43 41 40 40 42 38 36 33 36 36 36 36 35 35 35 35 35 35 33 31 29 28
36 39 38 36 37 37 36 36 36 34 34 33 36 37 37 39 37 35 38 42 44 43 41 38 38 42 43 43 43 43 45 44 43 41 40 42 41 40 38 33 35 35 36 36 35 35 35 35 34 34 32 30 27 25
37 39 38 36 37 37 37 36 35 33 34 35 36 39 41 42 39 38 41 44 45 42 44 37 36 38 42 41 39 43 42 42 42 42 42 41 40 39 37 38 38 37 35 35 35 35 35 35 34 32 30 28 26 24
38 39 38 37 38 37 37 36 33 35 35 35 39 41 41 39 37 41 42 45 45 44 38 37 33 32 42 41 41 41 42 38 42 39 40 39 38 36 37 38 38 38 36 35 36 36 35 35 34 32 31 29 26 24
38 39 38 38 38 38 37 35 35 34 34 36 38 38 37 39 41 42 43 42 42 43 42 38 37 34 39 40 39 38 39 37 34 37 38 36 36 39 40 39 38 37 36 36 35 34 35 34 33 32 31 30 27 24
38 39 38 38 38 37 37 34 35 34 36 35 33 33 36 39 41 41 37 37 38 36 39 38 38 35 39 37 37 37 36 35 32 32 33 34 32 34 35 35 36 38 36 36 35 36 36 34 33 31 29 28 25 23
39 38 38 38 38 37 35 36 35 34 34 35 36 37 37 37 38 35 33 35 35 33 37 37 38 37 38 38 36 35 33 33 29 32 31 29 31 33 32 35 36 36 35 35 35 35 35 34 32 30 28 26 23 21
39 38 38 38 38 36 37 35 34 33 37 36 35 32 32 34 31 30 28 31 32 32 35 37 36 37 37 37 34 33 31 30 32 30 28 30 31 30 31 34 35 35 35 34 34 34 33 32 31 29 26 24 21 19
39 38 38 38 37 37 36 34 34 35 33 31 29 28 27 29 30 30 30 31 32 33 34 36 36 36 36 35 34 31 31 31 28 26 27 28 27 26 32 33 34 34 33 33 33 33 32 31 29 26 25 22 21 19
38 37 37 35 37 37 34 33 35 37 31 27 28 25 26 30 31 32 32 32 33 34 35 34 33 33 33 33 31 30 29 27 28 28 28 27 25 27 32 33 33 33 32 31 32 31 30 28 26 25 24 22 20 18
37 37 32 33 38 35 33 33 35 36 31 28 28 27 29 28 29 28 29 31 35 36 35 34 32 31 31 32 30 29 28 26 26 30 30 26 27 31 32 32 32 31 31 31 30 29 27 26 24 23 21 19 18 17
36 34 33 37 36 33 34 31 30 29 27 26 26 28 28 27 27 28 30 30 34 33 33 33 30 31 28 28 27 29 28 28 27 26 27 26 28 30 31 31 30 30 30 30 29 27 25 23 21 20 19 17 17 16
34 34 36 38 33 30 29 29 26 26 24 26 24 26 26 27 27 27 28 31 33 31 32 31 30 28 27 27 27 25 25 26 26 26 27 28 28 28 29 30 30 30 29 28 27 24 23 23 21 19 18 18 17 16
34 35 36 33 32 27 24 25 26 22 23 24 25 25 25 25 26 27 27 28 30 33 31 30 28 28 28 25 24 25 25 26 25 25 26 26 26 27 28 29 28 28 28 27 25 24 23 22 19 18 17 16 15 14
37 34 33 32 30 25 20 23 26 23 21 22 24 23 23 23 25 25 25 27 29 30 28 28 28 26 24 24 24 24 25 26 26 25 26 27 26 26 27 27 27 26 25 25 23 21 20 19 18 18 17 16 14 14
31 31 29 28 26 24 22 22 21 22 22 21 21 22 20 22 22 24 26 29 29 28 27 22 20 19 19 19 20 24 25 25 25 26 26 27 26 25 25 25 25 24 24 23 22 21 19 18 17 18 19 15 14 12
29 27 20 20 18 20 22 23 20 21 19 19 20 16 18 19 20 23 24 24 25 20 18 17 17 17 17 18 19 21 23 24 27 28 29 29 26 25 24 24 24 24 24 23 23 21 18 18 18 15 14 14 13 14
25 20 15 14 11 10 10 15 17 18 15 16 14 16 17 18 19 18 21 19 17 17 17 17 16 15 15 16 19 23 25 25 24 26 27 27 27 26 25 24 25 24 23 23 22 19 19 18 17 15 15 14 14 14
19 16 13 10 9 2 9 11 13 14 14 15 14 12 12 15 16 18 18 17 15 16 16 14 12 12 12 13 15 17 20 21 22 23 27 26 26 25 25 24 23 24 23 21 20 19 19 17 17 15 14 14 13 9
17 13 9 6 8 6 4 8 10 12 10 11 12 7 14 12 16 15 16 15 13 14 13 12 10 10 11 11 11 13 17 19 18 18 19 26 26 24 24 23 22 22 21 21 20 18 18 17 15 15 14 12 10 9
12 9 6 5 5 2 0 -2 6 7 10 8 8 10 10 14 13 11 13 14 13 12 10 10 8 9 9 10 11 12 14 17 18 17 18 25 25 25 23 22 21 20 21 21 19 18 17 16 15 14 13 13 12 9
12 10 8 9 7 6 7 9 9 8 4 -1 10 12 12 10 10 11 12 12 12 10 10 9 8 8 9 10 11 12 14 17 18 18 20 21 23 26 26 23 22 21 21 20 20 20 19 16 15 14 14 14 11 10
16 11 7 11 11 8 6 7 6 1 2 9 11 11 5 6 8 11 13 10 10 8 7 7 7 8 9 10 12 14 16 17 19 20 21 22 23 25 27 27 26 24 25 25 24 24 19 17 16 15 14 12 12 12
14 11 12 10 9 9 7 3 1 6 9 11 9 6 7 10 10 10 8 7 5 6 8 9 10 8 9 11 13 16 18 18 16 14 16 18 19 21 24 25 26 26 25 26 25 22 20 18 17 15 12 11 10 10
15 12 10 9 8 6 7 7 7 7 8 8 7 9 9 9 8 5 6 6 7 8 8 7 7 7 9 11 12 13 16 19 19 17 16 18 20 22 24 24 24 24 25 24 23 23 23 19 16 11 9 8 7 8
11 10 9 9 8 5 3 2 4 6 4 5 2 8 9 7 7 5 5 6 6 6 7 10 10 9 10 11 11 11 12 16 19 19 20 21 22 22 22 23 23 23 23 23 22 18 17 14 13 12 10 6 6 3
11 11 11 9 8 2 1 3 3 6 4 6 6 0 4 7 9 9 5 5 7 9 11 11 9 10 12 13 14 15 16 17 17 18 20 21 21 21 22 23 23 23 21 19 17 15 14 13 12 10 7 6 3 1
4 4 2 4 5 6 3 4 5 6 4 6 5 3 3 6 9 8 3 4 7 8 9 9 10 12 15 17 18 19 18 18 19 22 22 22 22 22 21 20 19 18 17 16 16 15 14 13 10 8 4 2 2 2

GFSWCAN_sfc_30mbdewp_039.txt.gz
Dewpoint
36 36 36 38 38 37 36 35 34 33 33 33 33 34 34 36 37 38 39 44 40 37 42 43 41 38 39 38 36 40 38 39 38 34 33 29 26 27 28 29 31 31 31 30 31 29 27 33 34 32 34 35 34 37
36 35 36 38 37 37 36 35 34 33 33 33 32 32 35 34 34 36 38 41 41 38 44 46 45 45 43 42 41 40 39 38 38 36 36 34 30 31 28 26 33 30 30 36 35 32 33 35 36 36 36 35 36 36
36 36 36 39 37 37 36 36 35 34 33 33 33 32 33 33 35 36 37 40 40 42 42 42 40 46 46 46 45 40 40 41 40 43 39 34 33 35 29 28 31 33 34 33 34 34 34 35 36 36 35 34 35 36
36 36 37 40 36 37 37 36 35 35 34 34 33 33 34 33 34 36 36 40 39 39 38 39 45 44 46 47 47 46 44 44 44 44 40 38 33 36 33 34 33 34 35 33 34 34 34 35 35 35 34 32 32 32
36 36 36 39 35 37 38 37 36 36 35 35 33 35 36 35 34 36 36 40 40 38 37 40 44 45 45 47 47 48 46 44 42 40 38 36 38 37 36 36 33 34 33 30 29 35 34 34 35 35 33 31 31 31
36 35 36 39 37 36 36 37 36 36 35 34 34 36 38 38 35 36 39 43 43 42 38 37 44 43 44 45 45 45 45 43 41 39 39 40 41 38 34 32 33 34 34 35 33 35 35 35 35 34 32 31 30 29
36 36 37 39 38 37 37 37 37 36 34 35 36 37 38 38 37 35 37 41 43 42 40 38 38 42 43 44 43 44 45 43 42 40 38 40 42 40 38 33 33 33 36 36 37 36 35 35 35 33 30 29 28 26
36 36 38 39 38 37 38 37 37 35 36 36 37 41 42 41 39 37 42 44 45 41 43 37 37 38 43 41 39 43 42 42 42 41 42 41 40 40 36 38 38 37 37 37 36 36 36 35 33 31 28 28 27 26
36 37 39 39 38 38 38 37 36 36 35 37 39 41 39 38 37 41 43 43 45 43 39 37 34 34 42 40 42 42 43 37 42 39 40 39 38 36 36 37 37 38 37 37 36 36 35 34 33 30 29 28 25 24
37 37 39 38 38 38 38 37 36 36 34 37 39 39 37 40 40 42 43 41 42 43 43 37 39 34 39 39 40 39 39 37 33 37 38 36 36 38 39 40 40 38 37 37 36 35 36 35 34 31 30 28 26 23
36 37 40 38 38 38 38 36 36 34 36 35 35 34 36 40 42 42 37 37 39 36 39 39 38 36 40 37 37 38 36 36 32 33 33 34 33 35 35 34 36 37 39 37 37 37 37 36 34 31 30 27 25 22
36 38 39 38 38 38 36 37 35 34 34 35 35 37 38 38 38 35 34 36 35 34 38 37 38 38 39 40 37 37 35 34 30 33 31 30 33 33 32 33 35 36 37 36 35 35 37 35 33 32 29 26 24 20
37 39 38 38 38 37 37 35 34 34 36 36 35 33 35 35 32 30 28 32 32 34 35 36 36 38 38 39 35 35 32 31 33 30 29 31 34 28 31 34 35 35 36 35 35 36 36 34 32 30 27 24 20 18
37 39 38 38 38 37 36 33 34 35 35 32 30 28 30 29 30 31 31 32 34 34 35 35 36 36 37 36 35 32 32 31 29 27 28 31 29 27 30 34 35 34 34 34 34 34 33 32 30 28 25 21 19 18
37 39 38 37 37 37 33 33 34 37 33 30 30 27 27 32 32 32 32 32 35 35 35 36 35 34 34 34 33 32 29 27 28 30 34 31 28 28 32 33 34 34 33 33 33 33 32 30 28 25 23 21 19 18
38 38 35 35 38 35 33 33 36 36 31 30 29 28 30 29 31 31 30 32 35 35 36 35 34 32 32 34 30 29 28 28 32 32 31 29 28 30 31 33 33 33 32 32 32 32 30 28 26 24 22 20 19 18
38 35 32 36 36 32 34 33 32 28 28 26 26 29 29 28 29 29 29 29 31 33 32 33 30 31 31 30 29 31 30 31 29 29 29 29 29 29 30 31 32 31 31 31 31 29 28 26 24 21 20 19 18 17
36 35 35 37 34 31 31 32 28 27 24 28 26 27 27 27 27 27 28 30 31 31 31 30 30 29 29 29 31 29 28 28 28 27 27 27 27 28 30 30 31 31 31 30 29 26 25 24 22 21 20 20 18 16
37 36 36 35 32 28 26 27 28 23 24 25 26 26 26 26 27 26 27 27 29 31 30 30 28 28 29 28 27 27 25 25 26 26 26 27 27 27 28 29 30 30 30 28 26 25 25 24 21 20 19 18 17 16
39 37 34 33 30 27 21 24 28 24 22 24 24 24 24 24 24 25 25 26 27 29 28 26 27 26 24 24 25 25 24 25 25 25 26 27 27 27 28 29 29 28 28 28 26 24 21 20 20 19 19 17 16 16
34 32 31 29 27 26 24 24 23 23 23 22 22 22 21 22 22 24 26 29 28 26 26 27 23 21 21 20 20 21 23 23 24 25 25 26 28 28 27 27 28 27 27 26 24 22 21 20 19 19 20 17 16 14
30 29 23 23 22 22 23 24 23 22 21 21 20 19 20 20 21 22 24 24 24 25 23 20 19 19 18 17 17 17 19 21 24 25 26 27 28 28 28 27 27 27 26 26 25 23 21 20 20 20 17 16 14 15
26 22 20 19 14 14 14 19 19 19 18 18 17 18 18 19 21 21 20 22 22 20 19 19 18 17 15 15 15 17 20 22 22 22 23 24 26 28 28 28 27 28 27 27 26 22 21 20 20 17 17 16 16 16
21 20 17 16 15 9 12 15 16 17 17 16 16 12 15 18 18 20 19 21 21 19 18 18 15 13 13 15 14 13 14 17 18 19 20 20 23 25 29 27 26 27 27 25 22 21 20 19 19 19 17 16 16 14
24 20 16 11 11 8 8 11 12 14 12 13 13 9 14 16 17 17 17 19 19 19 19 16 14 13 13 13 12 12 14 15 16 17 17 18 20 24 25 27 27 25 24 23 21 21 21 19 18 18 17 16 13 12
19 17 11 11 8 7 5 3 8 10 12 10 10 13 14 16 13 10 15 19 19 19 18 15 14 13 12 12 11 12 13 14 14 15 16 17 20 22 23 24 24 24 24 23 23 22 22 21 18 18 16 16 15 12
18 16 10 9 8 7 6 8 9 10 7 1 10 12 14 9 8 12 16 16 17 17 16 15 13 12 12 12 12 12 13 14 15 16 17 18 19 20 21 21 24 26 27 26 25 24 23 22 20 18 18 16 15 13
18 12 7 10 10 10 6 7 6 3 4 9 13 9 7 5 3 14 16 16 17 13 12 12 11 11 11 12 12 13 13 14 16 18 19 19 20 21 22 24 28 29 27 27 27 26 24 23 22 21 18 16 14 14
15 13 13 9 10 9 7 4 3 8 10 13 11 9 9 11 14 14 12 11 10 10 10 11 13 13 12 12 13 13 15 16 16 14 14 14 15 20 25 26 27 28 27 27 27 26 25 24 23 21 17 16 15 15
16 15 12 10 7 6 10 9 10 9 10 10 10 11 11 12 13 11 10 9 9 10 12 11 10 10 10 11 11 12 13 15 17 17 15 15 16 23 24 24 26 27 26 26 26 26 27 25 22 18 15 14 14 14
14 13 12 11 10 8 5 4 6 7 7 8 6 10 11 10 10 10 8 9 10 9 8 10 12 12 11 11 12 12 11 13 18 18 19 19 19 20 22 24 25 26 26 25 24 24 21 17 15 14 12 12 13 11
14 14 11 10 9 4 4 6 7 8 7 7 9 5 7 9 9 13 8 7 8 10 12 13 11 11 12 13 14 14 16 16 17 17 17 17 19 22 23 24 25 25 24 23 20 18 17 16 16 14 14 14 12 10
7 7 6 7 6 6 5 6 7 7 6 7 7 5 6 7 9 11 5 7 10 11 11 11 11 12 13 14 16 19 21 21 21 21 21 22 22 23 23 24 24 23 20 19 18 18 17 16 15 15 13 12 9 7

GFSWCAN_sfc_30mbdewp_042.txt.gz
Dewpoint
38 38 36 36 36 40 37 37 36 35 34 34 33 33 33 35 35 37 39 42 39 37 40 43 42 39 37 38 34 40 38 39 38 34 33 31 26 28 27 34 32 31 30 29 28 27 24 34 35 33 35 36 35 38
38 38 37 36 36 40 38 37 36 36 35 35 34 34 33 34 34 36 38 41 41 38 41 46 46 45 44 42 41 40 39 38 38 35 36 35 33 30 30 26 32 30 31 33 32 30 33 35 35 36 35 35 36 36
38 37 36 36 38 40 38 36 37 36 36 35 34 34 33 34 34 35 36 40 39 40 43 44 42 46 46 46 46 40 41 41 40 42 39 37 33 34 30 29 31 33 34 33 34 35 35 35 36 35 34 33 34 36
38 37 36 36 36 40 36 37 37 37 36 35 35 34 33 33 33 34 36 40 38 39 37 41 45 44 47 47 47 46 43 45 44 43 39 37 36 38 34 35 34 35 35 34 33 34 35 35 35 35 33 32 32 33
38 38 36 35 36 40 36 36 37 37 36 36 35 34 34 37 34 35 37 40 39 38 36 40 43 45 46 47 47 47 45 43 42 40 38 35 38 37 37 37 35 35 34 33 30 35 35 35 35 35 32 31 32 32
38 37 36 36 38 40 38 37 37 37 37 35 36 38 39 39 39 35 37 42 43 41 38 37 44 43 44 46 46 46 46 44 43 40 38 39 40 39 35 33 33 33 34 34 34 36 36 35 34 33 31 31 31 30
38 37 36 36 38 39 38 37 38 37 37 36 37 38 40 39 38 35 36 41 43 42 39 37 39 43 44 44 44 44 45 43 42 39 38 38 40 40 37 33 33 35 36 36 37 36 36 35 34 31 30 29 28 27
38 37 36 37 39 39 37 38 38 37 36 36 38 41 42 39 39 37 43 43 44 41 42 37 36 39 43 41 40 44 42 42 40 40 40 40 40 40 35 38 39 38 39 37 37 36 36 34 31 29 28 28 27 26
38 37 37 37 40 36 38 38 38 37 37 36 39 41 38 38 37 41 43 43 45 42 38 38 33 34 42 41 42 42 43 37 41 38 39 39 38 35 36 37 39 38 38 37 36 36 35 33 30 28 29 28 25 23
38 37 37 37 40 38 39 38 37 37 35 38 39 40 37 40 41 42 42 41 41 42 42 37 40 35 39 38 39 39 40 37 33 36 38 36 36 38 38 38 37 40 38 37 36 35 35 33 31 30 29 27 24 22
37 36 37 39 39 38 38 37 37 35 37 36 35 36 37 40 42 41 37 37 38 36 40 39 37 36 40 36 37 38 36 36 31 33 33 34 34 36 33 32 35 36 37 38 37 37 37 35 32 31 29 26 23 21
37 36 37 40 38 37 38 37 35 35 34 34 35 38 38 38 38 35 34 35 35 34 38 37 38 38 39 40 37 37 35 34 30 33 32 30 34 31 29 32 35 36 36 37 37 36 37 36 34 31 27 24 22 19
37 37 38 40 38 38 38 37 34 34 36 36 36 34 35 35 31 30 29 32 33 34 35 35 36 38 38 39 36 34 32 31 33 31 29 31 29 28 28 33 34 35 35 35 35 36 36 35 33 30 26 23 19 18
37 37 38 39 38 37 37 34 34 36 36 32 30 28 30 29 31 32 32 33 34 35 35 36 36 36 37 36 36 32 33 31 28 27 28 31 28 29 31 33 34 34 34 34 34 35 34 32 30 28 24 20 19 18
37 36 38 39 37 38 35 33 34 37 34 30 30 27 28 32 33 32 32 33 34 35 36 36 35 34 34 34 33 32 29 26 27 29 33 30 29 29 30 31 33 33 33 33 34 33 32 30 27 24 21 19 18 18
37 36 37 37 38 35 33 34 35 35 31 29 28 27 30 30 30 31 30 32 34 34 36 35 33 32 32 32 30 28 26 26 32 28 30 29 29 29 29 30 31 32 32 32 33 33 30 28 25 22 20 19 18 18
37 36 34 35 36 32 34 34 33 29 27 25 25 28 30 29 30 30 30 29 31 32 32 33 31 30 32 29 28 30 28 29 27 28 29 27 27 27 28 30 31 31 31 31 31 30 29 27 23 21 19 19 18 17
36 36 36 37 34 31 32 32 28 25 23 25 24 26 27 27 27 27 28 29 31 31 31 30 30 29 28 29 29 28 27 27 27 27 26 27 27 27 27 28 29 30 30 29 28 27 25 23 22 21 20 19 18 17
37 38 37 36 32 29 27 28 28 23 24 24 25 25 26 26 27 27 26 27 28 31 30 30 27 28 28 29 27 27 26 25 25 25 26 27 27 27 27 28 29 29 29 28 27 25 25 24 22 21 19 18 16 16
39 39 35 34 30 26 20 25 27 25 23 25 25 24 23 23 24 24 25 26 25 28 26 25 27 27 26 26 25 25 25 24 24 24 24 26 27 27 28 28 27 28 28 28 27 25 22 21 21 20 19 18 17 16
36 35 31 30 27 27 25 25 23 25 24 23 23 23 21 21 21 22 24 28 26 25 23 26 25 23 22 21 21 21 21 21 21 22 22 23 25 27 27 29 28 27 27 27 25 23 23 21 20 20 22 19 17 16
33 29 24 25 23 23 24 24 24 24 22 22 21 20 19 19 20 21 25 23 23 24 25 22 21 20 19 17 17 17 17 18 19 22 24 23 23 24 26 27 28 27 27 26 26 24 23 21 20 21 19 18 16 16
29 24 22 21 15 15 15 21 21 21 19 19 18 17 18 18 20 22 19 21 22 23 20 19 19 18 14 15 15 15 17 18 20 20 21 21 21 22 23 25 27 27 27 28 28 26 23 21 22 19 18 16 18 18
26 27 25 23 21 15 14 17 18 18 18 15 16 13 16 18 19 19 17 21 22 20 19 18 16 13 14 14 14 14 14 15 16 17 18 19 19 19 20 21 25 28 28 28 27 24 22 22 21 19 18 18 18 16
24 22 22 18 15 9 9 12 14 15 12 15 13 11 13 16 14 16 15 18 20 18 19 18 16 14 11 12 13 13 14 14 14 14 16 17 17 17 18 20 23 26 27 27 25 22 22 21 20 19 18 18 18 18
20 20 18 16 9 8 8 8 10 11 12 10 12 13 14 16 12 7 13 17 19 19 19 18 15 13 14 14 13 13 13 14 14 13 14 15 16 17 18 18 17 19 27 28 26 24 24 23 23 22 21 20 22 19
19 18 15 10 10 10 7 9 11 10 8 5 9 11 12 5 4 8 16 17 19 19 20 19 16 13 11 12 13 13 13 13 13 13 14 15 16 16 17 17 16 18 24 27 27 26 24 24 23 23 22 22 22 19
20 14 9 8 9 11 7 6 5 3 5 11 12 9 6 3 -4 12 16 18 17 15 14 13 13 12 11 11 12 13 12 13 13 14 15 16 17 18 18 19 20 21 22 26 27 27 26 24 24 23 22 22 20 20
16 15 13 11 11 8 7 4 3 9 11 13 8 7 9 12 14 13 13 12 12 11 10 9 10 12 12 12 12 12 12 12 12 11 12 12 12 14 16 21 23 24 25 27 29 28 26 25 24 24 23 21 20 19
17 16 15 11 9 7 9 11 11 9 10 11 11 11 11 11 12 13 12 9 9 8 8 10 11 10 9 9 10 10 11 13 14 14 12 12 13 16 18 18 20 23 26 27 26 28 28 27 26 23 19 19 18 18
17 16 15 13 13 10 7 5 7 8 8 9 8 9 10 9 9 11 10 10 10 10 9 8 8 10 10 10 10 11 11 11 12 14 16 17 17 16 17 18 20 23 26 26 26 25 26 23 19 18 17 17 18 15
15 15 13 11 10 5 5 6 8 8 8 7 8 6 6 8 7 10 8 7 7 8 9 11 11 11 11 12 12 13 16 16 16 17 17 17 16 16 17 18 22 24 25 25 25 22 19 18 17 17 17 16 14 14
9 10 10 9 6 6 5 6 7 7 6 7 7 6 6 7 6 9 7 7 9 10 11 11 10 11 11 12 14 15 17 18 20 23 24 24 24 22 22 23 24 24 23 20 19 18 18 17 16 16 15 15 14 14

GFSWCAN_sfc_30mbdewp_045.txt.gz
Dewpoint
40 39 39 37 37 37 38 40 37 36 36 35 34 34 34 34 35 36 36 42 38 37 38 42 42 39 37 36 32 40 37 38 37 34 31 30 29 28 29 35 31 30 29 29 31 27 23 30 34 33 34 36 35 39
41 40 39 37 36 37 39 39 38 37 37 35 35 32 34 32 34 35 36 40 41 37 39 44 45 46 44 42 41 39 38 37 37 35 35 34 31 31 30 29 34 30 31 31 29 27 29 35 35 36 35 35 35 37
41 40 40 38 36 36 38 39 38 38 37 34 33 33 33 33 34 34 35 38 39 38 41 44 43 46 46 46 46 38 41 40 39 42 38 37 34 34 30 29 32 34 35 34 34 35 36 35 35 34 33 33 34 39
41 40 39 38 36 36 37 39 35 37 38 35 34 35 33 33 35 34 34 38 38 37 36 41 45 44 47 47 46 45 42 44 43 42 38 35 34 38 35 35 34 34 34 33 33 34 35 35 35 34 32 32 33 36
41 41 39 39 37 36 39 40 35 37 37 36 37 35 38 38 37 34 35 37 39 35 35 38 42 45 46 47 46 45 43 43 42 40 38 36 37 36 36 36 34 35 34 33 33 34 35 35 35 34 32 32 32 33
41 41 40 38 36 36 39 39 35 37 36 37 36 39 39 40 39 34 36 43 42 40 37 36 44 43 44 46 46 46 46 44 43 40 38 38 39 37 36 32 35 35 35 35 34 36 36 35 34 32 31 31 32 31
41 40 40 37 36 38 40 37 36 36 37 36 37 39 41 40 39 34 36 41 43 42 38 37 37 43 44 44 44 44 45 43 41 39 38 37 38 39 35 32 33 34 34 37 37 36 35 35 34 31 30 30 29 27
40 40 39 37 37 38 39 36 37 37 37 37 38 40 38 35 37 36 41 42 43 40 41 36 35 38 43 41 40 44 42 42 41 39 40 38 39 37 36 37 38 39 39 38 37 37 36 34 30 29 28 26 25 24
41 39 38 37 37 39 38 37 37 37 37 36 38 41 39 39 37 40 44 44 44 41 37 38 32 32 43 40 42 42 42 37 40 37 38 39 37 35 36 38 37 38 38 37 36 34 33 32 29 28 28 27 25 23
41 39 38 37 37 40 38 37 37 37 36 39 39 39 36 40 42 42 41 39 40 41 40 37 39 35 40 38 38 39 40 37 32 36 38 35 35 39 31 31 33 35 36 37 36 35 34 32 29 28 29 27 24 22
40 39 38 37 39 39 38 38 37 35 36 35 34 36 37 41 41 39 37 37 38 36 40 39 37 35 40 35 36 38 36 36 31 33 32 32 33 31 29 29 34 35 36 36 37 37 37 35 31 29 29 25 23 21
40 38 38 38 40 39 38 38 36 34 33 33 35 37 38 39 38 35 34 35 35 34 38 37 38 38 39 40 37 37 34 34 30 34 32 29 32 29 29 30 34 35 35 36 37 37 37 36 32 31 27 24 22 18
39 39 38 38 40 38 38 37 34 35 36 37 36 34 35 35 31 30 29 32 33 35 35 36 36 38 38 39 36 34 32 31 33 30 30 32 28 29 29 32 33 34 34 35 35 36 37 37 36 34 26 22 18 17
39 39 38 38 39 38 38 35 34 36 35 33 31 29 29 29 30 31 32 32 33 35 35 36 35 36 37 36 35 32 33 31 27 27 28 30 29 29 29 30 31 32 32 33 34 35 35 36 35 27 23 19 18 17
38 40 38 39 38 38 37 33 35 37 32 29 28 25 27 31 32 32 32 33 34 35 36 35 35 34 33 33 33 31 28 25 26 28 29 29 28 28 28 29 30 31 32 32 33 33 32 30 27 23 20 19 19 18
39 37 38 38 38 35 33 35 35 35 30 28 27 27 30 30 30 31 31 32 32 34 35 35 33 32 30 31 30 27 26 25 29 26 28 28 27 27 27 28 30 31 31 31 32 32 31 28 25 22 20 19 18 18
37 37 38 36 36 32 34 34 32 28 25 24 24 29 29 29 30 30 30 30 32 32 32 33 30 29 32 29 28 29 27 29 27 26 26 26 26 26 27 27 28 29 30 30 30 30 29 26 22 20 19 18 18 18
36 38 36 35 35 32 32 31 27 25 23 24 23 25 27 28 28 28 28 29 30 31 31 31 31 29 28 28 29 28 27 27 26 26 25 25 26 27 27 28 28 28 29 29 27 26 25 23 21 20 19 19 18 17
38 38 38 37 32 29 26 26 27 23 23 24 25 26 27 27 27 27 27 27 28 31 29 29 27 27 27 29 28 27 25 25 24 24 25 25 26 26 26 27 28 28 27 28 28 26 25 23 22 20 19 18 17 17
39 39 38 34 31 24 20 23 27 25 22 24 25 24 24 24 25 25 25 25 25 25 25 25 26 27 27 26 25 25 24 24 23 22 21 24 23 24 25 27 28 28 27 27 27 26 24 23 22 20 19 18 17 17
37 36 34 30 26 26 24 24 23 24 24 22 23 23 22 22 22 21 22 24 23 22 21 23 25 24 21 21 21 21 20 20 19 20 19 19 22 24 24 25 27 27 27 27 26 25 25 23 22 21 21 19 18 18
34 34 28 26 21 22 23 24 23 24 22 22 21 21 19 18 19 20 23 22 21 21 23 24 22 21 20 18 18 18 17 16 17 18 21 23 21 21 21 22 23 25 25 26 26 26 26 24 22 21 21 19 19 17
32 28 22 20 14 16 13 21 19 21 18 18 18 16 17 18 20 22 19 20 20 22 21 20 19 18 16 15 15 15 15 15 15 17 18 18 18 19 20 21 21 22 23 24 26 27 28 26 23 22 20 19 17 18
30 29 25 23 21 19 15 15 19 19 18 16 15 12 17 18 19 18 17 18 20 20 19 18 15 13 13 13 13 13 14 16 14 14 15 15 15 16 18 18 18 19 21 24 26 27 27 25 23 22 20 18 19 20
25 23 22 18 16 14 7 12 14 16 12 15 13 11 13 16 13 14 14 14 19 19 19 18 16 12 8 7 11 12 14 14 13 12 13 15 15 15 15 15 16 18 22 21 25 26 26 26 25 21 19 19 19 18
20 20 19 17 12 8 6 8 11 12 13 14 14 13 14 14 9 1 11 14 18 19 18 18 16 14 13 13 10 10 12 13 13 13 12 13 13 14 13 15 15 15 17 18 23 25 25 25 25 23 20 21 21 19
20 18 18 16 12 11 10 10 13 12 11 10 10 11 12 2 -1 5 13 17 18 18 18 18 16 14 12 11 12 14 13 12 12 12 12 13 14 14 14 14 13 14 16 17 19 23 24 24 24 24 23 24 24 22
20 14 15 11 8 10 5 6 6 5 6 11 10 6 3 1 -5 6 13 17 17 15 15 15 15 15 14 12 11 11 11 11 11 11 12 13 14 14 15 16 17 18 19 20 21 21 22 25 25 24 23 23 23 22
17 14 10 8 10 8 8 4 2 8 12 13 6 2 6 12 13 12 13 13 12 12 12 11 10 8 9 10 10 11 10 10 11 11 10 10 10 11 12 14 17 19 21 22 23 25 26 26 26 25 24 24 22 21
16 14 12 10 12 14 13 11 11 10 11 12 12 11 11 10 11 12 12 10 10 9 9 8 7 9 9 9 8 9 8 9 11 11 10 10 11 11 12 14 16 16 17 19 21 24 26 30 28 27 23 21 19 19
17 16 14 14 14 11 8 6 7 9 8 8 7 8 8 9 8 8 10 9 8 7 8 8 8 7 8 8 8 9 10 10 10 11 12 13 14 15 15 16 15 16 16 18 21 24 25 26 24 20 19 18 19 19
15 16 16 15 11 6 6 6 7 7 8 7 7 5 6 7 6 7 8 7 8 8 10 9 7 9 9 9 10 10 14 14 14 15 15 16 16 17 17 16 16 16 17 19 22 25 24 20 19 19 18 18 18 17
11 10 10 10 8 7 5 6 6 6 6 5 6 6 5 6 5 7 6 6 7 7 7 9 10 10 10 10 11 12 14 14 15 18 20 20 20 23 19 18 18 19 21 22 22 21 20 19 18 18 18 16 16 16

GFSWCAN_sfc_30mbdewp_048.txt.gz
Dewpoint
40 40 40 39 39 38 38 39 40 37 38 37 34 34 33 33 33 35 36 41 37 35 38 40 44 39 36 36 31 39 36 37 37 33 31 29 30 28 29 32 29 28 26 28 29 26 22 29 34 33 34 36 35 38
41 41 40 40 38 38 38 39 40 36 39 37 35 36 34 34 33 33 34 39 42 36 37 41 42 44 44 42 40 39 36 37 37 34 35 33 31 32 30 29 34 28 30 30 31 27 29 32 35 36 35 35 35 38
41 40 40 40 40 38 38 37 41 35 36 37 37 35 37 35 32 33 34 37 39 36 39 42 42 46 47 46 46 37 40 39 39 39 37 35 32 34 30 29 32 33 34 32 32 33 33 33 35 35 34 33 34 38
41 41 40 40 39 39 37 37 40 36 37 38 36 36 36 33 33 34 33 38 37 36 33 41 46 45 46 47 46 44 42 44 42 42 38 36 34 38 35 35 34 34 35 34 34 34 35 35 35 35 33 32 33 39
42 41 40 40 39 39 37 38 40 35 37 38 36 37 37 39 40 36 34 36 37 34 34 38 41 44 45 46 45 44 43 42 42 40 38 36 37 35 35 35 32 34 33 33 33 34 34 35 35 35 32 32 33 37
42 41 41 40 39 39 37 38 39 35 38 36 37 38 39 40 40 35 34 41 39 40 36 35 43 43 45 46 46 45 44 44 42 41 38 39 39 38 34 33 33 36 35 36 35 36 36 36 35 33 32 32 33 33
41 40 39 40 40 38 38 40 35 38 36 36 37 39 41 40 39 33 35 40 43 41 37 36 36 43 44 44 44 44 46 43 42 40 38 38 38 37 35 31 33 38 39 38 38 36 35 35 34 32 31 31 31 29
42 39 39 40 38 38 38 40 36 36 37 37 37 38 36 36 36 33 39 40 42 40 40 35 35 37 43 41 40 44 42 42 41 39 40 37 38 37 34 37 36 36 37 37 36 36 36 34 31 30 29 27 26 25
40 39 39 38 39 38 38 38 37 37 37 37 38 40 37 39 36 39 44 44 44 41 37 37 32 31 43 40 42 42 42 37 41 36 38 39 37 34 31 28 30 33 34 35 37 34 32 32 30 28 27 26 25 23
39 39 39 38 38 38 40 38 37 37 35 39 39 38 36 39 42 42 41 39 39 40 39 37 39 35 40 38 38 39 40 37 33 35 38 35 35 34 29 30 30 33 35 36 36 35 34 32 30 28 27 27 25 23
40 39 38 39 38 39 39 38 37 35 36 35 35 36 38 41 40 39 36 36 36 35 39 39 38 35 40 34 35 38 36 36 31 33 32 32 32 30 29 30 32 33 35 35 36 36 37 36 33 29 29 27 25 22
38 38 39 38 38 40 38 38 36 34 33 33 34 37 38 38 37 35 34 35 35 33 38 37 37 38 38 40 37 36 34 34 29 35 31 30 32 29 29 29 31 32 33 34 36 36 37 37 35 30 29 26 23 20
38 39 39 37 39 40 38 38 34 36 36 37 36 34 35 35 31 30 29 31 32 35 36 36 35 38 39 39 36 34 32 31 33 31 29 32 29 28 28 29 29 31 32 33 34 36 37 36 32 30 27 25 19 18
39 39 40 39 40 41 38 37 33 36 36 33 31 30 30 29 30 32 30 31 33 34 35 36 35 36 37 36 35 31 32 31 27 27 28 29 28 27 28 28 29 30 31 32 33 34 34 39 38 36 31 26 23 18
39 40 40 39 40 39 37 33 34 36 32 28 28 25 28 30 32 32 32 33 34 35 36 35 35 34 33 32 33 32 28 25 25 26 28 27 27 27 27 27 28 29 30 31 31 32 32 31 32 28 24 21 19 17
39 40 38 40 38 36 33 35 35 34 29 28 27 26 29 30 30 31 31 32 32 34 35 35 33 31 30 31 29 27 25 24 27 27 27 27 26 26 27 27 28 28 29 30 30 30 30 29 26 24 21 20 19 18
39 36 39 38 37 34 35 33 32 28 24 24 23 29 29 29 30 30 31 31 32 33 32 33 31 29 32 30 28 29 26 29 27 26 26 25 25 26 26 27 27 28 28 29 29 27 27 27 23 21 20 19 19 18
37 39 39 37 36 32 31 31 27 25 23 23 22 24 27 28 29 29 29 30 31 32 31 31 31 29 28 26 27 28 28 28 27 26 26 25 25 26 26 25 27 28 28 27 27 28 26 24 23 22 20 20 19 18
38 39 39 38 33 29 26 25 27 22 23 25 25 26 27 27 28 27 28 28 30 32 30 29 28 27 27 29 29 28 26 26 24 24 24 24 26 24 23 25 26 27 27 27 27 27 27 25 23 22 20 19 18 17
39 40 39 36 31 23 19 22 27 24 22 23 25 25 25 25 25 25 25 26 26 26 25 25 26 28 28 28 26 27 25 24 23 20 18 21 23 21 23 23 25 26 26 26 27 28 25 24 23 22 20 19 18 17
37 36 35 28 26 26 23 23 22 24 24 22 24 23 22 23 23 22 22 25 24 22 21 22 24 25 23 24 24 23 22 21 19 18 16 16 18 22 22 22 21 22 23 24 25 26 26 26 25 23 21 21 19 18
35 34 30 26 20 21 21 23 23 23 22 21 21 21 19 18 18 20 22 23 22 21 21 23 23 23 21 21 19 19 18 18 17 17 19 20 20 19 19 18 19 20 21 22 23 24 25 26 27 24 22 21 21 18
32 28 25 20 14 14 12 21 18 20 17 17 18 16 16 18 20 22 19 20 20 21 22 22 20 18 20 16 15 14 15 14 14 15 16 16 16 16 16 17 18 17 16 17 19 21 23 25 28 28 23 22 19 18
31 29 25 19 16 18 15 14 19 19 18 17 15 12 15 17 19 17 14 17 20 19 20 20 18 17 13 13 11 10 12 15 15 14 14 13 12 13 15 16 16 16 17 18 19 22 23 24 26 27 23 21 19 19
26 23 22 19 16 16 8 10 14 15 12 14 14 12 14 16 15 14 13 14 17 19 19 17 16 13 11 5 9 11 14 14 12 12 12 13 13 13 13 13 14 14 16 17 19 17 18 23 24 26 24 21 20 21
21 21 20 18 15 14 10 4 10 11 14 13 15 13 13 13 9 -1 7 15 17 18 19 18 18 16 14 11 9 9 11 13 13 12 12 13 13 12 11 12 12 13 15 16 16 17 18 19 23 24 24 23 25 24
20 19 19 18 13 11 10 11 13 13 11 13 12 11 11 3 -2 2 11 14 17 18 18 19 18 17 12 10 13 13 13 12 13 11 11 12 12 13 13 12 12 13 14 15 15 16 17 18 20 23 23 23 24 25
21 17 16 15 9 10 3 7 7 6 7 12 11 7 3 -1 -5 4 11 16 16 15 15 14 16 16 14 13 12 12 10 9 9 9 9 10 11 12 13 14 14 16 17 18 18 18 19 19 19 20 23 23 23 25
17 13 12 10 8 7 5 3 8 9 11 11 4 1 4 10 12 12 13 14 12 14 15 15 14 9 9 8 8 9 10 10 10 11 11 11 10 10 10 11 13 13 15 17 19 20 20 22 22 22 23 24 24 24
16 12 10 8 8 7 8 11 10 11 11 13 12 11 10 10 11 10 11 10 12 13 13 11 9 9 9 8 8 8 7 7 9 10 11 11 10 10 11 11 12 13 14 14 15 15 17 18 23 26 27 24 22 21
15 14 11 10 10 11 9 7 8 9 8 8 7 8 8 8 8 9 10 11 10 8 7 8 7 6 8 7 7 8 10 9 8 9 9 11 12 13 13 14 15 16 15 15 14 15 16 18 21 24 22 20 19 19
15 14 14 14 12 7 7 8 9 8 7 7 6 6 6 7 6 7 7 8 8 8 10 10 8 8 6 6 7 8 13 13 13 13 13 13 14 14 15 15 18 18 16 15 14 15 17 19 21 20 20 19 19 19
11 10 9 8 7 8 7 9 7 6 6 6 6 6 6 6 6 7 6 5 7 7 7 8 8 7 9 9 9 10 13 12 12 16 17 18 19 22 24 24 20 17 16 16 17 18 20 20 20 19 19 19 18 18

GFSWCAN_sfc_30mbdewp_051.txt.gz
Dewpoint
42 41 39 40 40 39 38 39 39 41 37 38 38 34 34 33 33 34 34 41 38 35 37 39 41 41 36 36 32 39 35 37 36 33 30 29 29 29 30 30 30 29 27 27 27 26 22 29 35 33 34 36 36 36
43 41 39 40 40 39 38 39 38 40 36 37 37 37 35 36 32 34 32 39 39 36 36 40 40 42 43 43 39 39 36 36 37 34 34 33 31 31 30 30 33 28 27 27 28 27 28 30 33 36 36 35 34 36
43 41 41 40 40 40 39 39 37 38 39 36 36 38 34 36 36 32 32 35 37 36 37 39 40 45 45 46 46 37 40 39 38 39 36 34 31 33 30 29 33 32 33 31 33 33 33 33 34 35 34 33 33 35
42 42 41 40 40 39 39 39 37 39 40 36 35 37 35 37 37 34 32 35 37 35 31 38 46 45 46 47 45 43 42 43 42 41 37 36 34 36 33 34 34 34 34 33 34 35 35 35 36 35 34 33 32 38
42 42 42 40 40 39 39 38 37 39 37 35 36 36 38 38 39 39 36 35 38 33 31 37 42 44 45 46 45 44 42 42 41 39 38 36 37 35 35 35 33 34 33 33 33 35 34 34 36 35 34 32 32 37
42 43 42 42 40 39 39 38 38 40 34 37 37 36 38 39 40 36 31 38 39 38 32 33 42 43 45 46 46 44 43 43 42 40 38 39 39 36 35 34 33 36 37 37 35 36 36 36 36 34 33 32 33 35
43 43 42 40 39 40 38 38 40 36 36 37 37 38 39 39 37 30 35 40 40 39 34 35 36 43 44 44 44 44 46 44 42 40 39 38 38 38 36 32 36 34 33 36 37 37 36 35 35 33 32 32 33 32
44 42 40 38 39 39 38 38 40 35 36 37 37 39 38 40 36 33 35 40 43 38 39 35 35 37 43 41 40 43 42 42 42 39 40 38 38 38 33 33 29 31 33 36 35 36 34 34 32 31 30 29 29 28
44 42 40 40 39 38 38 39 39 35 37 36 39 38 37 37 34 37 45 43 43 39 36 37 32 31 43 41 41 42 42 37 41 37 37 39 36 33 32 28 30 31 32 34 35 36 34 32 31 29 28 27 27 25
43 40 40 39 38 38 39 40 38 38 36 39 39 37 35 39 43 43 41 38 38 39 38 36 38 34 39 38 39 39 40 36 32 35 38 35 34 34 33 29 30 31 33 34 33 33 35 34 32 30 28 27 26 25
41 39 39 39 38 39 41 39 38 36 36 35 36 35 39 41 40 39 35 35 36 35 38 36 38 35 39 34 34 38 36 35 31 33 32 31 31 32 29 28 29 31 32 33 34 35 35 36 36 34 30 28 26 24
40 39 38 37 35 39 42 38 37 33 33 33 34 37 38 38 35 33 32 35 34 30 37 37 37 37 38 40 36 36 34 34 30 35 31 29 32 28 28 28 29 30 31 32 33 35 36 37 37 36 31 29 26 23
40 37 38 37 37 39 41 38 36 35 37 37 36 34 35 35 30 30 28 30 32 35 35 36 36 37 38 38 36 35 32 31 34 31 28 32 28 27 27 28 28 30 32 32 33 34 35 35 33 31 29 26 22 21
39 39 39 39 39 40 41 38 34 36 36 33 31 29 30 29 30 31 30 30 33 34 35 36 36 36 37 35 35 32 32 31 28 26 27 28 27 27 27 28 28 29 30 31 32 33 34 37 38 34 29 27 26 20
39 39 40 40 40 40 37 34 35 36 32 28 28 25 28 30 32 32 33 33 34 36 35 35 35 34 33 32 33 32 29 26 24 25 29 27 26 26 27 27 27 28 28 29 30 29 30 31 32 32 32 30 28 23
40 40 39 39 39 37 35 35 35 33 28 28 27 25 29 30 30 31 32 32 33 34 35 35 33 30 31 31 29 27 24 23 25 27 28 26 26 26 26 27 26 28 28 28 28 29 28 28 26 25 28 26 23 19
39 36 39 39 37 37 36 33 32 28 25 24 23 26 29 27 29 30 32 32 32 33 32 33 30 29 32 29 28 29 26 27 27 27 26 25 24 25 26 25 25 27 28 27 27 27 28 26 25 22 22 20 22 24
37 39 39 38 37 33 32 31 28 26 23 23 21 23 27 28 29 29 30 31 33 32 32 31 31 29 28 25 25 28 29 28 28 27 26 25 24 25 24 23 25 26 27 26 26 27 27 27 25 23 22 20 20 19
38 40 39 39 35 31 27 26 27 21 22 25 26 26 27 27 27 28 28 29 32 32 30 29 28 27 26 28 28 27 27 27 26 25 24 24 24 24 22 23 24 24 23 24 25 26 27 26 25 24 22 20 19 19
39 39 39 39 32 27 24 24 27 24 22 24 26 25 25 25 25 26 26 27 28 28 27 26 26 28 27 28 27 28 26 25 23 21 19 18 23 19 21 22 22 21 20 23 24 25 26 26 26 26 23 21 19 18
37 36 34 30 28 25 23 23 22 23 24 22 24 24 22 23 23 23 24 26 25 24 22 23 24 25 24 25 25 25 24 23 21 18 14 13 15 19 21 21 19 18 20 20 20 21 23 23 25 26 26 24 22 20
35 35 31 27 20 21 21 23 22 23 22 21 22 22 19 18 19 20 23 23 23 22 22 21 21 23 23 24 22 21 21 20 19 18 19 19 17 16 16 16 16 15 15 16 16 17 19 21 22 24 27 26 24 21
33 29 24 19 15 13 12 21 18 20 16 17 18 16 15 17 19 22 20 20 20 22 22 22 21 19 22 19 19 18 17 15 12 13 14 16 16 16 15 15 15 15 14 14 16 17 17 20 22 25 26 27 24 21
32 28 25 19 14 16 14 13 18 18 18 17 15 11 14 16 19 17 14 14 18 20 20 20 19 18 15 14 13 13 13 14 13 13 14 14 12 11 12 13 15 15 16 16 16 17 18 21 20 21 24 25 24 21
26 23 23 20 16 17 13 9 13 14 12 14 13 12 14 15 14 13 12 13 17 18 19 19 18 18 19 16 12 10 12 14 12 11 12 12 12 12 12 12 13 13 14 14 14 15 16 17 19 20 21 23 24 23
21 20 20 18 15 16 14 4 8 10 12 12 13 12 13 12 7 1 4 11 14 16 17 18 20 18 15 11 8 5 8 14 14 12 11 12 12 11 10 11 11 12 14 15 15 14 14 16 16 16 18 20 23 25
21 19 19 18 15 12 9 11 12 12 10 10 14 13 10 0 -3 0 8 13 15 17 17 19 19 20 20 18 13 12 11 12 12 11 11 11 12 13 12 11 11 12 13 14 14 14 14 15 15 16 17 18 21 23
22 18 17 16 11 9 6 8 7 6 8 13 11 5 1 -1 -6 3 8 14 15 15 14 15 17 18 17 13 12 13 12 11 10 10 10 10 10 11 11 12 13 15 16 16 16 16 16 16 16 17 17 18 19 21
20 15 14 12 8 8 5 2 1 7 11 12 6 1 2 9 11 10 12 14 12 14 16 17 16 11 11 9 9 9 9 9 10 8 8 10 10 10 9 10 10 11 11 12 14 17 19 20 20 19 19 19 20 22
17 12 13 10 11 10 7 7 7 11 12 12 11 11 10 10 11 10 10 10 11 12 14 14 13 13 14 13 10 8 7 8 10 10 11 11 10 9 9 10 11 12 12 12 14 14 16 17 17 16 17 18 22 22
14 11 10 10 10 8 8 7 8 9 7 7 6 8 7 7 7 8 9 10 10 9 9 8 8 7 9 8 7 7 8 7 7 8 8 9 9 10 11 12 13 13 13 15 14 13 13 13 13 14 16 19 21 22
13 12 11 11 11 6 6 7 7 6 6 6 6 5 6 6 7 8 7 7 8 9 10 11 9 9 7 7 6 6 12 11 10 10 11 12 12 13 13 14 15 15 15 16 15 14 13 12 13 14 17 19 20 20
11 10 8 8 8 9 7 9 10 8 5 5 5 5 5 6 7 8 6 6 8 8 8 8 9 7 8 8 8 9 12 10 10 15 17 17 17 18 19 20 20 20 18 18 15 14 14 14 15 16 18 19 20 19

GFSWCAN_sfc_30mbdewp_054.txt.gz
Dewpoint
43 42 40 42 39 39 39 39 39 39 41 39 39 38 35 34 35 33 32 40 38 35 36 38 39 39 37 36 32 36 34 36 35 31 28 29 29 31 30 30 30 28 27 27 27 24 21 30 34 34 34 36 36 35
44 42 40 41 40 41 40 39 39 39 39 41 37 36 38 35 36 36 31 37 37 35 36 39 39 40 43 43 40 39 33 35 35 33 33 32 31 32 30 29 32 28 27 25 26 23 27 31 33 35 36 35 34 35
44 42 42 41 41 41 40 39 39 39 38 41 39 36 36 36 35 36 32 32 35 33 34 37 36 39 42 40 43 36 39 39 38 39 36 33 30 32 29 29 32 32 31 31 32 33 33 34 35 35 35 35 34 34
44 43 43 42 41 41 40 40 39 38 38 41 37 35 37 36 38 39 31 34 33 34 29 35 43 45 47 46 46 43 41 42 41 40 36 35 34 34 32 31 32 33 33 31 32 33 35 35 36 36 35 33 33 35
44 44 43 42 42 41 40 39 39 38 38 40 35 35 36 37 38 39 38 36 36 32 28 32 39 44 46 46 45 43 42 42 41 38 37 34 36 35 34 34 33 34 34 34 33 35 34 34 35 36 35 34 33 34
45 44 43 43 42 41 40 39 39 38 41 37 37 37 36 38 39 37 31 35 39 37 30 28 42 43 45 45 44 43 42 42 41 39 38 39 40 37 34 32 34 36 37 37 36 37 37 37 36 35 34 34 32 34
45 44 43 43 42 41 40 39 38 39 40 37 37 36 38 39 37 29 30 39 39 37 31 30 36 43 45 45 45 45 45 43 42 41 39 38 38 39 36 31 35 31 32 33 36 35 36 35 35 34 33 32 33 33
45 44 44 43 41 40 40 39 38 39 37 35 37 38 40 40 37 34 39 41 39 35 35 32 34 38 43 40 40 43 42 42 41 40 40 38 38 38 33 34 30 30 32 34 34 35 35 35 32 32 31 30 30 30
45 44 44 42 39 40 39 38 39 39 37 37 38 37 36 35 32 35 41 42 41 37 32 36 32 31 43 41 40 41 41 36 40 37 37 39 36 33 34 30 30 30 31 32 33 34 35 35 33 31 29 28 29 28
45 44 43 41 40 38 38 39 40 39 37 37 39 36 33 39 44 44 40 35 35 37 37 35 37 34 40 39 39 39 40 36 31 36 39 34 34 35 32 29 29 30 31 32 31 32 33 34 35 33 31 29 28 28
45 44 41 40 39 39 39 41 39 37 36 36 36 35 38 42 40 38 35 34 35 32 37 36 37 35 39 35 35 38 35 35 31 33 32 31 31 33 30 28 29 29 30 31 33 33 33 34 35 35 35 32 28 26
43 41 40 39 37 37 40 40 37 32 32 33 34 37 38 37 35 32 32 33 32 28 36 37 37 37 38 40 35 36 34 34 29 35 31 28 32 27 27 28 28 29 31 33 33 34 34 35 36 36 37 34 29 26
42 41 39 37 35 36 40 40 37 35 37 37 36 33 34 34 29 28 27 29 31 35 35 36 35 37 38 38 35 35 32 31 34 31 28 30 27 27 27 27 28 29 32 32 33 33 34 34 37 31 31 29 26 23
41 39 39 38 37 36 38 39 34 37 36 32 31 28 29 29 28 30 29 29 33 34 36 36 36 36 37 35 35 32 33 32 28 26 26 29 26 26 27 27 28 28 28 29 30 30 31 33 35 37 29 25 23 23
40 40 39 39 39 40 37 34 36 36 32 29 29 25 29 31 32 32 32 33 34 36 36 35 35 35 34 33 33 32 29 26 25 24 29 27 26 26 26 26 26 28 28 28 28 29 28 27 29 32 32 33 31 28
40 39 39 40 40 38 36 36 35 32 29 28 27 25 27 30 30 31 32 32 33 35 35 35 33 30 31 31 29 28 25 22 24 29 28 27 26 26 26 26 25 27 28 27 27 27 28 27 25 24 26 31 30 28
39 37 39 39 38 38 35 33 32 28 26 24 23 25 28 27 28 30 32 32 33 34 32 33 29 28 32 29 28 29 26 25 27 27 27 26 25 25 26 24 24 26 27 26 25 26 27 27 26 24 23 22 22 25
36 38 40 39 37 35 33 31 28 26 23 23 21 23 27 28 29 30 30 32 33 32 32 31 32 29 28 26 25 28 29 27 28 27 26 25 23 24 24 22 24 24 21 22 24 25 27 27 26 25 24 22 20 20
39 39 39 38 35 31 28 27 27 20 22 25 26 26 27 27 27 28 29 31 32 32 31 29 28 27 27 28 27 26 26 26 27 26 26 24 24 24 21 22 23 22 19 20 22 24 25 26 26 25 25 22 21 20
40 39 39 37 33 28 25 25 28 24 22 24 26 25 25 25 25 26 27 28 29 28 27 26 26 28 27 27 27 27 27 26 25 23 21 19 22 19 21 21 20 18 17 20 19 20 21 22 24 24 24 27 25 22
37 38 36 34 30 26 24 23 23 24 24 23 24 24 23 23 23 23 25 27 25 25 23 24 25 26 25 25 26 27 26 24 23 22 18 15 19 17 19 20 18 16 17 15 14 15 16 17 19 20 22 25 26 24
35 36 31 28 22 21 20 23 22 23 22 21 22 22 20 19 19 21 24 23 23 23 24 23 21 23 24 25 24 23 23 22 20 19 19 18 13 14 14 15 15 12 12 13 14 14 14 16 18 22 22 24 26 26
33 29 21 17 16 13 13 21 18 19 17 17 18 17 17 16 18 22 19 20 21 23 23 22 21 20 22 21 21 20 20 20 17 14 14 15 15 16 16 15 14 13 12 13 14 15 15 17 19 21 21 22 23 24
31 27 25 19 14 15 14 13 17 17 17 17 15 11 13 15 18 17 14 14 17 20 20 20 19 19 17 17 19 19 17 15 13 12 13 13 11 12 13 12 13 14 14 15 15 15 15 16 19 18 19 20 22 23
26 23 23 19 15 16 15 10 12 13 11 13 13 12 13 14 14 13 12 12 16 16 18 18 19 19 20 19 17 14 13 14 10 8 12 14 13 12 11 11 11 12 13 12 13 13 14 15 15 16 16 16 16 18
22 20 20 19 16 16 14 8 6 8 11 11 12 11 11 12 7 5 5 8 11 13 15 18 19 19 18 16 18 14 11 13 13 11 10 11 11 10 9 9 9 11 12 13 13 13 13 13 13 14 14 14 17 19
21 20 20 18 15 13 10 10 11 11 9 9 12 13 10 3 -0 -1 6 11 11 16 15 16 19 20 20 19 14 10 10 14 12 10 11 11 12 12 11 10 10 11 13 13 13 13 13 14 14 14 14 14 15 16
23 19 18 17 13 10 8 8 7 6 6 10 12 9 8 6 2 1 5 11 14 14 14 14 16 18 18 18 15 14 12 10 11 11 11 11 10 11 11 12 13 14 15 15 15 15 15 15 14 14 14 14 15 16
21 16 15 14 9 10 8 6 4 7 10 13 12 7 3 7 9 7 10 12 12 14 16 16 16 12 12 10 10 10 11 12 12 10 7 7 8 9 8 9 10 10 10 10 13 15 16 16 17 16 16 16 16 17
18 14 15 12 14 14 11 7 4 8 12 12 11 10 10 9 10 11 10 10 10 7 9 13 14 14 16 16 16 13 9 8 10 10 8 8 9 9 8 9 10 10 11 11 11 11 14 16 16 15 14 14 15 15
15 12 12 12 13 9 7 6 7 8 6 7 5 9 8 7 6 7 8 9 9 8 8 8 9 10 12 12 12 11 11 7 7 8 9 9 8 8 9 10 11 11 11 12 12 11 12 13 12 12 12 12 12 16
12 14 14 13 11 6 5 7 6 7 5 6 5 4 5 6 6 9 7 7 7 8 9 10 8 8 8 9 8 8 11 10 9 8 8 9 10 11 11 12 13 13 13 14 14 14 13 12 12 12 12 12 12 15
9 8 6 9 10 10 6 7 8 9 6 8 6 5 4 7 12 10 6 5 7 8 8 8 10 9 8 7 7 7 11 8 9 14 17 17 18 17 19 20 19 19 18 18 17 16 14 13 12 12 13 14 15 17

GFSWCAN_sfc_30mbdewp_057.txt.gz
Dewpoint
48 45 44 42 42 41 39 39 39 39 40 40 41 38 38 37 35 33 32 39 36 34 34 37 38 38 39 35 31 35 34 35 35 30 28 29 28 30 29 29 28 26 26 25 25 22 17 29 36 34 35 35 35 35
48 46 44 42 42 41 41 41 40 39 40 39 40 40 37 38 36 36 31 37 38 31 34 38 38 39 40 42 40 38 31 34 33 32 33 32 30 33 30 29 32 28 27 25 24 22 25 30 34 34 35 34 34 34
49 46 43 42 42 41 42 41 40 40 40 39 40 41 38 36 38 36 33 33 34 31 30 32 28 34 38 38 40 37 38 38 38 38 34 33 29 31 29 29 31 32 31 29 31 32 31 32 35 35 35 35 35 35
49 47 45 43 42 42 42 41 40 40 40 39 38 40 36 37 37 37 37 35 31 30 26 28 39 38 45 41 41 42 40 42 40 39 35 34 31 33 31 30 31 32 32 30 31 32 33 35 37 36 36 35 33 34
48 47 45 43 43 43 42 41 40 41 40 39 40 37 36 36 36 39 38 36 34 28 26 28 33 37 46 45 45 44 42 41 40 37 36 33 36 35 34 34 33 34 34 33 33 34 34 35 35 37 36 35 34 33
48 47 45 44 43 43 42 41 41 40 39 39 40 38 38 37 38 37 33 35 38 34 28 26 37 42 45 46 45 43 42 42 40 38 37 38 40 35 33 31 32 33 36 36 35 36 36 37 37 35 34 34 34 33
47 46 45 44 44 43 42 42 40 39 39 40 37 37 37 37 37 31 28 38 38 36 30 27 31 43 45 45 45 44 44 43 41 40 38 38 38 38 36 32 33 33 31 32 35 35 35 35 35 35 33 32 33 33
47 46 46 45 44 43 43 41 40 39 39 39 36 37 39 39 38 35 40 40 38 34 31 28 32 39 44 40 39 44 42 42 42 40 40 38 39 38 33 36 31 30 31 32 33 34 34 35 35 33 31 31 31 31
47 46 46 44 44 43 41 40 38 39 40 38 37 39 36 34 32 33 40 40 39 35 29 33 31 31 42 40 41 42 41 36 40 37 37 38 35 32 35 34 31 30 30 31 32 33 34 34 35 34 31 30 29 30
46 46 46 45 44 42 40 39 38 40 38 36 39 35 32 37 41 44 39 33 33 34 34 32 37 34 39 38 37 38 39 36 32 36 39 34 33 35 31 29 29 29 30 31 31 31 32 33 33 34 35 33 30 29
46 46 46 45 42 40 39 39 40 36 37 37 35 34 39 42 40 37 33 31 33 32 36 36 36 36 39 35 35 38 35 34 31 32 32 31 31 33 29 28 28 29 30 30 32 33 33 33 34 34 35 36 34 30
46 46 45 43 41 39 39 40 38 31 32 35 35 37 38 37 35 31 31 33 32 27 33 36 36 37 38 39 35 35 32 33 28 35 31 28 32 27 27 27 28 29 31 33 34 34 34 34 35 34 34 36 36 31
46 45 43 41 39 38 40 39 38 33 37 37 35 32 33 33 28 27 27 29 30 35 36 37 35 37 38 38 35 34 32 31 35 30 28 29 28 26 27 28 28 29 31 32 32 32 32 33 35 35 28 28 29 27
44 43 42 40 37 36 38 40 36 36 36 32 30 27 29 28 29 30 29 29 33 34 35 37 36 36 37 34 35 31 33 33 28 26 26 30 26 27 27 27 28 28 28 28 29 29 29 29 31 34 34 27 23 23
42 42 39 37 36 37 39 36 36 36 33 29 30 25 28 31 31 32 33 33 34 35 36 36 35 35 33 32 32 31 29 26 26 23 27 28 26 26 25 25 25 28 28 27 27 27 28 28 26 25 29 33 32 29
41 40 39 39 39 39 37 37 35 32 29 29 27 25 26 29 29 31 32 32 34 36 36 35 33 30 30 29 29 26 26 22 23 27 27 26 26 26 26 25 24 26 27 26 25 27 27 27 26 24 23 23 27 31
39 37 39 40 39 38 37 33 32 28 27 24 21 25 26 27 27 30 32 33 33 34 32 32 29 27 30 27 27 29 26 25 26 27 27 27 26 26 26 24 24 25 23 22 24 25 26 27 26 25 25 23 22 21
36 40 39 39 37 35 32 31 28 26 22 23 20 22 26 28 28 30 30 33 34 33 32 31 32 29 28 25 25 28 28 26 26 27 27 26 24 24 24 21 23 21 18 21 22 23 25 26 25 25 25 24 22 21
38 40 39 37 36 31 28 28 27 20 21 24 26 26 26 26 27 27 29 31 33 32 31 30 28 27 27 28 27 25 25 25 27 26 25 24 23 25 22 22 23 20 16 19 19 20 21 24 24 24 22 25 26 24
39 39 38 38 34 28 25 24 28 24 21 24 26 25 25 25 25 25 27 28 29 29 27 26 26 28 27 27 26 27 26 26 26 25 24 22 22 21 20 20 19 17 15 16 15 18 17 16 19 19 20 23 25 25
38 38 37 34 30 28 25 23 23 24 24 23 24 25 23 23 23 23 24 27 25 24 23 24 25 27 26 25 26 27 27 25 25 26 25 21 20 19 18 19 19 15 15 13 13 13 14 14 16 18 20 22 23 25
35 36 32 27 21 21 21 23 23 24 23 22 22 22 21 20 20 21 23 24 23 23 24 23 22 23 24 25 25 25 25 24 21 20 18 18 16 16 16 17 15 11 11 11 12 12 13 14 16 19 21 21 22 22
32 27 20 17 15 13 15 20 18 19 16 18 18 18 18 18 18 21 18 19 21 23 24 23 21 19 21 21 23 22 22 21 20 18 18 15 13 14 15 15 15 11 9 10 13 13 13 15 17 18 19 19 20 20
29 26 24 19 15 14 13 13 16 16 17 16 15 11 13 15 17 17 14 15 18 20 20 21 20 20 19 19 21 22 20 20 17 14 13 11 9 11 13 12 12 12 13 14 14 14 14 14 17 16 17 17 16 16
26 22 22 19 15 16 15 12 11 12 10 13 13 12 13 14 13 13 12 13 14 13 14 17 19 19 20 19 18 19 16 16 15 12 11 13 12 11 11 11 12 12 13 12 12 13 13 13 14 13 14 14 14 14
22 20 20 19 16 16 14 11 8 8 10 10 11 10 11 12 9 8 8 7 8 10 13 15 16 18 19 18 19 18 17 15 13 10 8 12 12 10 6 6 7 8 12 13 12 12 12 13 13 12 12 13 15 15
21 20 19 17 15 13 11 9 10 10 8 8 10 12 11 8 6 4 5 9 7 12 15 15 17 19 19 19 18 13 11 14 13 11 11 12 12 12 11 9 8 10 12 12 13 13 13 13 13 13 13 12 12 13
23 19 17 17 14 10 10 9 8 7 7 10 13 12 11 10 12 5 2 8 12 13 14 13 14 16 18 18 17 14 10 11 10 10 11 11 11 11 11 12 12 14 15 14 14 14 14 14 14 13 13 13 13 13
20 17 16 15 11 11 10 9 8 8 9 12 10 10 9 8 7 4 7 10 10 13 14 13 15 13 13 11 10 10 10 12 12 11 9 8 9 9 7 8 9 9 10 10 13 15 15 15 15 14 14 15 15 15
18 16 16 12 14 14 13 9 6 6 11 12 11 10 9 8 8 10 10 9 10 8 8 8 11 13 14 16 17 14 10 10 12 12 13 14 12 8 8 9 9 9 9 10 10 11 14 15 14 15 14 13 13 13
15 13 14 13 14 11 8 5 6 8 6 7 5 9 8 7 7 7 8 9 10 9 9 8 8 9 12 13 14 15 16 12 11 11 10 9 8 8 8 8 9 10 10 10 10 11 12 12 12 12 12 11 11 13
13 15 15 14 13 5 4 7 6 7 4 6 6 3 5 5 6 9 7 7 7 7 9 10 8 8 8 11 11 10 12 8 7 7 7 8 9 10 10 10 10 11 11 12 12 12 12 12 12 11 11 11 11 11
8 8 6 9 11 11 6 7 8 9 6 8 8 5 5 7 11 11 6 5 7 7 7 7 8 9 8 8 9 7 10 8 9 13 16 17 18 17 16 17 16 15 15 14 14 14 14 14 13 12 12 12 12 13

GFSWCAN_sfc_30mbdewp_060.txt.gz
Dewpoint
51 50 48 46 43 42 41 41 39 40 40 40 40 41 39 38 37 36 34 39 35 31 32 35 37 36 39 36 33 36 35 36 35 31 28 27 26 28 28 28 27 25 25 25 24 23 19 27 35 34 36 36 35 35
52 51 48 47 44 43 42 41 41 41 40 40 40 39 40 38 38 38 34 37 39 30 27 35 36 38 38 38 38 38 34 34 35 32 32 31 29 33 29 27 32 26 26 25 25 22 25 30 33 33 34 33 35 35
52 51 50 47 45 44 43 42 42 41 41 40 40 39 41 39 36 39 36 36 35 32 28 29 26 27 29 36 39 38 38 39 38 39 35 33 29 33 29 29 31 31 31 28 29 30 28 28 31 35 36 36 36 36
52 51 50 48 45 45 44 42 42 42 41 41 40 39 40 38 37 38 37 38 35 31 25 22 30 35 36 37 36 39 40 42 41 40 36 34 29 34 30 30 31 32 32 30 30 31 33 34 36 38 37 36 35 34
51 51 50 48 46 45 44 43 42 42 41 41 39 39 40 37 37 38 40 38 37 30 23 23 26 27 27 42 38 40 40 41 41 38 36 33 36 34 35 35 33 34 32 30 27 32 34 35 37 38 37 36 36 34
50 51 50 48 46 45 44 43 42 42 41 40 39 40 38 38 38 37 32 37 38 34 30 22 32 35 40 44 42 42 43 42 42 36 37 38 39 33 31 29 31 34 35 36 34 36 36 36 37 35 35 35 34 34
46 50 50 48 47 45 44 44 42 42 40 39 39 39 37 37 38 34 29 36 39 36 30 26 29 36 42 44 44 43 44 43 41 38 37 37 38 37 35 30 31 35 35 33 34 35 35 36 35 35 35 33 33 33
45 47 49 48 46 45 45 43 42 41 40 39 39 37 37 39 39 36 38 40 38 34 33 26 29 37 43 35 39 44 42 43 42 39 40 38 38 38 34 35 34 33 32 32 34 34 34 34 34 35 34 32 32 32
44 46 47 48 46 45 45 43 42 40 39 40 39 38 38 35 33 35 40 39 39 34 28 29 30 31 42 40 41 41 41 36 41 38 37 38 36 32 35 36 35 32 31 32 32 32 33 34 34 34 35 32 31 31
43 44 46 47 46 46 44 42 41 39 40 37 38 34 31 35 39 41 38 32 32 32 31 28 36 33 39 38 37 37 38 35 32 35 39 35 33 37 31 30 30 29 30 31 30 30 32 33 33 34 34 35 35 33
43 44 46 47 46 45 44 42 40 39 38 37 34 34 39 43 40 36 31 28 30 29 33 35 36 36 40 35 35 38 33 34 30 33 33 31 31 34 30 28 29 29 30 31 31 32 33 33 33 34 35 35 36 36
43 44 46 47 46 44 41 40 40 33 34 36 36 37 38 36 32 30 30 32 31 29 32 35 35 37 38 39 36 36 32 33 29 35 31 28 32 29 27 28 28 30 32 33 34 34 34 33 34 35 35 32 34 37
44 44 46 46 44 41 40 40 38 32 36 36 34 32 31 32 27 27 25 28 29 34 36 37 35 37 38 37 35 35 31 30 35 31 28 30 29 27 27 28 28 30 32 32 32 32 32 31 33 35 34 26 26 29
45 46 44 43 41 40 39 40 36 37 36 32 29 26 28 27 29 30 29 30 33 35 35 37 36 35 37 34 34 29 32 33 28 26 27 30 28 27 27 28 28 29 28 28 28 29 29 29 29 30 32 34 27 24
46 44 43 41 40 39 39 40 37 37 34 30 30 24 27 31 32 32 33 33 34 36 36 35 34 35 33 32 31 30 28 26 26 23 28 30 27 27 25 25 27 27 27 26 26 27 28 28 26 25 24 29 33 31
43 41 39 40 39 39 40 38 35 32 30 29 28 25 27 28 30 31 32 33 35 36 36 35 32 30 29 29 28 25 26 22 24 27 30 28 27 26 24 23 24 26 26 24 24 25 27 27 26 25 25 24 23 25
39 38 40 39 40 39 36 33 32 29 27 24 22 26 26 28 28 31 33 34 35 35 32 31 28 27 30 27 26 29 28 26 27 29 29 28 27 26 26 23 24 25 20 22 23 24 25 26 26 26 26 26 24 22
38 40 41 39 37 35 32 31 27 25 19 23 19 23 25 28 28 30 31 33 34 33 32 31 32 29 27 26 26 29 30 28 27 28 28 27 27 26 26 22 23 21 17 20 20 22 23 24 24 24 22 23 26 25
40 39 39 37 35 31 28 27 27 20 20 24 26 26 27 27 28 27 29 32 33 33 32 30 29 27 27 29 28 28 28 28 28 27 26 25 24 25 24 23 23 20 16 18 18 17 17 19 21 20 18 20 23 26
39 39 38 36 33 28 25 24 28 24 21 24 26 26 25 25 25 25 27 28 29 29 28 27 26 28 28 28 28 29 28 27 26 26 25 23 23 23 22 22 20 18 14 16 15 17 17 14 16 16 19 22 22 23
38 37 36 33 30 28 25 24 23 24 24 23 25 25 24 24 23 24 25 26 25 23 22 25 26 27 27 27 27 27 27 26 26 27 26 25 22 22 21 20 20 16 13 12 11 12 14 13 15 16 20 21 20 21
35 36 32 30 24 22 22 22 23 24 23 22 23 23 21 20 21 22 23 24 24 22 24 24 23 23 24 25 26 26 27 26 25 22 22 23 21 20 19 18 17 14 13 13 14 13 14 14 15 17 19 19 20 20
31 26 20 17 15 14 16 19 18 19 18 19 20 19 19 19 19 22 19 20 21 23 24 23 22 20 22 22 23 23 24 24 23 21 19 16 15 17 16 16 16 13 11 12 13 14 14 15 16 17 18 18 18 18
27 24 22 19 14 13 13 13 16 16 17 16 15 13 14 16 18 17 16 18 18 21 20 20 20 20 19 19 21 22 22 22 21 19 17 15 12 12 14 14 14 14 14 13 14 14 14 14 16 17 16 16 16 15
25 22 22 18 15 15 14 12 11 12 10 12 12 12 13 14 13 13 14 15 16 15 14 15 18 20 21 21 20 20 19 21 20 20 16 14 11 10 11 12 12 12 14 13 13 14 14 14 14 15 14 14 14 14
22 19 19 19 17 16 14 13 10 9 10 10 11 10 11 12 11 11 11 11 9 9 10 15 17 17 18 19 20 20 19 18 17 17 14 13 12 10 7 6 6 8 12 13 13 13 13 14 14 13 13 13 15 15
20 19 19 16 15 12 11 9 9 9 8 8 10 11 11 11 9 9 9 10 6 10 14 17 18 18 18 20 19 19 13 17 17 17 13 13 14 14 12 7 7 10 12 13 14 14 13 13 13 13 14 14 13 13
21 19 17 16 14 10 12 9 8 8 7 9 12 12 12 11 13 12 6 8 11 12 14 15 15 16 18 19 19 17 13 13 11 11 12 12 12 12 12 13 13 14 14 14 14 14 14 14 15 14 14 13 14 14
20 18 16 16 12 12 11 11 10 9 10 11 10 10 10 11 10 5 6 9 9 12 11 9 12 13 14 13 12 13 12 12 11 9 6 5 8 11 11 11 11 12 13 13 16 17 16 15 15 15 15 15 15 15
18 16 16 13 15 15 15 11 9 6 10 12 11 11 10 9 9 9 9 8 9 9 10 10 10 10 10 12 13 15 12 12 14 14 14 14 14 11 9 9 10 10 10 10 11 12 14 15 14 14 14 13 14 14
15 15 15 13 15 13 7 4 5 8 7 7 5 9 9 8 8 8 9 10 11 10 10 10 9 9 10 10 12 12 13 14 13 13 13 11 10 10 10 10 10 10 10 11 11 11 12 12 12 12 12 12 12 13
13 16 16 15 13 6 3 8 6 8 5 6 8 3 6 6 8 11 9 7 7 8 10 12 9 10 9 10 11 13 14 11 9 10 11 12 12 10 10 10 10 10 11 11 11 12 12 11 11 11 12 12 12 11
8 7 5 10 12 12 6 8 8 9 7 7 8 6 5 7 10 11 7 5 8 8 8 8 8 9 8 8 8 10 11 9 10 13 15 16 17 16 14 14 14 14 14 13 13 13 13 12 12 12 13 12 12 12

GFSWCAN_sfc_30mbdewp_063.txt.gz
Dewpoint
53 53 51 50 48 45 44 42 42 40 41 41 41 40 41 40 38 37 34 36 32 27 26 27 30 32 36 38 34 37 36 36 35 31 28 25 24 25 26 25 25 25 24 24 24 23 21 26 32 28 36 36 35 35
53 53 52 51 49 47 45 43 42 41 41 41 40 41 40 40 41 39 34 37 36 32 26 30 29 28 28 32 36 39 36 33 33 30 28 28 26 30 25 23 29 24 24 24 24 23 26 30 33 33 35 37 37 36
49 51 52 51 49 48 46 44 43 42 42 41 40 41 40 40 41 38 36 38 36 32 27 27 26 26 27 27 37 36 38 39 36 38 34 30 27 30 27 25 28 28 28 26 27 28 27 27 31 34 37 36 36 36
48 49 52 52 51 49 46 45 44 43 43 40 41 41 41 40 41 38 38 38 36 32 25 21 23 25 31 34 27 35 38 40 41 40 36 31 27 31 28 31 29 31 31 29 28 29 32 35 34 37 37 37 36 36
47 48 49 50 51 49 47 46 45 44 43 41 41 41 40 40 39 39 39 37 37 33 24 24 25 25 25 27 32 33 34 34 39 38 34 31 33 31 32 33 30 31 30 30 27 29 30 34 38 38 37 37 37 36
43 46 46 48 50 50 48 46 46 45 43 42 42 40 40 40 39 36 29 37 38 37 31 22 26 27 34 31 25 36 37 38 40 38 34 36 36 32 28 27 28 29 31 33 32 36 36 37 37 36 36 36 35 34
42 44 45 46 48 49 48 47 46 44 43 42 41 40 40 39 38 32 28 37 39 38 31 24 26 36 33 35 37 40 41 41 41 38 36 36 37 36 31 28 28 30 33 34 35 35 35 36 36 35 35 35 34 34
40 43 44 45 46 47 48 47 46 44 43 41 40 39 38 38 38 36 36 40 38 35 33 25 26 32 40 35 33 39 38 40 41 38 39 36 37 36 33 32 32 32 35 33 33 34 34 35 34 35 36 34 33 33
40 42 42 44 44 46 47 46 46 45 43 40 39 38 39 37 34 34 38 40 39 34 28 28 27 30 38 36 39 40 40 33 41 37 37 37 36 33 34 34 35 35 33 33 34 33 33 33 34 34 34 35 34 33
40 41 42 43 43 45 46 47 45 44 41 40 36 35 31 33 40 41 37 32 32 32 31 26 33 31 37 36 36 36 39 36 32 36 39 35 33 35 36 32 32 33 31 31 31 31 33 33 34 33 33 34 35 35
39 40 41 42 43 44 44 46 44 41 40 36 31 32 39 41 37 35 30 27 29 27 30 31 34 33 40 36 35 37 34 35 30 33 33 31 31 35 31 30 29 30 30 31 31 32 33 33 33 34 34 35 36 36
41 41 42 42 43 44 43 45 42 38 36 35 36 38 38 35 32 29 28 31 29 29 35 34 36 37 39 40 36 36 33 33 29 36 32 28 33 31 30 28 29 30 31 32 34 34 34 33 33 34 36 35 30 30
43 43 43 42 43 45 45 42 41 38 39 37 34 32 31 31 26 26 25 29 30 33 36 37 35 38 39 38 36 35 30 30 35 31 28 29 31 29 28 28 29 32 33 33 33 33 33 32 32 33 34 34 30 26
43 44 44 43 44 44 43 42 39 38 33 31 29 26 27 27 28 29 29 32 35 36 36 37 36 35 37 35 35 30 33 33 28 26 26 30 30 28 28 29 32 31 31 30 29 29 29 29 29 30 29 33 33 27
44 45 44 44 44 42 42 40 38 37 34 30 30 25 27 31 33 32 33 34 35 37 37 35 34 35 33 32 31 31 28 26 25 24 30 33 29 28 27 28 31 27 26 24 25 26 27 28 27 26 25 24 25 30
44 44 42 42 41 41 40 39 37 35 32 31 29 27 29 28 31 32 32 32 36 37 36 35 32 31 29 29 29 27 25 23 26 31 34 30 28 26 25 25 25 26 24 21 22 23 23 26 26 27 27 27 25 23
38 37 41 41 42 40 37 35 33 29 29 26 25 28 28 29 30 32 33 34 36 35 32 32 28 27 31 27 26 27 28 31 33 33 32 30 28 25 23 22 24 24 18 20 21 22 23 24 26 25 23 23 27 26
38 40 41 39 37 36 33 33 29 26 20 25 22 25 26 28 30 32 32 32 33 33 33 31 33 29 26 24 27 31 34 33 30 31 30 29 29 28 27 23 23 21 17 19 20 20 22 22 19 19 18 18 22 27
39 40 39 38 35 32 29 28 29 20 22 25 25 27 28 28 29 29 29 32 32 33 32 31 29 27 28 30 32 32 32 32 29 28 28 28 27 27 26 24 24 21 17 18 17 14 15 16 17 17 16 19 20 22
40 39 37 35 33 29 26 26 29 26 23 25 27 27 27 27 26 27 28 30 31 31 29 28 27 29 29 30 30 31 30 30 28 27 26 25 25 26 26 24 22 20 14 16 17 17 15 15 15 15 17 20 20 19
37 37 35 32 30 28 26 25 25 25 25 24 25 26 25 26 26 26 27 28 28 25 24 26 27 28 29 29 28 28 29 28 28 28 27 27 24 24 25 24 23 18 13 11 10 10 16 13 14 15 18 19 19 19
35 35 31 28 25 24 23 23 24 25 24 24 24 24 23 22 23 24 25 25 26 26 25 24 25 25 24 25 26 27 28 28 28 25 25 26 23 23 23 23 21 18 16 16 15 15 15 14 15 16 18 18 19 19
30 26 23 21 17 17 18 21 20 21 21 21 22 21 21 21 21 23 21 24 24 25 26 25 25 23 23 24 23 24 25 26 27 25 22 22 21 24 23 23 21 20 17 17 16 16 16 17 16 17 17 18 17 17
26 24 22 19 17 14 15 15 17 18 19 18 18 16 18 19 20 19 19 22 25 24 22 22 22 20 21 20 21 23 24 24 25 24 21 19 17 15 16 17 15 18 17 16 15 16 16 15 16 17 17 16 16 16
24 21 22 18 17 15 14 14 13 14 11 13 13 14 15 16 16 17 19 21 21 20 20 19 17 19 20 22 22 21 22 23 24 23 22 20 18 13 13 14 13 13 15 14 13 14 15 16 16 16 16 15 15 15
20 20 20 19 18 17 15 14 13 12 11 11 12 12 14 15 13 13 15 16 15 14 13 15 19 18 18 20 20 21 22 21 22 22 22 19 16 14 14 12 11 11 14 14 15 14 14 15 15 15 15 15 16 17
20 19 20 16 16 13 12 10 10 11 9 9 12 12 13 12 11 13 14 14 10 15 16 19 20 19 19 20 21 21 19 20 21 21 17 18 18 17 17 13 9 12 14 14 15 15 15 15 15 15 15 16 16 15
21 19 17 18 15 13 13 11 10 9 10 12 13 11 12 12 13 15 13 12 14 14 15 16 17 18 19 20 22 21 19 17 16 15 16 16 15 16 17 17 16 16 15 15 16 16 16 15 15 16 16 15 15 16
21 19 17 15 14 14 14 14 13 13 12 13 13 11 12 14 15 11 9 11 12 12 11 11 14 15 15 16 16 17 19 17 17 16 15 17 17 15 15 15 15 16 17 18 18 19 18 17 17 16 16 17 17 17
19 19 17 14 16 16 17 15 15 10 11 14 13 13 13 13 14 15 12 11 10 11 14 16 18 15 13 13 13 16 16 17 18 19 18 17 17 16 13 12 12 13 13 13 14 14 15 17 16 15 14 14 15 15
17 18 17 16 16 17 13 7 8 8 10 11 11 11 12 13 12 13 12 13 14 16 16 15 15 15 14 14 13 13 14 17 16 17 18 17 14 13 13 13 14 14 13 13 13 13 13 13 13 13 13 12 12 14
16 17 17 16 15 11 7 10 11 11 11 10 12 10 10 10 11 13 15 13 13 13 15 16 15 15 16 15 16 16 16 15 14 14 14 16 16 14 13 12 12 12 13 13 13 13 13 12 12 12 12 12 12 12
11 11 10 12 14 14 10 10 11 11 9 9 10 10 10 11 10 13 11 9 12 13 12 12 12 11 11 10 11 12 14 11 11 14 14 14 14 14 14 15 15 15 14 14 14 14 13 13 12 12 12 12 13 13

GFSWCAN_sfc_30mbdewp_066.txt.gz
Dewpoint
52 53 53 52 51 50 48 46 45 43 42 42 41 41 41 41 41 39 36 37 33 28 26 26 25 25 27 33 35 38 38 36 36 32 32 28 25 26 24 24 25 24 26 26 25 25 19 31 30 28 36 35 36 36
50 52 53 53 52 51 49 47 46 45 44 42 42 41 41 41 41 41 37 37 37 34 29 31 30 30 29 29 33 36 37 37 36 32 30 27 25 28 25 22 27 24 25 24 24 25 28 29 33 34 36 37 36 36
49 50 50 51 52 52 50 49 47 45 44 43 42 41 41 41 40 41 38 39 38 34 30 28 26 27 29 28 29 28 36 41 39 41 36 31 27 29 25 24 28 28 28 26 26 27 27 27 32 36 37 37 36 36
48 48 49 49 49 52 51 50 48 46 45 43 43 41 41 42 41 41 38 40 37 35 27 22 23 23 24 28 27 31 31 38 36 39 38 33 29 31 28 29 29 30 29 28 28 28 30 35 32 34 37 37 37 36
42 44 46 47 48 49 50 50 49 47 46 44 44 41 42 41 40 41 40 39 39 33 25 25 29 28 27 26 27 31 31 32 33 36 37 33 32 31 31 32 30 31 31 30 29 32 32 37 38 38 38 37 37 36
41 42 42 43 45 47 48 48 49 48 47 46 44 43 42 40 41 37 31 38 38 37 32 24 27 22 24 30 26 30 29 32 34 38 37 35 36 32 27 28 28 28 31 32 32 36 37 37 37 36 36 35 35 35
39 39 40 42 43 43 46 47 48 48 47 46 45 44 40 40 40 34 29 37 40 38 31 25 25 31 38 31 26 30 34 34 35 35 38 35 37 36 32 28 29 30 31 33 35 36 34 36 36 35 35 35 35 34
38 38 38 39 40 41 43 45 47 47 47 45 45 41 39 40 39 35 37 39 39 35 33 24 24 30 38 33 31 32 33 36 36 38 38 36 36 37 33 33 32 31 33 35 34 35 34 34 34 35 35 35 34 34
38 38 37 38 39 40 40 42 45 46 46 45 42 40 38 37 34 35 38 40 39 35 28 27 24 26 39 36 35 34 36 31 37 36 36 37 35 32 34 34 33 34 34 33 34 34 33 33 33 34 34 34 35 34
38 38 37 38 39 40 41 41 43 45 46 42 38 35 32 35 41 39 37 33 32 32 31 25 28 27 36 35 33 32 36 33 31 34 39 34 34 35 36 34 32 33 33 33 33 32 33 33 33 33 33 34 35 35
38 37 38 39 40 41 41 42 43 44 40 37 33 31 40 41 36 34 29 27 29 26 29 28 29 30 39 32 32 37 33 34 30 33 33 32 30 34 31 31 30 30 30 31 31 32 33 33 33 33 34 34 36 36
38 38 39 40 42 42 42 43 43 39 37 36 35 39 39 34 31 28 28 29 27 26 32 31 35 35 38 41 35 36 32 33 29 36 32 27 30 32 30 29 29 30 31 32 34 34 35 33 33 33 34 35 34 29
39 40 41 42 43 43 43 42 42 39 37 36 34 32 31 30 25 24 23 28 29 33 35 36 35 37 39 39 35 34 29 30 35 30 28 30 32 30 29 29 31 34 34 33 33 33 33 33 32 32 31 32 34 31
41 41 42 43 44 43 44 43 39 38 35 30 27 24 26 26 27 28 30 33 35 36 36 37 34 34 37 35 35 29 32 33 28 26 25 31 31 29 28 30 32 32 32 32 32 31 30 29 28 30 29 29 30 32
42 43 43 43 44 44 42 40 38 37 32 28 30 24 27 30 32 32 33 33 34 37 37 35 34 35 33 32 32 31 28 26 25 24 30 32 29 28 28 30 32 27 26 24 25 26 26 27 27 27 27 26 25 23
43 44 43 43 44 45 41 39 36 36 33 31 30 27 29 28 29 31 32 32 36 37 37 36 32 31 30 30 28 27 25 22 26 31 33 30 28 27 28 30 28 26 23 21 22 22 23 25 26 26 27 26 27 25
44 40 42 44 43 40 37 34 33 30 27 27 25 29 29 29 29 31 33 33 35 34 32 32 29 28 31 27 26 27 26 31 33 32 31 29 28 26 25 25 25 24 19 20 21 21 22 23 24 23 18 18 20 27
39 43 41 40 37 35 33 33 30 26 20 25 23 26 27 28 30 31 32 32 32 32 32 31 32 28 26 24 24 29 33 31 30 31 31 29 28 25 23 23 24 20 18 19 18 19 20 19 17 18 16 17 20 24
39 39 38 37 36 33 29 29 30 21 22 26 26 27 27 27 29 29 31 32 32 32 31 31 29 28 27 30 31 33 32 32 29 28 29 29 28 27 26 24 23 19 16 16 17 14 15 15 15 17 15 18 20 21
40 40 37 34 33 29 27 26 30 27 23 26 26 25 25 26 26 27 28 30 31 31 29 28 28 29 31 29 28 29 29 29 28 27 26 26 27 26 25 24 22 21 17 16 16 17 16 16 15 15 15 20 21 19
37 36 34 32 30 28 26 26 24 26 25 24 25 24 23 25 25 25 26 28 28 26 25 28 29 29 29 29 28 28 28 28 28 28 28 26 25 26 26 24 22 19 15 12 11 11 14 14 14 15 15 18 20 20
35 34 31 28 25 24 23 24 24 25 24 23 23 24 22 21 22 23 24 24 25 26 27 24 24 25 24 23 24 26 26 27 28 27 26 27 24 24 24 24 22 19 15 12 12 11 14 15 15 15 17 18 19 19
30 27 24 22 17 18 19 22 21 21 20 20 22 21 21 21 21 23 21 24 25 26 27 26 25 24 23 23 23 23 24 24 25 26 26 25 24 25 24 24 23 21 19 18 18 17 15 17 16 17 17 17 18 17
26 24 22 19 17 15 16 15 18 18 19 19 19 18 18 20 20 20 18 22 25 26 24 23 22 20 20 20 19 19 22 24 24 25 23 21 19 18 22 23 21 22 20 18 17 15 15 15 16 16 17 17 16 16
23 21 22 18 17 14 13 14 14 14 11 14 14 14 14 16 17 18 20 23 24 21 22 22 19 18 17 18 21 21 23 23 23 23 23 21 20 16 14 14 14 14 17 14 12 12 13 15 15 15 16 16 15 14
20 20 19 19 18 16 15 13 12 11 12 10 12 13 14 15 13 12 15 16 16 15 14 13 16 18 18 20 18 20 22 21 22 23 23 22 20 18 17 12 8 8 15 14 13 13 13 14 14 14 14 15 17 17
19 18 19 16 16 14 12 11 11 11 9 8 11 11 12 11 11 13 16 16 10 14 15 18 17 15 14 18 21 22 21 20 21 21 18 17 19 19 18 16 12 12 15 14 14 13 11 12 13 14 14 14 14 15
20 19 17 17 15 14 12 11 9 8 10 14 13 9 9 10 12 16 14 14 16 14 14 15 17 17 15 16 20 21 20 18 17 17 17 17 18 15 16 19 17 17 13 13 13 14 14 14 14 14 14 14 14 15
20 18 17 15 14 15 14 13 13 14 13 13 11 10 11 15 15 12 9 9 11 9 8 9 11 16 15 15 16 16 18 18 17 14 13 14 16 18 17 15 15 16 16 15 17 17 15 14 14 15 15 15 15 16
19 19 16 14 16 14 16 15 15 11 11 14 15 12 12 12 12 16 14 11 9 10 11 13 16 17 15 15 14 14 16 17 18 17 15 15 17 17 15 14 14 14 15 15 14 14 17 18 18 16 15 13 13 13
18 18 16 16 15 17 13 9 9 9 10 10 12 11 11 12 12 13 13 13 14 15 14 14 14 16 16 15 14 13 13 15 17 17 18 18 16 12 12 12 12 12 12 12 12 12 12 13 13 13 12 12 11 13
16 16 15 13 14 13 9 10 10 11 12 10 10 10 9 10 10 11 13 13 12 13 14 17 15 15 16 16 16 16 17 16 16 14 14 15 16 14 13 12 12 11 11 11 11 12 12 12 11 11 11 11 11 10
11 11 11 12 13 13 11 10 10 10 10 9 9 10 10 10 10 12 12 11 12 12 12 12 10 9 10 10 10 11 14 11 11 14 15 16 16 15 12 11 11 12 12 13 13 12 12 12 11 11 11 11 11 11

GFSWCAN_sfc_30mbdewp_069.txt.gz
Dewpoint
54 54 53 53 52 51 51 49 47 46 44 43 42 42 42 42 41 39 36 37 33 29 29 28 25 25 25 25 26 35 35 38 36 32 32 31 26 26 25 25 26 25 23 25 26 25 20 32 30 30 34 35 36 36
52 52 52 53 52 52 52 51 49 47 46 45 43 43 42 42 42 42 38 38 38 34 31 32 31 30 30 29 29 32 35 34 39 33 32 30 26 27 25 24 27 23 26 23 25 23 27 31 32 36 37 37 36 37
51 51 52 52 52 51 51 51 50 49 47 46 44 43 42 41 42 41 39 39 37 35 31 30 28 29 32 30 30 26 28 32 37 36 38 34 28 29 25 26 25 27 28 26 25 26 27 29 33 37 38 37 36 37
48 48 49 49 50 50 49 49 49 49 49 47 45 44 43 41 42 42 40 39 38 35 28 24 26 24 26 28 29 29 26 25 31 32 31 35 32 31 28 28 26 28 29 27 27 29 29 30 31 35 37 37 36 35
45 45 45 46 47 47 48 48 49 48 48 48 46 45 44 42 41 40 41 40 40 35 26 26 30 29 29 28 26 29 29 29 30 28 31 35 34 31 31 32 30 32 31 28 27 30 30 35 38 37 37 37 37 37
40 41 41 42 43 43 44 45 47 47 47 48 47 47 45 42 40 37 33 37 40 39 31 25 29 27 25 26 27 26 29 31 32 29 30 35 38 32 28 29 30 30 31 32 31 36 36 37 37 37 36 36 36 35
38 39 39 39 39 40 42 42 44 45 47 47 48 47 44 41 39 33 29 36 39 37 30 24 23 27 35 31 28 29 32 33 31 30 30 30 34 37 34 29 28 29 31 34 36 36 35 36 36 35 35 35 35 34
38 38 38 38 38 38 39 40 41 42 44 47 48 45 43 40 39 37 37 40 38 33 32 24 22 26 37 31 25 30 32 33 32 31 34 34 37 37 33 35 32 30 31 34 35 35 35 35 35 35 35 35 35 34
38 38 38 38 38 38 38 39 40 41 43 46 46 42 39 37 34 34 39 40 38 33 27 27 22 20 37 35 35 30 31 28 33 31 32 35 35 32 34 34 34 34 33 34 34 34 34 34 34 34 34 34 34 34
39 39 39 38 38 39 40 40 41 42 43 44 39 34 31 35 41 38 37 33 32 33 31 25 26 24 33 35 32 31 33 31 28 30 38 34 33 35 35 35 33 34 34 34 33 33 33 33 33 33 33 34 35 35
39 39 38 38 39 40 41 41 42 42 39 37 33 32 39 40 36 33 29 27 29 25 29 28 26 25 34 31 31 33 31 32 29 32 32 31 30 34 31 31 31 31 31 32 32 33 33 33 33 33 34 34 36 35
38 38 38 39 40 41 42 43 42 39 37 36 36 40 39 33 31 27 27 28 26 22 29 28 31 31 34 38 34 35 32 32 28 36 32 28 31 31 30 29 29 31 32 34 34 34 34 33 33 33 34 34 34 34
38 38 38 39 40 41 42 43 41 40 39 37 34 31 30 30 24 24 20 26 27 32 34 35 33 37 37 39 35 34 30 29 35 30 27 28 32 30 29 30 32 33 34 34 33 34 34 33 32 32 31 32 33 33
38 39 40 40 41 42 43 43 41 38 35 30 29 24 26 24 25 25 26 31 34 35 35 36 33 32 35 34 34 29 32 33 27 26 25 30 31 29 29 31 33 32 33 32 32 32 32 32 31 30 27 26 25 25
40 41 42 42 42 43 44 42 39 37 33 28 29 22 24 27 32 33 32 32 34 35 36 35 34 34 32 31 32 30 28 25 27 25 29 32 30 29 29 32 32 32 32 29 28 26 26 27 27 27 27 27 26 24
42 43 43 43 43 44 42 39 37 35 32 31 29 27 28 28 26 31 31 31 35 36 36 35 32 30 30 30 28 27 26 23 26 30 33 29 28 28 29 32 29 27 23 22 22 22 23 24 25 26 24 19 23 27
45 41 42 43 44 42 38 34 33 30 28 28 25 29 29 28 28 29 32 33 34 34 31 31 28 28 31 28 26 30 28 29 32 32 30 29 28 27 28 28 26 22 19 21 21 20 21 21 23 19 13 16 20 25
40 43 43 44 39 36 33 32 30 27 23 24 22 24 27 28 29 30 32 32 31 32 31 31 32 28 27 25 26 29 32 31 28 29 30 29 27 25 26 25 24 20 18 19 19 18 19 16 16 16 15 17 19 21
42 43 43 38 36 33 30 29 30 23 20 25 25 26 27 27 29 29 30 33 32 32 31 31 29 27 29 32 31 31 30 31 29 28 28 29 27 24 23 23 23 18 17 17 15 13 14 14 13 15 14 17 18 20
40 39 38 36 34 30 26 25 29 24 20 22 25 25 25 25 26 26 27 29 29 30 29 28 27 29 31 32 30 29 28 28 28 27 27 26 27 26 24 23 22 20 16 16 17 16 14 14 15 15 14 17 20 18
36 36 34 31 28 27 26 25 24 26 25 24 25 24 23 25 24 24 24 27 26 25 25 27 29 29 29 29 29 28 28 28 27 28 27 27 26 26 25 24 22 21 18 14 12 11 16 11 12 14 13 15 19 19
34 35 32 28 26 24 22 24 25 25 24 23 23 24 22 21 21 22 23 22 23 24 26 25 25 25 25 23 23 25 25 26 26 27 28 27 25 24 25 25 22 21 19 16 13 10 9 13 15 15 15 16 19 19
33 31 27 23 19 19 19 22 20 22 19 20 20 20 19 19 20 21 19 20 23 25 26 26 25 24 23 22 21 21 22 23 23 23 24 26 25 24 23 24 24 22 21 19 16 13 12 16 16 16 16 18 17 17
29 26 24 20 17 16 17 15 18 17 18 19 18 18 18 18 17 18 17 19 22 25 24 23 22 19 16 17 16 17 20 22 22 22 24 24 23 22 23 23 23 23 22 20 18 17 16 15 18 16 16 15 16 16
26 22 22 18 16 14 13 13 13 13 10 14 15 13 13 14 15 17 18 21 24 22 22 22 19 17 15 16 17 19 21 22 21 21 22 22 21 18 17 17 18 18 20 19 16 15 13 14 14 14 15 15 14 14
19 20 19 18 17 15 13 12 12 10 11 10 11 12 12 14 12 11 13 16 17 15 14 11 13 15 16 18 15 15 19 21 21 21 21 22 22 21 21 19 16 14 15 17 15 12 11 12 12 13 13 14 17 18
18 18 19 17 16 14 12 11 12 10 9 8 9 11 11 10 9 11 15 18 10 11 15 16 17 13 10 12 18 20 21 21 20 20 20 19 19 20 20 19 19 18 14 14 14 12 10 10 12 12 12 12 13 14
20 19 16 15 14 13 11 10 8 8 9 13 11 9 8 8 11 15 14 13 15 14 12 13 15 16 14 14 17 19 20 19 18 17 17 17 18 19 18 18 19 20 16 14 13 14 13 12 10 11 12 12 13 13
19 17 16 15 13 14 13 12 12 13 14 13 9 8 10 13 15 12 9 8 9 8 7 8 10 12 13 14 15 17 18 18 16 12 11 12 12 14 17 18 17 18 17 14 18 16 13 13 13 13 13 13 13 14
18 18 15 14 14 14 16 14 14 11 10 13 14 12 11 11 11 13 13 11 10 10 11 11 11 12 13 13 13 14 14 15 16 15 13 13 14 16 16 16 15 15 15 15 14 15 20 19 18 18 17 15 13 12
17 16 14 14 12 14 13 8 7 9 9 9 9 10 10 10 11 11 13 14 14 14 12 12 13 14 13 13 13 13 13 14 15 16 17 17 17 16 14 12 12 13 13 13 13 12 12 12 12 12 12 12 11 12
14 14 13 8 11 11 8 9 8 9 9 9 9 7 8 9 9 10 12 13 12 12 13 16 13 13 13 14 14 14 17 15 14 15 15 15 16 15 13 12 11 11 11 11 10 10 10 11 11 11 11 10 10 9
10 9 9 11 12 12 10 9 8 9 8 9 8 8 8 9 9 11 9 8 11 11 11 11 10 8 8 8 10 10 12 11 11 14 15 16 17 15 12 11 10 10 10 10 11 11 12 11 11 10 10 10 10 10

GFSWCAN_sfc_30mbdewp_072.txt.gz
Dewpoint
54 53 52 52 52 52 52 51 49 47 46 45 44 43 42 42 41 39 36 37 34 30 29 29 27 24 24 24 22 24 19 37 37 33 32 31 29 26 24 25 26 27 27 27 28 25 20 30 31 29 32 36 36 33
54 53 53 53 52 51 51 50 50 48 47 47 45 44 43 42 42 42 36 39 38 34 32 32 33 33 30 29 27 28 27 29 33 33 34 31 27 27 25 23 28 24 24 24 26 25 26 30 30 31 37 36 36 36
53 53 53 52 51 51 51 51 51 49 48 48 47 45 44 43 42 42 39 39 38 35 34 32 30 32 35 34 32 26 26 27 31 32 30 34 27 28 24 25 26 26 27 26 25 25 26 28 32 36 37 37 37 37
52 52 52 51 51 50 49 48 47 48 49 49 48 47 45 44 42 43 41 40 38 36 28 28 29 25 25 29 31 31 28 28 31 31 28 27 33 31 27 25 26 26 28 26 26 27 30 29 31 35 37 37 36 36
50 50 49 49 48 48 48 47 47 49 47 47 47 48 46 46 43 41 41 40 40 35 27 28 31 30 30 29 28 30 30 29 28 27 27 25 33 34 31 31 29 31 29 27 26 28 28 29 35 34 37 36 36 36
46 46 45 44 44 44 44 44 45 45 46 47 47 48 47 46 41 36 30 35 39 39 32 23 27 29 28 27 27 28 29 29 30 30 28 30 32 33 31 28 30 32 33 31 30 35 35 37 37 37 37 37 36 36
41 41 41 41 41 41 42 42 43 43 43 44 46 47 46 43 39 34 30 33 39 37 30 23 21 24 32 32 29 30 28 30 29 29 27 29 29 33 33 28 29 30 30 31 33 36 36 37 36 36 36 35 36 34
39 38 38 38 38 38 39 40 40 40 41 42 45 47 46 43 41 38 38 40 36 34 32 22 21 22 34 31 25 32 31 33 32 28 28 30 32 32 31 35 32 30 30 34 36 35 34 36 36 35 35 35 35 34
38 38 38 38 38 38 38 39 39 41 43 45 45 43 41 38 35 33 39 40 37 33 25 25 20 17 34 34 32 29 31 26 29 27 25 29 29 30 34 34 35 34 32 32 34 34 35 35 34 34 34 34 34 34
39 39 39 38 38 38 39 40 40 42 43 40 38 36 32 35 40 38 35 34 32 32 31 24 27 22 29 29 31 28 31 28 24 26 33 30 30 33 35 35 35 35 34 34 33 32 33 33 33 33 33 34 34 34
40 39 39 39 39 39 41 42 41 41 39 37 34 33 39 41 36 33 28 27 28 25 28 27 27 22 28 26 30 33 30 31 27 28 30 30 30 33 31 31 31 32 33 33 33 33 33 33 33 33 33 34 35 35
39 39 39 39 40 40 41 42 42 37 35 36 37 39 38 33 31 27 25 27 25 21 26 27 29 29 30 35 31 33 30 32 28 32 30 28 31 31 30 29 30 31 33 34 34 34 34 33 33 33 34 34 34 34
39 38 39 39 39 40 41 43 40 39 39 37 34 31 30 30 24 22 19 23 25 28 32 32 31 34 35 37 34 33 30 28 35 30 27 28 31 30 29 31 32 34 34 34 34 34 33 33 33 32 31 32 31 33
38 38 39 40 40 41 42 43 41 39 35 29 28 23 24 23 23 22 23 27 33 34 33 33 34 32 33 32 33 29 32 32 27 25 25 29 31 30 30 33 33 33 33 33 32 32 32 32 32 32 31 29 26 24
38 39 40 41 42 42 42 43 39 37 33 27 28 21 24 25 28 32 32 32 33 35 34 34 34 33 32 30 32 30 27 25 27 26 29 32 30 29 30 33 33 33 32 32 31 30 30 30 29 28 27 27 27 26
40 41 41 41 42 43 42 41 37 36 32 30 27 24 27 27 26 29 31 30 34 35 35 34 31 30 30 30 28 26 26 24 29 30 32 29 29 29 30 33 32 33 32 26 25 23 24 24 25 26 20 16 23 27
44 42 42 42 43 43 39 36 34 32 30 27 25 28 28 27 27 29 31 32 34 32 30 31 28 27 30 27 25 29 27 31 32 31 30 29 28 28 29 31 28 24 21 21 21 21 20 21 24 17 11 15 21 23
42 43 43 43 43 37 34 33 30 28 25 24 23 22 28 28 29 30 31 33 31 31 31 29 30 27 26 25 26 30 32 32 31 28 29 29 28 27 29 29 26 21 19 20 20 19 18 17 16 14 14 17 18 20
41 43 44 41 37 34 30 29 30 24 22 22 24 26 26 27 28 29 29 31 33 32 30 30 27 27 27 31 31 32 31 29 30 28 28 28 27 25 25 25 24 20 18 18 15 13 14 14 12 14 14 16 17 19
44 42 39 38 34 29 27 26 29 23 20 21 25 25 25 25 26 26 27 28 27 29 28 27 27 29 30 31 31 29 29 28 28 27 27 27 27 25 23 23 22 20 17 17 16 17 13 12 14 14 14 15 19 17
36 37 36 34 31 29 26 25 24 25 25 23 24 24 23 25 24 24 24 27 26 23 24 26 28 29 29 31 30 28 28 28 27 27 28 27 26 25 25 23 22 21 18 17 15 14 17 13 10 13 13 14 16 19
35 37 32 32 27 25 23 24 23 25 24 23 23 24 22 21 21 22 23 22 22 23 24 25 25 25 27 24 23 24 25 25 25 25 27 28 26 25 25 25 23 23 22 20 17 15 13 11 14 14 14 14 17 19
35 33 29 27 23 22 19 22 21 22 19 20 20 20 19 19 19 19 19 19 21 22 25 26 24 23 23 22 21 19 20 20 20 21 22 23 25 25 24 23 23 23 23 21 18 17 14 13 15 17 15 16 17 17
32 27 24 21 19 17 18 16 18 18 18 18 17 17 17 17 15 17 17 17 20 22 24 23 22 21 16 15 15 16 18 21 21 21 21 22 23 24 23 23 23 23 23 22 20 19 16 15 18 17 16 16 15 14
26 22 23 18 16 15 16 14 13 13 11 14 15 14 13 13 14 16 16 18 22 22 21 22 22 19 13 14 15 16 20 22 21 20 20 21 22 20 20 18 19 21 22 21 21 19 16 15 15 15 15 14 13 13
20 19 19 17 15 16 14 12 12 11 11 11 12 10 10 12 11 10 12 15 19 20 18 13 10 13 15 17 13 13 16 22 21 20 20 21 21 22 21 21 21 21 17 18 17 17 15 13 12 11 12 13 16 17
17 17 19 17 16 14 13 12 12 11 10 9 10 11 11 9 9 10 13 16 13 13 15 13 13 12 10 10 15 18 21 21 20 19 20 20 20 21 21 21 21 21 18 16 16 15 13 11 10 10 10 11 12 12
19 19 15 15 14 12 10 9 9 8 8 10 10 9 8 7 10 14 14 13 13 13 11 12 15 16 15 13 15 16 16 19 19 18 18 17 18 18 19 19 20 21 20 17 15 14 14 12 11 10 10 10 10 11
18 16 15 14 13 13 12 12 11 11 14 12 9 8 8 11 13 13 10 10 8 8 7 7 9 10 10 11 12 14 16 16 15 11 9 9 10 12 16 18 18 18 19 20 20 19 13 13 12 11 11 12 12 12
18 16 14 13 14 14 15 13 14 12 11 12 13 13 12 11 11 12 12 11 10 10 11 11 11 11 11 11 11 12 12 15 17 15 12 11 12 15 16 16 15 15 15 16 15 16 21 18 18 18 17 15 15 14
16 15 13 13 11 14 12 8 7 9 8 9 6 10 9 9 9 10 10 12 14 14 14 13 14 12 12 12 11 11 11 13 14 15 16 16 15 15 15 15 12 12 13 14 14 13 14 14 14 14 14 13 11 12
13 13 10 5 9 10 6 9 7 9 7 9 8 5 8 9 8 10 10 12 11 10 12 14 13 14 13 12 12 12 15 15 14 14 14 14 15 15 15 12 9 11 12 11 11 10 10 10 10 10 11 10 9 9
9 8 8 10 10 11 9 8 7 8 7 8 8 7 7 8 8 10 7 5 8 8 8 7 6 6 6 6 7 7 10 9 11 16 17 17 18 15 10 10 10 10 10 10 9 9 10 11 10 10 9 9 9 9

GFSWCAN_sfc_30mbdewp_075.txt.gz
Dewpoint
54 53 52 52 51 51 51 50 49 48 46 45 44 44 43 42 42 39 36 37 33 31 30 30 29 25 24 24 22 23 21 29 33 32 31 31 28 26 25 27 28 27 27 27 27 24 20 27 31 28 30 35 36 34
54 53 52 52 52 52 51 51 50 48 47 46 46 45 44 43 42 42 36 38 38 34 32 32 32 32 29 28 29 27 24 27 30 27 26 27 31 27 25 22 28 24 27 27 27 24 26 29 32 32 35 36 36 36
53 53 52 52 52 52 52 51 50 48 47 46 47 46 45 44 43 42 38 38 38 35 33 33 31 33 35 36 36 28 26 27 30 33 29 28 26 30 25 24 26 27 27 25 25 25 26 27 30 33 37 37 37 37
53 53 53 53 52 52 50 49 49 49 48 47 47 48 47 45 45 43 42 40 38 35 28 28 30 28 27 32 34 33 29 29 34 32 28 26 24 30 30 27 25 27 27 26 26 27 29 30 29 30 36 37 36 36
53 53 53 52 51 50 49 49 48 47 48 48 48 48 48 47 46 44 42 40 39 33 28 29 31 30 29 29 29 32 31 30 28 27 26 23 29 30 34 33 27 29 27 25 24 27 27 27 31 31 36 36 36 35
52 52 51 50 49 49 48 47 47 46 46 46 46 47 48 47 43 38 35 33 38 39 32 24 26 27 28 28 28 29 29 30 30 29 26 26 30 29 25 30 30 31 31 29 27 30 32 36 37 37 35 37 37 37
50 49 48 47 46 45 44 44 43 42 42 43 44 45 47 45 40 37 34 32 40 38 30 23 21 24 26 33 30 28 30 29 29 28 27 25 26 31 29 29 31 30 32 32 33 36 35 37 36 37 37 37 36 35
45 44 43 43 42 42 41 41 41 41 41 40 42 44 47 43 41 38 40 39 37 35 31 22 20 21 28 32 27 32 30 31 31 29 29 25 25 27 24 26 24 33 31 33 33 35 34 36 36 35 35 35 34 34
41 41 40 40 39 39 39 39 40 41 44 45 45 43 40 39 36 36 39 40 38 33 25 24 19 14 30 32 32 31 31 26 29 27 25 23 23 26 28 28 32 35 33 31 35 35 35 35 35 35 35 34 34 34
40 40 39 38 38 38 39 40 41 43 43 41 38 36 33 36 39 39 37 33 32 33 31 24 26 23 26 27 27 28 30 26 23 24 27 22 22 26 25 36 34 34 34 34 33 33 33 34 34 34 34 33 33 33
40 40 39 39 39 40 41 40 42 41 39 35 34 32 39 41 37 33 28 26 28 25 26 27 27 24 30 24 25 31 29 29 25 26 26 27 27 32 32 31 31 32 34 33 34 34 34 34 33 33 33 34 34 35
40 40 39 39 40 41 42 42 41 36 34 35 36 39 38 34 30 26 24 26 24 21 24 26 28 30 30 32 29 32 28 30 27 30 27 28 32 31 30 30 31 33 34 34 34 33 33 33 33 34 34 34 34 34
40 40 40 40 40 41 42 43 40 39 38 37 33 31 29 28 23 20 18 21 23 26 28 32 30 33 32 31 31 31 29 28 33 29 28 30 31 30 29 31 33 34 34 34 34 33 33 33 33 32 32 29 29 30
40 39 39 40 40 41 42 43 40 38 34 30 27 23 23 21 22 21 20 21 29 34 33 33 31 31 33 31 31 29 32 32 27 24 26 31 30 30 30 33 33 33 33 33 33 33 33 33 32 32 31 29 26 25
39 39 40 40 41 42 43 42 39 37 32 27 27 19 22 24 23 29 26 30 31 32 32 30 33 33 31 30 31 30 27 24 26 26 29 31 29 29 31 32 32 32 32 32 31 31 31 31 30 29 28 27 28 28
39 39 39 41 42 42 43 40 38 36 33 29 27 23 24 25 24 27 29 29 32 32 33 33 30 29 28 29 27 26 26 24 28 30 31 31 28 29 31 33 33 33 33 30 28 26 25 26 26 26 18 16 23 26
41 41 41 41 42 42 40 37 36 33 30 27 25 28 26 26 25 27 30 30 34 30 28 29 26 27 30 26 25 27 27 30 32 32 30 29 28 30 31 32 33 31 24 22 21 20 19 21 24 19 11 14 20 21
41 42 42 42 42 38 35 34 33 29 26 24 24 23 27 28 27 28 30 32 30 29 31 28 29 26 25 24 24 29 30 31 31 29 28 28 28 27 29 31 29 23 20 20 20 19 18 17 16 13 13 16 17 19
41 43 43 43 38 34 31 30 31 25 23 21 23 25 26 26 28 28 30 31 33 33 29 27 26 26 26 29 30 31 31 31 31 29 28 28 28 26 27 27 25 21 19 18 18 13 14 14 11 13 13 15 14 17
43 43 43 40 35 32 27 26 29 24 21 21 23 24 24 24 25 26 26 28 28 28 27 26 26 28 29 31 31 30 29 28 28 27 27 28 27 25 24 24 24 22 19 18 16 16 13 12 13 13 14 13 15 16
36 38 37 34 31 29 25 24 24 24 24 22 22 23 22 23 23 23 24 28 25 24 24 26 27 28 29 32 33 33 28 28 26 26 27 26 27 26 25 24 22 21 19 18 16 15 18 15 12 12 12 16 16 16
35 36 32 33 27 26 23 24 23 26 24 23 24 24 22 21 21 22 23 22 22 22 25 25 24 25 26 27 25 23 24 25 25 25 26 27 26 25 25 25 23 24 23 22 20 19 18 16 15 14 13 13 17 17
35 33 29 28 24 23 19 24 21 23 19 20 21 20 19 19 18 18 18 19 20 22 23 24 24 23 24 22 21 20 19 18 17 17 19 20 23 24 24 24 23 23 23 23 21 21 20 18 15 16 14 16 16 16
32 28 25 23 23 18 20 18 20 19 18 18 17 17 16 16 14 16 17 16 18 20 22 23 22 22 19 16 12 13 16 19 20 20 20 21 21 22 23 23 23 23 23 23 22 21 20 18 17 17 17 15 15 15
28 23 24 19 17 17 16 16 15 16 16 16 16 15 14 12 15 16 16 17 18 21 21 21 21 21 12 11 13 14 18 20 19 18 19 20 21 21 21 21 21 21 21 21 22 21 21 18 17 16 16 14 13 12
20 19 19 16 15 16 16 15 14 14 13 12 13 10 10 11 10 10 12 15 17 19 19 14 14 15 14 17 12 11 13 20 21 19 18 20 21 21 20 20 20 21 19 20 19 19 19 17 16 14 13 14 16 17
17 17 18 17 16 15 15 14 13 12 10 9 10 11 11 9 8 10 12 13 16 14 15 16 13 11 9 10 15 17 19 20 19 17 19 20 20 21 21 20 19 21 20 18 17 17 16 15 14 13 11 11 11 11
19 18 16 15 16 16 16 11 11 10 9 10 11 9 7 6 9 13 12 12 12 12 10 11 14 14 12 13 15 15 15 16 17 18 17 17 18 18 19 20 21 22 22 19 17 16 15 14 13 12 11 9 9 9
17 16 16 16 15 13 12 11 10 10 12 11 9 7 7 10 11 12 12 12 9 9 7 6 8 8 9 9 10 11 12 13 12 10 9 9 9 10 15 17 17 18 18 19 21 23 18 15 13 12 11 10 10 10
17 16 14 14 14 14 15 12 14 11 11 12 12 13 12 12 11 12 11 10 10 10 10 10 10 10 12 12 12 12 10 12 14 14 12 10 11 13 15 15 15 14 13 14 16 17 22 17 17 15 13 14 14 14
15 14 12 12 11 14 11 7 7 9 9 8 6 10 10 8 9 9 9 10 11 11 12 11 12 11 12 12 11 11 12 12 12 14 15 15 15 14 14 14 13 13 12 13 13 14 17 16 16 16 15 15 13 12
12 12 9 4 10 9 6 8 7 9 7 8 8 4 7 8 7 8 7 8 9 9 12 10 8 9 9 8 8 9 14 14 13 13 13 13 13 14 14 13 11 10 11 12 12 12 11 11 11 10 10 10 10 9
9 8 8 10 9 10 8 7 7 8 7 8 8 6 6 7 7 9 6 4 7 7 6 5 4 4 5 5 5 6 8 7 7 14 17 19 19 17 11 8 9 10 10 9 9 9 9 10 10 10 9 9 9 8

GFSWCAN_sfc_30mbdewp_078.txt.gz
Dewpoint
55 54 53 51 51 50 50 49 48 47 46 45 44 43 42 42 42 36 35 36 32 29 30 29 28 26 26 24 22 24 23 28 29 28 29 28 28 29 25 27 28 27 26 27 27 25 21 27 30 27 28 34 36 36
54 54 52 51 51 50 50 50 49 48 47 46 45 45 44 43 43 39 35 37 37 33 31 32 32 31 30 29 27 28 25 25 27 25 25 25 27 30 27 23 28 25 26 27 26 24 26 29 31 32 33 34 36 36
54 53 52 51 51 51 51 51 50 49 47 45 47 46 45 44 43 41 36 38 38 35 33 32 28 32 35 34 31 29 27 26 28 32 28 26 23 28 26 26 26 27 28 25 27 26 27 28 28 31 34 36 37 37
53 53 52 51 51 51 51 51 51 49 47 46 46 47 46 45 45 44 41 41 38 36 29 27 31 28 28 32 35 33 28 32 33 32 28 26 24 30 27 28 29 27 27 26 25 26 28 29 29 28 32 37 36 36
53 52 52 52 51 51 52 51 50 49 48 47 46 47 48 47 46 45 42 41 39 35 29 28 31 29 29 30 33 34 33 30 29 27 26 22 26 25 29 31 29 29 26 25 24 26 26 26 29 30 33 36 36 35
52 52 52 51 52 51 51 49 48 48 48 48 48 48 48 47 45 41 36 35 39 39 32 24 27 26 26 29 29 29 31 30 30 28 25 25 25 28 25 25 32 31 31 31 27 28 28 34 36 36 33 36 36 36
52 52 52 52 51 50 49 48 47 46 45 44 44 44 46 45 41 37 34 32 40 39 30 24 21 23 25 30 30 29 30 31 29 28 26 25 26 31 26 24 27 31 28 32 33 35 33 36 35 37 37 37 36 35
52 51 50 49 48 47 46 45 43 41 41 41 42 44 46 42 40 37 41 41 39 34 30 22 20 20 25 32 29 33 29 30 30 28 29 26 24 24 19 22 23 22 24 34 32 35 34 36 36 35 35 35 34 34
49 48 47 45 44 43 42 41 41 40 41 41 45 42 40 38 36 37 41 41 39 32 25 24 19 15 27 29 33 31 31 25 30 26 27 27 23 22 21 20 22 26 34 32 34 35 35 35 35 35 35 34 34 34
44 43 42 41 41 41 40 40 42 45 45 42 38 34 32 37 41 40 37 33 32 32 31 23 25 22 27 26 26 27 29 25 22 24 28 25 21 20 20 26 32 34 34 34 33 33 34 34 34 34 34 33 33 33
40 40 40 41 41 41 41 41 43 43 38 35 33 31 38 41 37 31 27 27 28 24 26 25 26 24 30 24 24 30 26 26 23 26 23 24 25 30 30 28 32 32 34 33 34 34 34 34 34 33 33 33 34 35
40 40 40 41 42 41 41 43 42 35 34 34 37 39 37 34 30 25 23 26 24 20 23 24 26 29 29 32 27 30 28 29 23 28 25 25 30 32 31 30 32 33 34 33 33 33 33 33 34 34 34 34 34 34
40 40 41 42 42 42 42 42 38 39 38 35 33 31 29 28 22 20 18 20 21 24 25 31 30 32 32 30 28 29 27 28 31 26 27 30 31 31 31 32 33 34 34 34 33 33 33 33 33 33 31 29 29 28
40 40 40 41 43 43 43 41 40 38 33 29 26 23 23 22 22 21 19 18 24 29 31 30 30 30 32 31 31 27 32 32 26 24 25 30 30 29 30 33 33 33 34 33 33 34 34 33 32 31 29 28 26 26
39 40 41 42 42 43 43 41 39 35 30 26 25 19 22 23 22 26 22 27 29 30 29 30 31 32 31 29 30 30 26 24 25 26 29 31 31 29 31 32 32 32 32 32 32 32 32 32 31 29 25 25 27 27
40 40 40 41 42 43 43 40 37 36 32 28 27 24 23 24 23 24 27 27 31 31 33 32 28 28 28 29 26 25 25 23 28 31 32 31 30 29 31 32 32 33 33 31 28 26 26 26 26 26 17 16 23 24
39 39 41 42 42 43 39 37 36 33 30 28 26 28 25 25 24 24 27 29 33 30 26 28 25 26 30 25 24 26 26 28 31 32 30 29 30 31 32 32 33 34 29 23 21 20 19 21 23 20 13 12 19 20
40 42 40 41 41 39 36 35 34 31 26 26 25 24 26 27 26 28 30 32 30 28 29 28 28 25 24 24 24 28 30 31 32 31 28 28 28 27 28 32 33 31 23 21 20 19 18 16 16 12 12 15 16 18
41 41 42 41 38 35 32 32 32 26 24 22 23 23 26 26 27 28 30 31 31 32 30 27 25 23 25 27 29 31 32 31 31 32 31 28 28 26 27 28 28 25 21 19 19 18 14 14 12 11 12 13 12 15
42 43 43 40 36 32 28 26 29 24 23 23 23 23 24 24 25 26 27 28 28 27 25 24 24 26 27 29 31 31 31 29 28 26 29 30 27 26 25 24 25 25 22 19 17 17 13 13 13 12 13 12 12 12
38 42 42 36 32 30 25 24 24 24 22 22 21 23 22 22 23 22 23 26 25 24 23 25 26 27 28 29 33 33 32 28 26 25 24 24 26 26 26 25 23 22 21 20 18 18 19 17 14 12 11 14 15 17
35 36 33 33 28 26 23 24 23 25 22 22 23 22 21 20 20 21 22 23 22 21 24 25 24 25 25 27 28 28 26 24 25 25 26 26 25 23 24 24 24 24 24 23 22 21 20 19 17 16 14 11 16 15
35 33 30 29 25 23 19 24 22 22 19 20 20 19 19 19 17 17 18 17 18 20 22 23 24 23 24 23 22 22 21 20 17 16 17 18 19 21 21 22 23 23 24 24 23 22 22 22 20 19 15 16 14 14
33 28 26 23 23 18 20 18 20 18 18 18 17 16 16 15 13 16 16 16 17 18 20 21 22 23 20 18 21 19 14 17 17 19 19 19 19 20 22 22 23 23 23 23 22 22 21 20 20 18 17 14 14 14
28 23 24 19 18 17 16 16 16 16 16 16 16 16 14 12 15 15 16 17 16 18 20 21 21 22 18 9 12 13 17 18 17 14 17 19 19 19 19 20 21 21 21 21 21 21 21 19 19 18 16 15 14 14
20 19 19 17 16 16 15 15 14 15 15 15 15 10 10 11 10 10 12 14 16 19 19 16 16 16 17 16 11 10 11 18 20 16 15 18 19 18 16 16 15 16 20 21 20 20 20 19 18 17 16 16 18 17
18 17 18 17 16 15 15 15 15 15 15 13 11 11 11 10 9 10 12 13 14 16 17 18 16 15 14 13 14 17 18 20 17 15 18 19 19 20 20 17 15 18 20 20 19 18 18 17 16 15 14 13 12 12
17 17 16 15 16 16 16 16 16 15 12 11 11 10 8 7 6 13 11 14 13 11 11 11 12 15 14 12 14 14 14 14 15 16 14 14 15 17 18 20 21 22 22 21 20 18 17 17 16 15 13 11 10 9
17 16 17 16 16 17 17 13 10 11 12 12 9 8 7 10 11 12 13 12 9 9 10 9 10 8 9 9 9 10 10 11 11 9 9 10 10 12 13 15 16 17 17 17 19 22 21 20 17 15 13 11 10 8
16 16 16 17 16 14 14 13 13 11 12 12 12 12 12 12 12 11 11 10 9 9 10 10 10 11 11 11 11 11 10 10 12 12 11 12 12 12 13 15 15 14 13 14 14 15 22 20 18 13 10 11 12 13
15 14 12 12 12 13 11 8 7 9 9 8 6 9 10 9 9 9 9 9 9 9 10 9 8 8 9 10 10 10 10 10 10 11 12 13 14 14 14 14 13 12 13 13 13 14 17 17 15 15 15 15 14 14
13 13 10 6 10 9 6 8 8 9 7 8 8 5 6 8 7 8 7 6 8 8 10 7 7 7 6 5 4 5 9 10 8 7 7 8 10 12 12 10 10 11 12 12 11 11 12 14 13 13 13 11 9 9
9 9 9 10 9 10 7 6 7 8 7 8 8 5 5 6 6 8 5 3 6 6 7 5 4 4 4 4 4 5 7 5 5 13 15 17 18 18 15 10 8 10 11 10 10 10 10 9 9 9 9 9 9 8

GFSWCAN_sfc_30mbdewp_081.txt.gz
Dewpoint
56 55 54 53 51 50 49 48 47 46 45 44 43 43 43 41 40 35 35 35 31 28 29 28 28 26 25 25 23 25 22 25 25 25 22 24 26 28 27 27 27 27 26 26 27 24 21 27 28 24 27 33 35 36
55 54 53 52 51 50 49 48 48 47 46 45 44 43 43 43 41 38 34 37 37 32 28 32 31 30 30 29 28 30 25 25 25 21 22 21 23 26 27 25 30 27 26 26 26 24 26 29 28 31 33 33 35 36
55 54 53 52 51 50 49 49 48 48 47 46 46 45 44 43 43 38 35 38 37 35 33 30 27 30 35 33 32 29 28 27 28 30 26 25 22 27 23 26 28 32 28 27 27 25 27 27 28 30 32 34 37 37
54 53 52 51 50 50 50 49 49 48 48 47 47 46 46 45 44 40 38 39 38 36 29 26 31 30 30 32 33 32 29 32 32 32 27 25 23 28 24 27 24 27 29 26 26 26 26 28 28 28 29 33 37 37
53 53 52 51 50 50 50 50 49 49 47 45 47 48 47 46 45 44 42 41 40 36 29 30 31 29 28 31 32 33 31 30 30 27 26 23 24 23 24 26 24 28 27 26 25 26 26 25 27 30 30 33 37 36
53 52 51 51 50 50 50 50 50 49 46 45 46 47 47 47 45 42 36 35 41 38 32 25 28 27 25 28 29 32 33 32 31 28 26 25 25 21 19 23 26 30 30 29 28 30 29 29 36 35 32 34 36 36
52 51 51 51 51 51 50 50 49 48 48 47 47 47 46 47 42 36 31 32 39 37 30 24 22 24 25 27 29 29 32 31 30 29 27 25 25 25 23 19 22 28 28 27 31 33 33 34 34 36 36 37 36 35
51 51 51 51 51 51 50 49 48 47 46 46 45 47 45 42 40 38 41 40 37 33 29 22 20 19 25 29 29 31 29 30 30 27 29 26 25 25 19 21 22 21 22 23 30 34 35 35 36 35 35 35 34 34
51 51 51 51 50 49 47 46 44 43 42 45 45 43 40 38 36 37 41 39 39 31 24 23 19 16 26 26 32 31 31 24 26 25 25 27 24 20 20 21 21 21 22 32 35 35 35 35 35 35 34 34 34 34
51 50 50 49 47 45 44 42 40 42 46 42 38 34 33 37 41 41 37 33 32 32 30 22 25 21 26 26 26 26 29 25 21 24 29 25 22 23 23 22 24 26 33 34 34 33 34 34 34 34 34 33 33 33
48 48 46 44 43 41 40 42 44 44 39 35 32 32 38 41 35 31 27 25 27 23 26 24 24 23 28 25 24 27 26 25 21 23 23 22 22 31 32 30 30 31 33 33 34 34 34 34 34 33 33 33 34 34
44 43 41 40 40 42 44 44 41 36 35 34 36 38 37 32 29 24 23 26 23 19 23 23 24 28 29 31 27 27 27 28 22 28 24 21 30 31 31 31 33 33 33 33 33 33 34 34 34 34 34 34 34 33
40 39 40 41 42 43 43 40 38 39 36 34 32 30 28 28 21 19 17 19 20 23 24 27 29 32 32 31 28 28 26 26 29 24 23 29 31 31 31 31 33 34 34 33 33 33 33 32 32 32 30 29 28 26
40 41 41 41 43 43 40 40 39 37 32 28 25 21 21 20 22 21 18 18 22 27 30 31 29 28 32 29 30 25 30 31 26 23 25 29 31 31 31 32 32 33 34 34 34 34 34 33 31 30 29 28 28 27
41 42 42 43 42 41 41 39 38 34 29 26 24 17 22 22 22 24 21 26 30 30 29 28 30 31 30 29 30 29 26 23 25 25 28 31 31 30 30 32 31 32 32 32 33 32 32 32 31 28 21 24 26 26
41 41 41 43 42 41 40 38 37 35 31 27 25 21 23 23 22 24 27 26 30 29 30 31 28 27 27 28 27 24 24 23 27 30 32 30 29 31 31 31 31 32 32 30 26 26 27 27 26 24 16 16 22 22
39 38 42 44 43 41 38 37 36 32 29 27 26 28 24 24 23 24 25 27 30 28 25 26 24 23 28 25 23 26 26 28 31 32 31 28 28 29 31 32 32 33 32 29 21 19 18 21 22 19 12 11 17 19
36 41 41 43 40 38 36 36 33 31 27 27 25 25 27 26 26 26 29 31 31 27 27 25 29 24 22 22 23 27 31 31 32 32 31 30 28 28 28 32 32 33 31 23 20 20 18 15 14 12 12 14 15 16
39 40 42 40 38 35 33 32 33 26 24 24 24 23 26 26 27 27 29 32 32 32 30 28 24 22 22 25 26 27 31 32 31 32 32 31 28 27 26 27 29 30 27 22 20 19 17 14 13 12 11 12 10 13
39 39 42 40 36 31 28 27 29 24 23 23 23 24 24 24 25 28 29 30 30 28 26 23 23 24 26 27 29 31 32 32 29 26 23 28 29 26 26 26 25 26 25 22 19 19 16 14 13 13 13 12 11 10
40 41 40 35 32 27 24 24 25 23 21 22 21 23 22 23 23 24 25 28 26 24 22 24 24 26 27 28 31 32 33 31 29 26 23 23 25 26 26 26 24 24 23 22 21 20 21 19 18 14 12 14 15 14
36 37 33 34 28 25 23 24 23 24 21 21 22 20 20 20 20 20 21 23 23 21 22 23 23 25 26 26 26 28 31 30 26 25 26 25 23 20 20 22 23 24 24 25 24 23 22 22 20 18 17 15 15 15
35 33 31 30 24 22 20 24 21 20 19 19 20 19 19 19 18 17 17 17 18 19 21 22 24 22 24 23 23 23 23 22 22 21 17 16 17 19 20 21 21 21 22 23 23 23 24 23 23 23 19 17 15 13
33 29 26 24 22 18 21 18 20 18 18 18 17 16 16 15 13 14 15 15 16 17 19 20 21 23 22 20 23 23 22 19 16 15 17 18 17 17 20 21 22 22 23 23 23 23 22 22 22 21 20 17 15 14
29 23 24 19 19 17 16 16 15 16 17 15 15 16 14 11 15 14 15 16 15 16 17 19 20 21 22 14 11 13 15 16 15 12 15 18 17 17 15 16 18 18 21 21 21 21 21 20 20 20 19 18 17 15
20 19 20 18 17 17 15 15 15 15 14 15 15 9 9 12 11 11 12 14 16 18 19 17 16 17 18 19 12 9 10 16 18 15 13 16 16 15 12 12 11 12 20 21 21 21 21 20 19 18 18 18 20 19
18 18 18 17 16 14 14 15 14 14 15 15 12 10 10 9 9 10 13 13 13 16 16 18 18 17 16 16 15 16 17 17 17 13 15 17 18 18 18 14 12 15 19 20 20 19 19 18 17 16 15 14 13 14
16 17 16 15 15 15 15 15 15 16 15 12 11 10 9 9 5 11 11 14 14 12 10 10 11 12 14 14 13 14 14 13 14 14 13 13 13 15 16 18 19 21 21 20 20 19 19 18 18 17 16 16 14 10
17 16 16 16 16 16 17 16 16 15 13 12 10 9 9 11 11 12 13 11 8 10 9 9 10 9 9 8 9 9 10 11 11 9 8 8 9 11 11 12 14 16 16 17 19 21 21 20 19 18 16 14 11 7
15 15 16 16 17 16 14 12 12 11 12 12 12 12 12 12 13 10 10 9 9 9 10 10 9 9 9 8 9 9 9 9 10 11 10 10 11 11 11 12 13 13 12 13 14 14 18 21 20 13 10 10 10 11
14 13 12 14 13 12 10 8 8 9 9 9 7 9 10 9 9 9 9 8 8 8 9 10 9 6 8 8 7 7 7 8 9 9 9 10 10 10 10 11 12 12 12 12 13 13 16 18 16 15 13 13 13 14
14 14 11 8 12 9 6 8 8 9 7 8 8 6 7 8 6 9 7 5 8 11 11 6 6 6 5 5 4 4 9 8 7 6 6 7 8 9 10 11 10 9 11 12 12 12 12 14 14 15 14 13 12 10
9 8 8 9 10 11 8 7 8 8 8 8 8 5 5 6 4 7 5 3 6 7 6 6 5 5 5 4 4 4 7 5 4 12 14 16 17 18 19 13 10 9 10 10 10 9 10 11 11 10 10 9 8 8

GFSWCAN_sfc_30mbdewp_084.txt.gz
Dewpoint
47 47 47 54 52 51 50 48 47 46 45 44 43 42 41 39 39 36 35 36 31 27 27 27 28 26 26 26 23 25 23 25 24 24 23 22 24 27 28 29 29 28 27 26 26 24 20 27 29 24 25 33 34 36
47 46 46 54 52 51 49 48 47 46 45 44 44 43 41 41 40 38 35 37 37 32 29 31 30 30 30 30 27 29 25 24 25 21 22 21 19 23 25 21 30 28 29 25 26 22 27 28 26 28 32 32 34 37
46 46 51 53 52 50 49 48 47 46 45 45 44 43 43 41 40 37 36 38 38 33 32 30 29 30 35 33 32 26 28 28 28 30 25 23 22 24 19 25 26 32 33 29 28 25 28 28 28 32 32 33 35 38
46 46 51 52 51 50 49 48 47 47 46 45 44 44 44 43 40 39 38 40 39 34 26 27 31 31 30 32 33 32 30 31 31 31 26 23 20 26 22 24 24 25 28 32 27 27 27 27 29 28 29 30 33 37
46 46 50 52 51 50 49 48 48 47 47 46 46 45 45 45 42 43 42 41 41 36 26 30 30 29 28 31 32 32 32 29 30 27 25 22 23 22 21 21 17 17 21 26 26 29 27 27 30 30 30 31 33 37
45 46 52 51 50 50 49 48 48 47 47 47 47 47 47 46 44 42 36 38 41 39 31 25 30 27 25 28 32 32 32 32 32 28 25 26 26 23 18 17 17 20 21 23 25 30 30 31 31 36 33 32 37 36
46 47 51 50 50 50 49 49 48 47 47 48 48 48 47 47 42 36 31 35 40 38 30 26 24 25 25 28 30 30 32 32 32 28 27 24 23 25 23 16 15 21 30 23 22 28 33 34 34 37 36 37 37 36
47 50 51 50 50 49 49 48 47 46 46 47 47 47 45 42 41 37 41 39 37 32 29 23 22 21 25 28 29 31 30 30 30 26 28 25 25 26 20 19 19 19 21 22 19 23 34 34 36 36 36 36 35 34
47 51 50 50 50 49 49 48 48 48 47 46 44 42 39 38 36 38 40 39 38 31 25 23 20 20 27 27 31 31 31 24 27 24 24 25 21 21 21 24 22 20 20 20 31 34 36 35 35 35 35 35 35 34
51 50 50 50 50 49 49 48 47 47 44 40 36 35 32 37 42 40 37 32 32 30 29 23 25 22 26 27 27 26 29 24 22 23 29 24 21 22 27 32 32 29 23 29 27 28 34 34 34 35 35 34 35 34
50 50 50 50 49 48 46 46 45 42 36 35 33 32 39 42 35 31 26 24 25 23 26 25 24 23 28 26 26 27 27 26 21 23 24 22 22 30 32 32 33 33 30 30 32 34 34 34 34 34 33 33 34 34
50 49 48 47 46 45 44 42 39 36 34 34 37 39 37 31 28 24 23 25 23 20 25 24 25 27 29 31 26 27 26 28 22 28 24 21 29 32 31 31 33 34 33 33 34 34 34 34 34 34 34 34 34 33
47 46 45 44 44 43 41 38 38 39 37 36 32 31 27 28 21 19 16 21 21 24 25 26 28 31 32 31 27 27 25 24 30 25 22 27 32 32 31 31 32 35 35 34 33 33 33 32 32 32 31 30 28 26
45 44 43 42 42 41 38 40 38 36 33 29 26 21 20 20 21 21 20 21 24 26 27 31 28 28 31 28 28 26 26 31 26 23 25 30 31 30 31 32 32 32 34 34 34 34 33 32 31 31 30 29 28 26
43 43 42 41 40 40 39 38 36 34 31 27 26 14 21 22 24 24 23 27 30 32 30 28 29 28 29 28 29 28 26 23 26 25 29 31 31 30 31 32 31 31 32 32 32 32 32 32 31 27 23 24 25 25
41 41 41 41 40 39 39 38 37 35 31 27 23 21 23 23 22 25 24 27 30 29 30 30 26 27 25 28 26 25 24 22 27 30 32 32 29 29 31 31 32 32 31 30 29 28 29 29 27 22 16 17 21 21
40 39 41 41 40 38 38 36 35 31 29 27 26 26 24 23 23 25 27 28 31 29 26 27 23 22 27 25 24 26 26 28 31 32 32 31 28 28 29 32 32 32 31 31 30 20 18 21 22 19 11 11 18 19
39 40 41 40 38 38 36 35 33 30 26 27 25 26 26 26 26 26 27 30 30 28 26 25 28 24 23 21 23 26 31 32 32 32 33 32 29 28 27 30 32 32 32 32 30 23 20 18 14 13 12 14 15 16
40 41 40 39 39 36 33 32 31 25 24 25 24 25 27 27 28 28 31 32 32 32 30 28 24 22 22 25 26 27 29 31 31 31 32 32 31 30 29 28 28 30 31 30 29 24 19 17 15 13 12 12 10 11
43 41 41 37 34 30 28 28 28 25 24 24 24 25 25 25 27 28 31 31 30 28 26 24 23 24 24 26 27 29 32 33 32 29 26 24 30 28 27 27 26 27 28 29 25 22 20 18 15 14 14 13 11 11
41 40 37 34 29 26 25 25 25 23 22 22 22 24 22 24 24 25 26 29 27 25 23 25 24 25 26 28 30 31 32 32 30 29 27 25 25 26 26 26 26 25 24 24 24 23 23 22 20 18 17 16 16 15
36 37 34 33 27 24 23 24 24 23 21 21 22 20 20 20 19 21 21 24 24 24 24 23 23 24 24 25 26 27 30 31 31 29 28 26 24 21 18 20 22 21 23 24 25 24 25 24 23 22 20 19 18 16
35 34 31 29 23 21 20 24 21 20 20 20 20 19 19 19 17 17 18 19 19 20 21 22 23 23 24 23 23 24 24 26 28 27 24 19 16 18 20 20 21 21 21 22 24 24 24 25 24 25 23 21 19 16
33 29 27 23 21 18 21 19 19 18 19 18 18 17 16 16 13 15 16 15 17 17 19 19 20 22 22 22 23 24 24 23 23 20 16 16 16 16 18 19 19 20 21 22 23 23 23 23 24 23 23 21 20 19
29 23 22 19 18 17 17 17 16 16 17 15 15 15 13 11 15 15 15 16 16 16 17 18 20 21 22 22 17 13 16 21 19 13 14 17 16 15 14 13 14 15 18 19 19 21 22 22 22 21 21 21 21 20
20 19 20 18 17 17 16 16 15 16 15 15 14 9 9 13 13 13 13 15 16 17 19 19 20 20 20 21 16 10 12 16 17 14 14 15 15 14 12 11 11 13 18 20 21 21 21 21 20 20 20 20 21 22
18 18 18 17 16 14 15 14 14 15 15 16 13 11 11 10 9 10 12 14 14 16 17 19 20 18 18 17 17 16 17 17 17 15 15 16 17 18 18 16 15 16 19 19 20 20 20 19 18 18 18 17 16 16
16 17 17 15 15 14 15 14 15 16 15 12 11 11 9 9 7 11 12 14 14 12 11 11 11 13 13 14 15 14 14 13 14 14 13 13 13 14 14 16 16 18 20 21 20 20 20 20 19 19 18 17 17 16
17 16 16 16 16 16 16 16 16 15 14 12 10 9 10 12 12 12 13 12 9 10 10 10 11 10 10 10 9 10 10 11 11 9 9 10 10 11 11 12 13 13 14 15 18 20 20 20 20 19 19 18 16 12
16 14 16 14 17 17 15 13 12 11 12 12 12 12 12 13 13 9 10 10 10 10 10 9 9 10 11 11 10 9 8 8 10 11 11 11 11 11 11 11 11 11 11 13 13 14 16 19 21 17 14 12 11 11
13 13 15 15 15 12 9 7 8 9 9 9 7 10 10 9 9 9 8 7 8 8 10 8 7 5 7 7 7 7 7 7 8 7 7 8 8 9 9 10 10 11 11 11 12 13 14 16 17 16 15 13 11 13
13 12 9 8 11 8 5 8 8 10 8 9 9 6 7 8 6 9 8 7 9 12 10 7 6 8 6 6 5 5 9 9 7 6 6 7 8 9 10 11 12 11 11 11 12 12 12 13 15 14 15 14 13 12
8 7 8 10 11 10 8 7 7 7 7 8 8 6 7 6 4 7 5 3 8 9 8 7 6 5 5 4 4 4 7 5 5 11 13 14 16 18 20 20 15 13 12 11 11 10 10 10 11 11 12 12 11 9

GFSWCAN_sfc_30mbdewp_087.txt.gz
Dewpoint
41 44 44 46 48 53 51 50 48 47 46 44 43 42 41 40 38 37 36 38 33 23 27 27 27 25 25 24 21 25 24 26 24 23 22 23 22 23 24 25 28 27 27 27 28 25 19 26 28 23 26 32 31 34
40 43 44 46 48 50 50 49 47 46 46 44 43 42 40 40 38 39 34 37 36 31 30 29 29 30 29 28 26 26 26 23 25 23 24 23 20 22 23 18 29 25 30 30 26 23 27 28 26 29 27 28 31 36
40 41 43 47 47 47 50 48 47 46 46 44 43 41 41 40 40 39 37 39 36 33 31 30 30 31 33 32 31 26 27 27 26 29 26 23 21 22 16 18 25 30 34 31 28 25 26 28 28 28 30 30 32 34
40 41 44 46 48 51 50 48 46 46 45 44 42 42 42 41 40 41 40 40 37 33 26 28 31 31 31 32 33 31 30 29 29 29 26 23 21 25 20 20 22 19 27 31 31 30 29 27 29 30 30 29 30 32
40 42 46 47 49 50 49 47 46 46 46 45 44 44 42 43 42 42 42 41 41 37 25 28 30 28 28 30 30 32 31 28 29 27 25 23 23 23 22 21 19 18 17 17 19 31 32 29 31 32 32 31 31 32
41 43 47 47 49 49 48 47 47 46 46 46 45 44 44 43 44 41 36 40 41 39 33 26 30 26 25 30 31 31 30 29 30 28 26 25 24 23 20 18 18 17 18 18 17 25 26 31 33 35 36 35 34 37
41 43 46 47 50 49 48 47 46 46 47 46 46 46 44 44 40 37 33 38 40 38 31 28 26 25 25 30 30 30 31 32 31 29 26 24 24 25 24 18 18 18 19 19 27 28 23 33 34 34 36 37 37 37
42 44 46 48 49 48 48 47 47 47 47 47 47 47 43 40 40 37 39 38 36 32 30 27 25 23 26 29 29 32 30 31 30 27 28 24 25 26 21 21 22 25 23 19 22 25 30 26 36 35 36 36 36 35
43 45 46 50 49 48 48 47 47 47 47 47 45 42 41 39 36 38 39 39 38 33 27 26 25 24 26 28 29 31 31 25 29 25 24 26 22 22 22 23 28 30 30 22 23 31 33 35 37 36 36 36 36 35
44 46 47 49 48 48 47 47 47 47 45 43 38 34 33 38 41 40 36 31 31 30 29 24 25 24 27 27 26 26 29 26 23 23 28 24 22 23 25 34 32 33 31 31 23 26 24 27 35 35 35 35 35 35
45 46 49 49 48 47 47 47 46 44 39 35 33 33 39 41 35 31 27 25 25 24 26 25 25 25 28 25 25 27 27 26 21 24 24 22 23 28 34 32 33 34 33 29 27 28 31 33 34 34 34 34 34 34
46 48 49 48 47 47 47 45 42 39 37 37 37 38 37 32 28 25 24 25 24 22 25 25 25 28 29 31 26 26 25 27 21 28 24 22 27 32 31 32 33 34 34 33 34 34 35 35 36 36 35 34 34 34
48 49 48 47 47 47 44 42 39 39 37 37 33 30 28 28 21 19 17 21 22 24 26 27 27 29 31 31 26 26 24 24 30 25 23 25 31 31 31 32 32 34 35 35 35 35 34 34 34 34 33 32 28 27
49 48 48 47 45 43 41 39 38 37 35 29 27 24 25 22 22 22 21 24 27 28 28 30 29 29 31 28 28 26 26 30 25 24 24 30 30 31 31 32 32 32 33 34 34 34 33 33 32 32 32 32 29 27
47 47 45 43 42 41 39 37 36 36 32 28 27 25 24 26 27 27 28 28 29 31 30 28 28 27 28 26 28 28 25 23 24 24 30 32 32 30 31 32 31 31 31 31 32 32 32 32 30 23 20 23 24 24
45 43 41 41 40 39 38 37 37 34 31 28 26 23 26 26 24 26 29 30 32 31 31 29 26 25 23 25 25 23 23 22 28 31 33 32 31 29 30 32 32 32 31 30 29 28 27 28 26 21 16 16 19 20
40 39 41 40 39 39 38 36 34 31 30 28 26 28 27 27 26 26 29 28 30 29 26 26 23 22 28 24 24 26 26 31 33 32 33 33 32 29 29 31 32 32 32 31 31 30 23 19 22 19 14 11 16 17
38 40 38 37 36 37 36 35 32 31 27 28 26 27 26 26 26 27 28 31 30 29 28 26 27 24 23 22 24 28 32 33 33 33 34 34 32 30 28 29 33 32 32 32 32 31 24 21 18 15 14 14 15 16
38 38 39 39 37 35 32 32 32 26 25 27 27 28 28 28 29 29 29 31 33 33 30 28 24 23 23 25 28 32 33 32 31 32 33 32 33 32 30 30 29 30 32 32 32 31 31 27 20 16 14 14 13 11
39 39 38 37 37 32 29 29 30 27 26 26 27 26 26 27 28 31 31 32 31 29 27 25 24 24 23 26 30 30 32 33 33 32 30 27 28 31 28 27 27 27 27 27 29 30 28 24 20 17 16 15 13 13
38 38 36 33 29 28 28 28 25 25 25 23 26 25 24 26 27 28 28 31 29 27 25 26 25 25 27 29 31 32 32 32 32 30 28 28 27 26 27 27 27 25 23 23 23 24 25 25 24 21 19 18 17 16
37 37 34 31 27 26 25 26 25 24 23 23 23 23 22 22 22 24 24 26 25 26 26 25 25 25 26 26 26 28 29 32 33 32 31 29 28 25 21 21 22 23 24 24 25 24 24 25 25 24 23 22 21 19
36 34 31 28 23 22 22 26 23 22 21 21 22 21 21 21 19 20 21 23 24 24 25 24 25 24 25 25 24 25 26 26 27 29 29 27 22 19 20 21 21 22 20 22 25 24 25 26 26 26 25 25 23 21
32 29 26 23 21 20 22 20 20 20 21 20 20 18 18 18 17 17 17 19 21 21 20 21 21 22 23 22 23 24 25 25 25 24 23 20 18 17 18 18 18 19 21 21 21 22 23 24 25 25 25 24 23 22
28 23 23 19 20 19 18 19 18 18 18 17 16 16 15 14 16 16 16 19 20 20 21 21 22 23 25 25 22 17 19 25 25 24 20 18 17 15 15 16 15 14 18 19 19 20 22 24 23 23 23 23 23 23
21 20 20 19 19 18 18 17 17 17 16 16 15 12 12 15 15 15 16 19 21 23 23 22 23 23 21 22 19 15 16 20 20 16 16 16 16 16 16 14 14 17 19 19 20 20 22 23 22 21 21 21 22 23
19 19 18 17 17 16 16 15 15 16 16 16 14 12 13 12 12 13 15 17 20 20 19 21 23 22 21 20 20 19 18 18 20 18 17 18 19 19 19 17 17 19 20 20 20 20 21 21 21 20 19 20 20 19
18 18 17 16 16 16 16 16 16 16 17 15 14 13 12 12 10 14 16 16 16 15 15 13 13 15 15 16 16 15 16 15 15 15 16 16 17 17 16 16 16 17 18 19 20 21 21 21 21 21 20 19 19 19
17 17 17 16 16 16 16 16 17 16 15 15 14 12 11 13 16 16 15 14 13 13 14 14 14 14 15 13 13 13 13 13 12 10 10 11 15 16 14 14 14 14 15 15 16 19 20 20 21 21 21 20 19 17
16 17 16 15 17 17 17 14 15 13 13 14 13 13 13 14 15 12 13 14 14 13 12 13 12 12 11 10 10 11 11 10 11 12 12 12 14 12 11 11 12 12 13 14 14 14 15 18 19 19 19 17 15 14
15 16 16 16 16 13 11 9 10 10 11 12 10 13 13 11 12 11 10 11 11 12 12 10 10 9 9 10 10 10 10 10 9 8 8 9 10 10 10 11 12 13 14 13 13 13 14 14 15 18 18 16 15 15
15 13 12 11 12 10 8 11 12 12 11 12 11 10 10 10 7 12 9 10 13 14 14 11 10 10 10 9 8 8 11 11 9 8 7 8 9 10 12 13 14 15 14 13 13 13 13 12 12 15 16 15 15 13
10 9 10 11 11 10 9 10 9 8 9 10 10 8 8 7 4 9 7 7 12 13 12 11 9 9 8 7 7 7 9 8 8 12 14 15 16 16 18 19 19 18 15 13 13 12 11 11 10 11 12 12 13 12

GFSWCAN_sfc_30mbdewp_090.txt.gz
Dewpoint
40 41 39 44 43 44 48 48 51 50 48 47 46 45 44 45 39 37 36 39 34 28 27 26 25 24 25 24 21 26 26 28 25 23 21 21 20 23 23 23 26 26 25 25 27 25 22 28 28 22 29 31 31 34
39 40 38 44 43 45 47 49 50 48 47 46 45 44 43 41 40 39 31 37 37 33 29 30 31 32 30 29 27 27 25 23 27 26 26 24 22 23 22 20 28 24 30 29 32 28 29 29 28 28 29 28 31 36
39 40 40 41 42 46 46 51 49 48 46 45 44 42 41 40 41 39 37 39 37 33 32 30 30 31 33 32 31 27 27 27 28 29 27 24 20 22 18 20 22 30 33 30 29 28 30 31 29 31 31 30 31 34
39 40 40 41 41 43 47 49 48 46 46 45 43 42 42 41 41 40 39 41 36 33 26 29 31 31 31 33 32 31 29 29 29 29 27 23 21 25 22 22 21 22 21 25 27 27 30 31 31 32 33 33 30 31
39 40 40 40 42 45 47 50 48 46 45 44 43 43 42 43 43 42 42 42 41 35 27 28 29 28 28 29 31 32 30 28 28 28 26 24 24 23 23 22 20 20 18 17 18 22 29 31 25 33 35 36 34 32
38 39 39 40 43 46 47 49 47 45 45 44 44 44 44 43 43 40 30 39 40 40 31 26 29 26 28 31 30 31 29 29 29 29 27 26 24 23 22 20 20 19 18 21 22 27 26 25 30 34 35 36 37 36
36 39 38 42 45 47 49 47 46 45 45 45 45 44 42 41 41 36 34 38 39 38 31 27 25 24 26 30 30 29 29 32 32 30 27 24 25 25 24 20 19 20 24 29 26 20 26 24 27 28 36 36 36 36
38 38 39 43 46 49 48 47 46 45 45 45 44 43 42 41 40 37 39 38 37 32 32 27 24 23 27 28 29 32 31 31 30 29 29 25 25 27 21 21 22 25 33 32 30 21 24 30 34 36 37 36 36 35
39 39 40 43 46 48 47 46 46 45 46 44 43 42 40 38 36 37 39 39 37 34 26 28 20 24 27 28 31 30 30 25 30 26 25 27 23 22 22 23 31 33 32 33 31 30 27 31 34 37 36 36 36 35
40 41 42 45 48 47 47 46 45 46 44 43 39 35 33 37 39 39 34 31 30 31 30 26 27 23 28 26 27 28 29 27 24 25 27 25 22 23 27 34 34 33 33 31 29 29 26 26 30 34 35 35 35 35
40 42 44 46 47 47 46 46 46 45 42 37 35 33 38 40 35 32 28 25 26 24 27 26 27 24 28 24 25 27 26 27 21 25 24 23 22 28 32 32 31 34 35 31 32 30 32 34 34 35 35 34 34 33
41 43 45 48 47 46 46 46 45 41 38 37 37 38 37 32 29 25 24 26 24 21 25 25 26 29 29 30 25 27 24 26 20 27 24 21 26 31 31 30 31 34 35 34 34 35 35 35 36 37 36 35 34 34
42 45 47 47 46 46 46 45 41 39 37 37 33 30 29 28 25 20 15 20 23 25 27 28 27 29 29 29 25 25 23 23 29 25 21 25 30 31 30 30 31 34 34 35 35 35 35 33 34 34 33 33 32 31
43 45 47 46 46 46 44 41 38 38 35 31 28 23 26 25 25 22 24 25 28 28 28 29 28 29 31 27 26 25 25 29 24 23 22 30 31 31 31 33 32 31 32 33 33 33 32 32 32 32 33 33 30 26
45 47 47 46 45 43 40 39 35 36 33 28 30 25 26 28 28 29 30 29 30 30 30 28 27 25 26 26 27 27 25 22 24 24 29 31 32 30 30 32 32 31 31 31 32 32 32 32 29 23 18 21 23 23
47 47 45 44 42 40 38 36 36 35 32 27 26 24 26 25 24 27 29 29 32 31 30 29 25 23 21 22 23 21 20 20 26 30 32 32 31 30 30 32 32 31 30 29 29 26 24 24 24 22 16 13 17 18
44 42 43 41 40 39 38 35 35 32 30 28 26 29 29 27 25 28 30 29 32 29 25 25 22 21 26 22 22 24 24 29 32 32 32 32 32 30 29 30 32 32 30 30 31 31 30 24 20 18 16 12 12 16
39 41 40 40 38 37 35 35 32 31 26 28 26 27 29 28 28 30 29 30 29 29 28 25 27 24 22 21 23 27 32 32 33 33 33 33 32 30 29 28 32 32 32 31 32 32 31 31 26 20 16 15 14 14
40 40 40 39 37 34 32 31 32 24 25 27 29 29 29 28 29 29 31 32 33 32 29 27 24 22 23 26 28 31 33 32 31 31 33 33 33 31 31 30 29 29 31 31 32 32 32 32 31 30 25 15 14 14
40 39 39 38 36 32 29 29 32 28 25 26 28 27 27 27 30 30 31 31 30 28 26 24 24 25 24 27 30 30 32 33 32 31 31 30 29 31 30 27 26 27 26 26 27 29 30 29 28 28 25 19 15 15
38 37 36 34 32 30 28 28 25 26 26 24 27 25 25 28 27 27 27 31 28 27 25 27 27 26 27 29 30 31 32 33 32 31 28 26 27 26 26 27 26 24 22 21 21 22 24 25 25 24 22 20 19 18
36 37 33 33 29 28 25 26 25 25 24 24 24 24 22 22 24 25 26 27 26 26 27 26 25 26 26 26 26 27 28 30 32 32 31 30 29 27 25 21 20 19 22 22 23 23 24 25 25 25 24 23 23 22
37 35 32 31 26 24 22 26 22 23 21 21 22 20 20 20 20 21 22 24 25 26 25 25 24 24 24 24 24 24 25 26 26 28 29 29 28 25 20 19 20 18 16 17 24 22 22 24 25 25 25 25 24 23
32 28 26 24 22 20 23 20 21 21 22 21 20 18 18 17 18 18 17 19 22 22 20 20 20 21 22 22 21 22 24 25 25 26 26 25 23 18 18 18 18 19 19 20 19 19 20 21 24 24 24 24 24 23
26 23 24 20 21 19 19 19 19 19 17 18 16 15 15 15 16 15 15 18 21 20 21 21 21 22 23 25 23 18 20 25 24 23 24 23 20 17 15 16 16 15 18 16 16 19 19 22 22 22 22 22 22 22
20 20 21 19 19 19 19 18 18 18 17 16 15 12 13 16 15 14 16 18 20 23 22 20 20 22 22 22 20 17 16 20 22 22 20 18 17 15 14 13 13 15 20 19 18 17 17 18 20 21 19 19 20 20
19 19 18 17 17 17 16 16 17 17 16 16 13 13 13 13 13 14 17 18 20 19 18 20 23 23 22 21 19 17 17 18 19 18 16 17 18 19 18 15 15 19 18 17 18 19 19 19 20 20 19 19 19 19
18 18 18 17 16 17 16 16 16 16 17 16 15 14 13 13 12 16 17 16 14 14 14 13 13 14 14 15 14 13 15 13 13 14 15 18 16 15 15 15 15 17 16 15 15 17 19 20 19 19 19 19 19 19
18 18 18 16 17 16 16 16 17 17 15 16 15 14 13 14 16 16 15 14 12 12 14 14 12 15 15 12 13 12 12 12 10 8 9 9 14 14 12 10 10 11 12 12 14 16 16 17 18 19 19 20 19 18
17 19 16 16 16 17 16 14 15 13 13 14 13 13 12 14 15 12 12 13 13 13 13 12 10 11 8 8 8 10 10 9 10 9 7 8 10 10 9 9 10 11 11 12 13 13 15 15 15 15 16 17 17 16
17 17 16 16 15 12 11 10 11 11 11 11 11 12 12 10 11 11 10 11 11 11 11 9 9 8 9 9 9 9 9 9 8 8 8 9 8 8 9 10 10 11 12 12 12 12 12 12 12 12 13 15 15 17
15 13 13 12 12 10 9 11 12 11 10 11 11 10 10 9 6 12 9 10 11 13 14 10 10 10 9 8 8 8 11 10 8 7 7 9 10 10 11 11 12 13 14 13 13 12 11 11 11 10 11 12 14 14
9 9 11 11 11 11 10 9 9 8 9 9 9 7 8 7 3 9 8 8 12 13 12 11 9 8 8 7 7 6 8 6 7 12 14 15 16 17 18 18 16 16 16 15 13 11 10 10 9 9 9 10 10 11

GFSWCAN_sfc_30mbdewp_093.txt.gz
Dewpoint
37 36 38 39 40 42 43 44 48 47 51 50 48 47 47 48 44 31 34 38 33 26 27 28 27 23 24 23 21 25 25 27 26 22 20 21 20 23 23 25 27 24 24 24 24 23 21 28 27 23 28 31 32 34
38 37 39 41 40 43 42 45 47 50 50 49 48 47 47 47 39 33 27 37 36 29 29 32 32 32 30 29 27 27 25 24 27 25 24 23 22 21 21 18 26 23 30 28 30 28 35 36 31 32 31 30 31 37
40 38 39 41 40 39 41 45 47 50 49 47 47 47 47 43 38 34 34 37 35 31 31 30 30 31 32 33 32 25 27 27 28 29 25 23 17 22 18 19 21 29 30 29 27 29 30 34 31 31 34 33 32 33
40 40 40 41 40 40 42 46 51 49 48 47 45 47 45 41 42 38 36 40 35 30 25 28 31 28 29 33 31 30 29 30 29 29 25 23 21 24 22 22 21 22 22 22 25 23 26 32 27 31 34 36 37 35
41 40 40 41 39 41 42 47 49 48 46 46 45 44 44 43 43 41 40 40 41 30 26 28 27 28 30 32 31 29 29 28 29 26 24 23 25 23 23 23 21 21 19 17 18 23 23 24 25 30 31 34 36 37
41 40 40 40 40 41 44 47 48 47 46 46 45 45 45 43 39 32 22 33 40 34 26 24 28 26 30 31 31 29 28 28 30 27 26 27 24 23 21 20 21 20 22 25 22 26 26 25 27 30 34 35 37 37
41 40 41 40 39 40 44 47 48 47 46 45 46 45 43 42 40 35 30 34 39 37 27 24 23 24 30 30 29 29 32 32 31 29 25 25 25 24 23 20 20 22 32 33 33 30 28 24 26 31 34 35 38 36
40 40 40 40 39 41 47 48 46 45 45 45 44 42 41 40 39 34 37 37 36 32 31 25 23 22 28 28 28 32 30 30 29 29 29 25 25 26 22 22 23 29 34 33 33 32 30 26 29 35 37 38 38 36
40 39 39 40 40 44 48 47 46 44 44 43 43 41 38 38 34 35 40 37 35 28 25 22 17 19 26 29 31 31 30 25 30 24 25 25 24 21 21 23 30 33 32 32 32 31 30 27 27 30 36 37 37 35
39 39 40 40 43 47 47 46 45 43 42 40 37 35 33 36 39 39 32 26 27 29 29 26 26 22 27 28 28 28 27 26 22 24 27 24 22 23 26 32 32 33 33 34 31 28 29 27 31 33 34 35 35 37
39 40 41 42 45 46 46 45 43 41 38 36 34 33 37 40 33 31 25 22 24 22 27 26 25 26 29 24 25 28 25 26 20 23 23 23 22 24 32 31 31 32 35 35 34 33 34 34 35 35 36 35 34 33
40 40 42 44 46 45 44 43 41 39 38 37 36 37 37 32 29 24 23 24 22 18 26 25 27 28 29 29 24 26 23 25 18 27 24 19 23 30 30 30 30 32 34 35 35 35 34 34 35 36 35 34 33 32
40 42 43 43 46 45 43 42 40 40 37 37 34 31 30 28 24 21 20 18 21 25 27 28 26 28 29 27 25 25 23 23 29 24 19 22 28 31 30 30 32 34 34 34 35 35 35 33 33 33 33 33 33 32
42 42 43 46 45 43 43 41 38 37 38 33 29 25 26 24 25 25 22 22 28 27 28 28 28 27 29 26 25 22 23 29 22 21 21 25 30 30 30 33 32 31 32 33 33 33 32 32 32 32 32 33 32 28
41 43 46 45 44 43 41 39 40 37 35 32 31 26 26 27 28 30 29 29 29 30 29 27 26 26 26 25 25 26 24 21 22 21 27 30 31 29 30 32 32 31 31 31 32 32 32 32 30 23 18 20 21 22
42 46 44 45 43 41 40 40 39 36 33 30 29 25 26 24 26 28 28 28 31 30 29 26 24 22 22 22 22 20 18 17 20 28 31 31 30 29 29 31 33 31 30 30 29 25 23 21 21 21 18 13 15 16
45 43 45 43 42 41 40 38 35 32 31 28 26 30 29 27 25 29 29 30 31 27 24 23 20 20 23 20 21 21 21 24 31 31 32 32 32 30 29 30 33 33 31 30 30 30 31 29 24 19 16 15 12 14
43 43 42 41 40 39 35 35 32 30 26 28 25 27 30 30 29 30 30 31 28 27 25 23 26 23 21 19 21 24 30 32 32 31 31 31 32 30 28 28 31 32 32 32 31 31 31 30 31 31 23 18 15 15
41 41 41 40 38 35 32 31 30 23 25 27 29 29 29 29 30 31 31 32 32 30 28 25 21 20 22 24 25 30 30 31 30 30 32 33 32 31 30 29 29 30 30 30 31 31 32 32 32 31 31 29 26 18
41 40 40 38 37 32 29 28 32 26 24 26 28 26 27 28 30 31 31 30 29 26 23 21 21 22 24 26 29 30 32 32 31 30 30 31 31 30 30 30 27 26 26 25 24 26 27 27 28 27 28 28 25 21
38 38 37 34 32 29 27 27 25 26 26 24 26 26 25 28 28 28 28 30 26 24 22 25 25 26 26 28 29 30 31 32 31 30 29 27 27 29 28 26 26 24 21 20 20 20 22 22 23 25 24 24 22 21
36 37 33 33 29 27 25 26 25 26 24 24 24 24 23 23 24 25 26 27 26 24 26 25 25 26 26 26 26 27 27 29 30 31 30 29 27 27 27 25 20 16 18 18 20 20 21 23 24 25 25 25 25 24
36 34 32 31 26 24 22 27 23 24 21 21 21 20 20 21 21 21 23 22 23 24 25 25 24 23 24 24 24 24 24 25 25 25 27 29 29 27 26 22 19 16 12 13 21 20 19 22 22 23 24 25 24 24
33 28 26 24 23 19 23 20 22 21 21 21 19 17 18 17 18 18 18 17 20 21 20 20 20 20 21 21 20 21 22 23 23 24 25 27 26 25 22 18 19 18 18 18 18 17 19 19 22 22 22 22 22 22
27 23 25 20 21 20 19 19 19 18 18 19 16 15 15 14 15 15 15 15 20 19 19 20 20 20 21 23 21 17 19 24 23 23 23 23 22 19 16 17 15 16 19 16 15 16 16 16 16 18 20 21 20 20
20 19 20 19 19 18 19 18 18 17 16 15 14 12 12 14 14 14 15 16 18 21 20 19 19 20 21 22 19 17 16 19 22 23 20 19 20 18 12 13 13 14 19 18 17 15 15 16 17 17 18 19 20 20
20 18 17 17 18 17 17 17 18 17 16 15 13 13 14 14 13 14 17 18 19 17 17 19 22 22 20 19 17 16 16 16 18 17 16 16 17 18 17 14 15 17 17 15 14 15 16 17 17 17 17 18 17 18
19 18 18 17 17 17 17 16 16 16 16 15 14 14 13 13 13 15 17 15 13 13 13 12 12 14 15 14 12 11 13 11 12 13 15 14 13 13 11 10 11 15 14 13 14 15 15 15 15 17 18 17 18 17
18 18 19 18 17 16 16 16 16 16 16 16 14 14 14 15 15 15 14 13 11 13 13 11 13 12 11 12 11 9 8 8 6 6 6 6 10 13 9 8 8 9 9 10 14 16 17 17 17 17 17 17 17 18
18 19 16 16 16 16 14 12 14 13 13 14 13 13 12 14 15 11 11 12 11 11 12 9 9 9 8 8 8 9 9 7 9 8 6 6 8 8 7 8 9 9 9 10 11 11 14 14 14 11 11 11 12 14
17 17 16 15 13 11 10 9 11 11 11 10 10 11 11 10 10 11 10 10 10 9 9 7 7 6 9 9 9 9 10 8 7 8 8 8 8 8 9 9 9 9 9 10 11 11 11 11 10 9 9 9 10 13
14 14 13 13 13 10 9 11 11 10 10 11 9 8 9 9 7 11 9 10 11 10 13 9 10 10 8 7 7 7 11 9 8 7 7 8 10 10 11 11 12 12 12 12 12 11 11 10 9 8 8 8 8 9
9 10 10 11 12 11 10 9 8 8 8 8 8 6 7 6 3 8 8 8 12 12 12 11 9 7 7 7 7 6 9 6 7 13 14 15 16 17 18 17 16 15 14 14 13 11 9 8 7 7 6 6 7 8

GFSWCAN_sfc_30mbdewp_096.txt.gz
Dewpoint
40 40 41 39 39 39 41 42 43 43 45 48 51 50 48 49 41 33 36 38 27 26 29 31 29 23 23 22 16 24 22 25 25 21 19 21 20 22 22 23 26 23 23 22 23 22 18 35 31 26 30 30 31 35
39 40 42 41 40 40 41 42 42 42 47 48 51 49 47 48 38 32 33 35 34 30 30 32 32 32 30 28 26 26 23 25 26 23 22 22 21 21 20 15 22 25 28 26 28 23 35 35 34 31 34 33 34 33
40 39 41 42 40 40 42 41 40 41 45 50 50 49 48 48 37 33 35 36 32 30 29 29 29 30 31 32 31 24 27 27 28 28 24 23 17 21 15 18 21 25 29 27 28 27 25 34 37 37 35 33 36 37
40 40 40 41 40 41 41 41 40 43 46 50 49 48 48 46 39 37 35 39 29 30 24 28 30 27 29 32 30 30 29 30 30 27 24 22 21 24 22 22 21 21 22 21 24 22 28 29 26 28 33 34 35 37
41 40 40 41 40 41 41 40 42 43 50 49 48 48 45 42 42 40 40 40 40 27 26 27 27 29 31 30 29 29 29 28 27 23 23 21 24 23 23 23 21 22 20 18 17 23 22 22 24 24 30 33 35 37
41 41 40 41 41 42 40 42 43 50 48 48 47 45 44 41 37 29 25 35 38 33 26 23 27 29 31 30 29 28 29 29 29 26 25 26 25 22 20 19 21 21 24 27 24 28 28 28 28 26 32 34 34 37
42 41 41 41 41 41 41 42 49 48 47 47 46 44 42 41 39 30 25 33 39 33 25 23 22 26 30 29 28 30 32 31 29 28 24 25 24 23 22 19 20 24 30 32 33 34 31 28 26 26 26 35 36 36
42 41 42 41 42 41 41 43 47 47 46 46 45 44 42 39 38 31 37 38 36 32 28 21 22 25 28 25 27 31 29 28 27 28 29 23 25 25 21 22 23 27 33 33 32 32 32 31 30 30 31 37 38 37
41 41 41 41 41 41 41 44 46 46 46 44 43 41 38 37 33 33 39 35 34 27 21 20 16 16 26 31 30 30 30 23 29 23 25 23 22 21 21 21 27 30 32 32 32 31 29 29 27 29 32 35 37 38
41 41 41 41 41 42 43 47 46 44 43 41 38 34 30 35 40 38 29 21 24 27 28 22 25 23 27 28 26 25 27 26 20 23 27 23 21 24 24 28 31 31 33 34 31 29 29 30 32 33 34 36 36 38
41 41 41 40 41 43 46 44 43 42 40 36 34 32 37 41 33 29 21 17 22 18 26 26 24 25 28 24 24 27 23 25 18 23 21 22 21 23 30 30 31 31 32 34 35 35 33 34 34 35 36 35 34 34
41 40 40 40 43 46 44 43 42 39 37 36 36 38 37 32 28 22 20 24 20 13 25 25 26 28 29 29 24 26 22 23 18 26 23 19 21 26 30 30 30 31 33 34 35 35 35 34 34 34 35 34 34 34
40 40 41 41 42 45 43 41 40 40 37 37 34 31 29 27 22 19 20 19 18 25 27 28 26 28 28 26 25 24 23 20 27 23 19 20 23 30 30 30 32 34 34 34 35 35 35 34 34 33 33 33 33 33
41 39 41 45 45 43 42 41 39 38 37 34 30 26 25 21 23 23 23 19 24 27 27 27 27 26 27 24 23 21 23 26 22 18 19 22 26 30 30 32 33 31 32 32 33 33 33 32 32 32 32 32 32 30
41 41 42 44 43 43 42 41 41 39 36 32 27 22 25 27 28 29 29 28 29 29 28 26 26 26 25 23 25 25 24 20 19 18 21 27 29 29 30 31 32 30 30 31 32 32 32 32 31 29 19 18 20 24
41 42 44 44 43 42 43 41 39 36 33 30 27 25 27 26 27 28 28 28 29 28 27 25 23 21 21 22 22 20 18 16 18 23 29 30 29 28 29 31 33 32 30 29 30 26 23 20 19 20 20 16 13 15
42 42 44 43 43 42 41 38 35 32 30 26 26 28 27 27 27 29 29 28 30 25 21 22 18 18 22 20 19 20 18 20 26 29 30 31 30 29 28 30 32 33 31 30 29 29 29 30 30 27 21 17 15 13
40 43 43 43 41 37 35 34 32 29 25 27 26 28 29 30 30 30 31 31 27 26 24 21 24 22 20 18 19 22 27 31 31 30 31 31 31 30 28 28 31 32 33 32 31 31 31 31 30 31 32 31 28 25
42 42 43 41 38 35 32 30 29 23 25 28 29 29 30 30 31 31 31 31 30 28 26 23 20 19 20 22 21 26 29 31 31 31 31 31 31 30 29 28 29 30 30 30 30 30 30 31 31 31 31 30 29 29
42 42 42 39 37 32 28 28 30 26 24 26 28 27 28 28 31 31 30 29 27 24 22 19 18 20 22 25 26 30 31 31 29 29 30 31 31 30 29 29 29 27 26 25 24 25 25 25 25 26 26 26 27 26
39 38 37 34 32 29 27 26 25 26 26 24 26 26 26 28 29 29 29 29 25 23 21 23 24 25 26 28 29 30 31 31 30 29 28 28 28 29 29 28 26 25 21 18 18 18 21 21 22 23 24 24 24 23
36 36 33 33 28 27 25 27 25 26 24 24 24 26 24 24 25 25 26 27 26 24 25 25 25 25 26 26 27 27 27 29 29 30 30 29 27 26 26 26 24 18 17 16 17 16 17 19 21 24 24 24 25 25
37 34 32 31 26 25 23 27 23 24 22 21 22 20 21 22 21 23 24 24 23 22 24 24 23 21 24 23 24 24 24 25 25 25 27 29 28 27 26 24 21 16 11 12 18 19 17 21 20 22 23 22 22 23
34 28 26 25 24 20 24 21 23 22 22 21 19 17 17 18 19 19 20 19 19 20 21 22 22 22 21 21 20 20 21 22 22 23 23 25 25 26 25 24 20 18 17 17 18 17 18 16 18 16 18 19 20 20
28 23 25 20 22 21 19 19 19 19 18 18 16 15 15 15 16 17 17 15 17 19 19 18 19 19 19 22 20 17 18 22 22 22 22 22 23 20 17 17 17 17 19 17 16 16 16 15 15 16 16 17 18 19
21 19 21 20 20 20 20 19 19 17 17 16 14 12 13 14 14 14 15 15 18 19 19 19 19 19 21 20 17 16 17 18 22 23 19 18 20 20 17 12 13 15 17 17 15 14 14 14 15 15 15 15 18 18
20 18 17 18 18 18 18 18 18 17 16 15 13 12 14 13 13 14 16 18 18 18 17 17 19 20 20 20 17 15 15 15 17 16 15 15 16 16 15 14 14 16 15 14 12 12 12 13 14 14 14 15 15 16
19 18 17 17 17 17 17 17 17 17 16 14 14 14 14 13 13 15 16 15 14 12 13 12 13 16 15 12 10 11 11 10 12 12 13 12 9 8 8 8 11 15 12 12 14 15 14 14 14 14 14 15 16 16
18 19 20 19 19 18 17 18 16 16 16 15 15 14 14 15 15 14 14 12 11 12 12 11 11 10 10 8 7 6 6 7 8 7 6 6 7 11 7 7 8 8 8 9 13 15 16 16 16 17 17 15 14 14
19 21 19 18 17 16 14 12 14 13 13 14 14 13 13 14 13 11 12 11 10 11 9 9 10 10 10 8 9 9 7 6 8 7 7 7 7 8 7 8 9 9 8 9 10 10 13 13 13 11 10 9 8 8
19 19 17 14 13 11 10 9 11 11 11 10 10 11 11 10 11 11 10 10 9 8 8 9 7 6 9 9 10 10 10 8 7 8 8 8 7 8 9 10 10 9 9 9 9 10 10 10 9 9 8 8 7 8
16 15 14 14 13 10 9 11 10 10 10 10 9 8 9 8 7 10 9 9 10 9 10 7 9 10 7 6 6 6 11 9 8 7 8 9 10 10 11 12 12 11 11 11 11 11 11 10 9 8 7 6 5 5
12 11 11 12 12 11 11 8 7 8 8 8 7 6 6 7 5 8 8 7 10 10 10 9 7 7 7 7 7 6 9 5 7 13 14 15 16 16 16 16 17 16 15 14 13 11 10 8 7 6 5 5 4 5

GFSWCAN_sfc_30mbdewp_099.txt.gz
Dewpoint
40 39 38 40 40 41 41 38 39 42 43 43 48 50 50 49 47 34 35 37 26 28 30 31 29 22 22 22 14 24 21 24 24 20 20 20 20 22 21 23 23 22 21 20 21 19 15 35 31 25 31 33 34 35
41 40 39 40 40 40 42 39 40 43 43 42 47 51 50 49 40 36 29 35 34 30 30 31 31 31 31 28 25 26 20 24 24 21 21 21 20 21 20 16 23 23 26 25 23 21 33 35 32 32 34 33 33 35
41 41 40 40 40 40 41 39 41 43 42 42 45 51 49 48 44 35 32 34 32 29 29 29 29 29 30 31 32 23 26 28 28 26 23 22 19 21 16 16 20 22 29 28 27 26 26 31 36 35 35 36 36 35
41 41 41 40 40 40 41 41 41 42 42 42 46 51 49 49 47 37 33 36 30 29 22 28 28 29 31 31 31 30 29 30 29 26 23 21 19 24 20 21 21 21 23 22 22 22 30 31 25 24 25 32 34 36
42 42 42 41 40 41 42 41 42 42 42 44 47 50 48 48 42 40 40 40 35 27 25 25 27 29 31 29 29 30 29 27 24 22 21 20 24 22 22 22 21 22 20 18 16 21 22 23 23 28 28 27 34 35
42 42 42 42 40 40 42 42 43 43 42 43 50 49 47 42 38 32 28 36 34 31 25 21 27 30 29 30 30 30 30 29 27 25 24 25 25 22 19 18 20 22 22 25 24 29 31 31 30 30 28 29 30 34
42 42 42 42 40 41 42 42 43 43 44 50 49 48 44 39 36 31 29 33 36 32 24 22 24 28 30 28 29 29 31 29 27 27 24 24 23 22 21 18 20 23 29 31 32 32 30 30 28 31 30 29 33 37
42 42 42 42 41 42 42 42 42 44 49 47 45 43 41 39 37 33 37 39 35 28 25 19 22 26 29 26 26 31 26 27 26 27 28 23 25 24 20 22 22 23 30 31 32 33 29 31 31 29 29 32 35 37
43 42 42 42 42 42 42 42 47 47 45 44 42 40 39 37 32 33 38 34 33 26 18 19 18 18 27 30 28 30 28 21 28 22 24 23 21 20 20 21 22 28 29 30 32 32 29 29 29 31 33 34 35 36
43 42 42 42 42 42 43 42 46 44 43 42 39 35 32 36 40 38 28 23 22 27 26 19 24 23 28 28 26 24 26 24 20 22 26 23 21 23 23 24 27 30 31 33 32 28 30 29 31 33 35 36 37 36
42 42 42 42 42 42 39 46 44 42 41 37 33 31 38 41 34 30 22 17 20 19 26 24 25 24 27 22 23 24 22 24 18 20 21 20 20 23 27 27 30 31 31 33 35 34 35 33 34 34 35 35 35 35
42 42 42 42 41 39 44 43 41 39 37 36 36 37 37 32 30 23 17 23 18 13 26 24 25 27 28 28 24 27 21 22 17 25 21 18 20 23 29 30 30 30 32 33 35 35 35 35 34 34 34 34 34 34
42 42 42 41 38 41 43 41 39 39 36 37 34 32 31 28 22 18 14 19 17 24 26 27 25 27 26 26 24 24 21 19 26 22 18 19 21 26 29 29 31 33 33 34 34 36 35 34 34 33 32 32 32 32
41 41 42 38 43 43 42 40 39 37 37 33 31 26 25 19 21 20 21 20 23 27 27 27 26 25 26 23 23 19 22 25 21 17 17 20 22 28 29 31 32 30 31 33 33 33 33 33 32 31 31 30 30 29
41 41 39 42 44 42 40 39 39 39 36 31 28 23 24 25 28 27 26 27 28 28 27 26 26 25 24 22 23 23 23 19 19 17 19 23 25 29 30 31 32 30 30 30 31 32 33 32 31 28 22 16 17 20
37 40 37 40 44 42 42 42 40 37 33 29 26 26 27 27 27 27 27 27 29 27 26 24 22 21 21 21 22 20 18 16 17 21 24 27 28 28 29 31 33 31 30 30 30 28 25 20 20 21 19 18 13 14
40 37 42 44 43 43 41 38 36 31 29 26 26 28 27 27 27 28 28 28 28 24 19 21 16 16 22 19 19 20 18 18 19 25 28 29 28 28 28 30 32 33 31 30 30 29 29 29 30 30 29 22 21 16
38 44 43 43 41 38 35 34 31 29 25 27 26 28 29 30 29 29 30 29 25 24 22 18 22 20 18 15 17 20 23 28 28 29 30 30 29 28 28 29 30 32 33 32 31 30 30 31 30 30 31 32 31 29
42 43 42 42 39 35 31 30 30 23 25 27 29 29 30 30 32 31 30 29 28 26 24 22 19 17 18 21 20 21 27 30 30 30 30 30 30 30 28 27 30 30 30 29 29 28 28 29 28 28 27 28 28 29
43 42 42 41 38 32 28 28 31 25 24 26 28 27 28 29 30 29 29 28 26 23 21 18 16 18 21 24 24 29 31 31 30 29 29 30 30 29 28 27 28 29 28 26 25 26 25 23 23 24 25 25 25 25
39 38 37 35 32 29 27 25 25 26 26 24 26 27 27 29 29 28 28 28 25 22 20 22 22 24 25 27 29 30 31 30 29 28 27 28 29 30 29 27 26 26 25 20 17 17 21 19 20 22 23 24 25 25
37 37 33 34 29 27 25 27 25 26 25 24 25 26 25 25 25 26 26 26 25 24 24 24 24 25 27 27 28 28 30 29 29 30 29 28 27 27 28 28 27 26 23 17 16 15 16 19 20 22 22 23 24 24
37 35 33 31 27 25 23 27 24 25 22 21 23 22 21 22 22 23 25 25 24 22 23 24 23 21 25 23 24 24 25 25 25 26 27 28 27 25 26 25 24 23 17 14 16 17 17 20 20 20 19 19 20 20
33 29 27 25 24 20 24 21 24 22 22 21 20 17 18 19 21 21 21 21 21 20 23 23 21 22 21 21 22 21 21 22 22 22 22 23 23 24 25 26 24 21 18 16 18 17 17 16 17 15 15 15 16 16
29 24 25 21 23 21 19 19 20 21 18 18 17 16 16 17 18 18 18 18 16 20 20 19 20 21 22 19 20 17 18 21 21 21 21 22 23 20 19 18 18 18 18 17 16 16 15 14 14 14 14 14 15 17
21 20 22 21 21 21 20 19 19 18 18 17 15 13 14 15 16 15 16 15 17 18 18 19 19 19 21 17 15 16 18 18 21 22 18 17 20 21 21 18 15 16 16 15 15 14 13 12 12 12 12 13 15 15
20 18 17 18 20 20 20 20 21 21 19 18 14 13 14 13 13 14 16 18 19 19 16 17 19 20 19 19 16 15 14 13 17 17 14 14 14 13 14 13 13 15 14 13 11 11 11 12 12 12 12 13 13 14
19 18 17 17 17 18 19 20 20 20 17 15 14 15 13 13 13 16 16 15 14 14 14 14 14 17 17 13 12 11 10 11 11 11 11 10 8 7 7 8 12 15 11 11 13 13 13 13 13 13 13 13 14 13
18 19 20 19 19 19 18 20 19 17 16 15 15 14 14 15 15 14 13 12 11 14 16 15 10 8 7 7 6 6 10 12 10 8 6 6 7 11 7 7 8 8 7 9 13 15 15 15 16 16 16 13 12 10
20 22 20 18 19 17 13 12 14 14 14 14 14 13 13 14 12 10 11 12 12 13 12 11 10 9 8 8 9 9 6 5 6 8 8 8 7 7 7 9 10 9 7 9 10 10 13 13 12 10 9 8 7 6
20 20 17 14 12 11 10 10 11 11 11 10 10 11 11 10 11 10 10 9 8 8 10 9 8 6 8 9 10 10 10 8 7 7 7 7 7 9 9 9 9 9 8 9 9 9 9 9 9 8 7 6 5 6
17 16 16 14 12 11 10 11 10 10 10 10 8 8 9 8 8 10 8 8 8 9 11 9 9 10 6 5 6 8 12 8 8 7 8 9 10 11 11 12 11 11 11 11 11 10 9 9 8 7 5 5 4 4
14 13 11 13 13 12 11 8 8 9 8 8 7 5 5 6 6 9 7 6 9 9 9 8 7 7 7 7 7 8 8 5 7 13 14 15 16 16 16 16 16 15 14 13 11 10 10 8 7 5 4 4 4 4

GFSWCAN_sfc_30mbdewp_102.txt.gz
Dewpoint
37 38 39 40 40 40 40 40 41 42 41 43 44 45 50 49 50 40 34 36 29 28 30 31 30 21 22 22 16 23 21 24 24 19 19 20 19 21 21 22 21 20 19 19 20 18 13 33 30 25 30 32 33 34
37 38 40 40 40 40 40 40 41 43 41 43 43 44 47 50 50 38 29 34 34 30 29 31 30 30 30 28 25 25 17 23 23 19 20 21 20 20 19 15 24 23 23 23 21 20 28 34 31 32 34 34 34 35
40 39 40 42 41 40 40 41 41 42 42 43 43 44 47 51 46 35 31 34 31 29 28 28 28 29 31 31 31 21 25 27 27 25 22 21 18 21 16 17 19 23 29 28 27 26 27 27 36 31 26 29 33 35
41 42 42 42 42 41 40 40 41 42 42 42 43 44 51 50 44 36 32 35 30 28 22 26 29 30 31 31 31 29 28 29 28 25 22 20 16 23 18 19 20 20 25 24 23 22 28 32 24 26 28 29 29 33
42 42 42 42 42 42 41 42 41 43 43 42 43 45 51 48 43 39 39 37 34 24 23 26 28 30 31 30 30 29 28 25 23 21 20 19 23 22 22 22 20 22 21 19 16 21 22 23 25 30 30 30 29 30
42 42 42 42 42 42 42 42 42 43 43 43 43 45 50 47 43 34 29 35 33 29 25 20 28 29 29 29 29 29 29 28 26 24 24 25 25 21 19 17 19 22 22 20 22 29 30 30 31 31 29 30 30 28
42 42 42 42 42 42 43 42 42 43 43 43 44 45 50 48 43 34 31 34 34 30 24 23 25 28 29 28 29 28 29 28 26 26 24 23 24 22 21 18 19 22 27 30 31 31 28 29 27 30 30 30 31 34
42 42 42 42 42 42 43 42 42 43 43 43 44 47 45 43 40 35 36 38 35 26 25 20 23 26 28 26 25 30 25 25 26 26 27 23 25 24 19 21 22 24 29 30 31 32 32 30 29 30 31 33 34 35
43 43 43 43 42 43 43 42 43 43 42 44 46 43 40 37 35 34 37 34 33 26 17 19 17 17 28 28 28 28 26 21 27 22 23 24 21 19 20 21 22 23 27 28 30 32 29 28 29 31 34 35 35 36
43 43 43 44 42 43 42 42 43 41 46 43 40 37 33 37 40 37 30 25 22 27 24 19 25 23 27 27 25 24 26 23 19 21 26 23 21 22 22 23 23 28 30 31 31 29 27 29 29 31 34 35 35 35
44 44 44 43 42 42 42 43 41 45 42 38 33 31 38 41 36 31 23 22 22 21 24 23 24 24 27 21 22 24 22 23 17 19 20 18 19 22 24 23 26 30 31 32 34 34 34 34 33 33 34 35 34 34
44 44 43 42 42 42 40 43 44 41 38 36 37 38 38 35 31 28 21 21 16 11 25 23 24 25 27 27 25 26 21 20 15 23 20 17 19 21 26 27 29 30 31 33 34 35 35 35 34 34 34 33 33 33
42 42 42 42 41 38 45 44 41 40 37 36 34 32 32 29 23 18 13 17 16 25 25 26 25 26 27 25 25 24 20 18 23 21 18 17 20 23 28 29 30 32 33 33 33 36 35 35 34 33 32 33 33 32
42 42 41 41 38 40 45 42 39 36 35 32 30 26 26 21 21 18 18 19 23 27 27 26 25 24 25 22 23 18 21 24 20 17 15 19 21 25 28 30 31 29 30 32 33 34 33 33 32 31 30 27 27 26
41 41 39 37 42 45 43 41 40 39 35 31 28 22 23 24 27 25 26 27 28 28 26 25 24 24 23 22 22 23 21 18 18 16 18 20 23 28 29 31 30 29 30 31 32 32 33 32 30 27 23 18 15 15
40 38 39 41 45 43 42 42 39 36 32 27 26 25 27 26 25 26 26 27 28 26 26 24 21 20 20 21 22 18 17 14 15 20 21 24 25 28 29 31 31 30 30 29 29 29 26 21 21 25 27 19 16 13
38 37 44 43 44 43 41 38 35 31 29 27 26 28 27 27 26 26 27 27 28 23 18 20 15 14 21 19 19 20 17 17 18 20 27 27 28 28 29 30 32 31 30 30 30 29 29 28 28 30 30 30 26 25
36 40 41 43 41 38 34 34 31 29 25 27 26 28 30 29 28 28 28 28 25 23 20 16 21 20 17 13 15 20 21 25 25 27 28 28 28 27 28 30 31 31 32 30 30 30 30 30 30 30 31 31 30 30
41 40 43 41 39 35 31 30 30 24 25 27 29 30 30 31 31 30 29 27 27 25 23 21 17 14 16 19 19 20 27 29 29 29 29 29 28 28 28 28 30 30 30 30 29 28 28 28 28 27 26 26 25 26
43 42 41 39 37 32 28 27 31 25 24 26 28 28 29 29 30 28 27 26 25 23 19 17 14 17 20 23 22 24 29 29 29 29 29 29 29 28 27 27 29 29 28 26 25 26 25 23 22 23 24 24 24 24
39 39 37 35 32 30 27 25 25 26 26 25 27 28 27 29 29 27 26 27 23 21 19 21 21 23 25 26 28 30 30 29 29 28 28 29 29 29 27 26 25 26 26 24 21 17 21 20 19 20 21 22 23 23
37 37 34 34 29 27 25 27 24 26 25 24 25 27 26 25 26 28 26 25 24 24 23 23 23 25 27 28 29 29 29 28 29 29 29 29 28 28 28 27 26 27 26 24 19 15 15 18 19 21 21 21 22 21
37 35 33 31 26 25 22 27 23 25 23 22 24 23 22 23 22 24 25 25 25 24 24 24 22 21 24 23 24 25 26 27 26 26 28 27 26 24 24 25 26 27 25 21 17 16 16 20 19 17 16 15 16 16
33 30 27 25 24 20 24 22 24 23 23 21 20 18 19 20 22 23 22 22 23 20 23 22 22 23 22 22 23 22 21 22 22 22 21 24 25 25 25 26 24 22 19 16 16 18 17 16 17 15 15 14 14 14
30 25 25 21 23 21 20 20 20 21 18 19 18 17 17 18 20 20 19 19 18 19 21 20 21 23 23 21 19 19 18 20 21 21 20 21 22 19 19 19 18 17 17 17 17 17 15 14 13 13 12 12 13 14
22 20 22 21 21 20 20 19 20 19 19 18 16 15 16 17 18 17 17 18 16 19 20 22 22 21 21 18 18 16 19 18 20 21 18 17 20 22 21 20 17 16 14 14 14 13 12 11 11 11 11 12 14 14
20 18 18 20 22 21 20 21 21 21 20 18 15 14 16 19 16 15 16 17 19 18 17 20 21 22 19 16 15 15 14 14 18 16 13 12 11 11 13 13 12 15 13 11 11 11 11 11 12 12 11 11 11 12
19 18 18 18 20 20 20 21 21 22 21 19 18 18 19 17 13 16 16 14 13 13 14 14 15 17 16 13 13 13 11 10 10 9 10 9 7 6 8 10 13 15 10 11 13 12 13 12 12 12 12 12 12 11
18 19 20 19 19 19 19 20 21 18 17 18 20 16 14 15 14 13 13 13 13 15 16 15 10 9 9 7 7 8 12 11 9 7 6 7 7 10 7 8 9 8 8 10 14 16 15 15 15 16 14 12 10 7
20 22 20 19 20 18 14 13 15 15 14 15 15 13 14 14 12 11 12 13 16 16 13 12 9 9 9 8 8 9 6 5 6 8 8 8 7 8 8 9 10 9 7 9 10 9 13 12 11 8 7 6 5 5
21 20 17 15 12 11 11 11 14 15 13 11 11 12 12 11 12 10 10 10 10 10 10 8 7 7 8 9 9 9 9 8 6 7 7 7 8 9 10 10 9 8 8 9 9 9 9 9 8 7 6 4 4 4
17 16 16 14 12 11 12 14 13 12 10 10 8 9 9 10 10 11 9 8 9 10 11 10 9 8 6 5 8 10 11 8 7 7 9 10 11 11 10 11 11 10 11 10 9 8 8 7 6 5 4 3 3 3
14 13 12 13 13 12 12 14 10 10 9 9 8 6 6 7 8 10 7 6 8 9 10 8 7 7 6 7 8 10 8 6 9 13 15 15 16 16 16 15 14 13 12 11 10 9 8 6 5 4 3 3 4 5

GFSWCAN_sfc_30mbdewp_105.txt.gz
Dewpoint
46 44 41 38 38 39 40 40 40 40 40 42 43 43 46 48 45 40 35 36 28 28 29 30 29 21 21 21 15 23 21 23 23 19 18 20 19 21 20 21 20 17 17 18 19 17 11 31 29 25 28 32 33 34
45 42 40 39 39 39 39 40 41 41 41 42 43 43 45 48 44 36 32 35 34 29 29 30 30 30 30 28 24 25 15 23 23 18 19 20 19 20 19 12 23 21 20 20 20 17 22 34 31 32 34 34 34 34
43 40 39 39 39 39 40 41 41 41 41 42 43 42 45 47 49 38 32 34 32 29 27 28 27 29 31 31 31 20 25 26 26 23 21 21 17 20 14 17 19 23 27 27 26 26 28 27 35 32 26 27 28 30
41 39 39 40 40 40 41 41 41 41 41 41 43 41 44 46 51 40 31 35 31 28 21 26 30 29 31 31 31 29 27 28 26 24 20 19 14 22 18 17 18 21 26 25 25 24 24 31 28 26 28 30 30 29
40 40 40 41 41 42 41 41 42 42 41 41 43 43 45 47 46 38 37 36 36 27 23 26 28 30 30 31 29 29 27 25 23 20 19 17 23 22 22 21 20 21 22 20 16 20 20 23 25 30 30 29 29 29
41 42 42 42 43 43 42 42 43 43 43 43 44 44 45 48 41 34 30 34 33 30 24 19 28 28 29 29 29 28 28 27 25 23 23 24 25 21 18 17 18 22 22 20 19 23 27 29 30 30 28 29 29 30
42 42 42 43 42 42 42 42 43 43 43 43 44 44 44 47 39 33 31 34 34 31 23 23 25 28 29 28 28 27 28 27 26 25 24 23 23 22 20 17 18 21 22 28 30 30 28 29 26 28 29 30 31 33
42 42 42 42 42 43 43 42 43 43 43 43 44 44 45 46 40 36 36 37 33 26 25 19 23 26 28 25 24 29 24 24 26 26 26 23 24 23 19 20 21 22 28 30 30 31 31 31 28 30 31 34 35 35
42 42 42 43 43 43 43 43 43 43 43 44 43 42 45 42 37 37 36 34 33 26 18 20 15 16 28 27 28 27 25 19 26 23 23 23 21 18 18 20 21 24 27 27 30 30 32 28 28 30 32 35 35 35
42 43 43 44 44 44 43 43 43 43 43 43 44 38 33 38 40 38 33 26 23 27 23 19 25 22 27 26 25 23 26 22 17 20 25 23 20 22 22 23 22 23 28 30 30 29 28 27 28 30 34 35 35 35
43 43 44 44 43 44 44 43 43 43 41 41 33 32 38 41 36 33 31 30 25 25 22 23 24 23 28 21 21 23 21 22 16 18 20 17 18 21 23 23 24 27 30 31 32 32 32 32 32 31 34 34 34 34
44 44 44 45 44 44 43 43 43 40 39 36 37 39 39 35 32 29 27 24 24 26 23 21 23 25 26 27 24 24 20 20 13 22 20 16 18 20 24 23 27 29 30 31 33 32 34 35 35 34 34 33 33 33
44 44 44 44 44 44 43 42 41 41 40 39 36 33 33 30 26 25 21 18 16 23 24 25 24 26 27 25 25 23 19 16 23 20 17 17 18 23 25 26 28 30 32 33 32 32 34 35 35 34 33 33 33 32
43 43 43 43 43 42 42 41 42 40 39 34 31 27 27 24 24 22 21 17 20 26 26 26 25 23 25 22 23 17 20 22 19 16 11 17 20 25 28 29 31 30 31 32 31 32 33 34 33 32 31 27 22 20
42 42 42 42 42 41 41 42 42 41 37 31 27 24 25 24 25 24 25 26 28 27 26 24 24 23 22 21 21 22 19 17 18 12 17 19 22 27 28 30 30 29 29 31 33 33 33 32 31 28 22 20 18 14
41 39 39 41 40 41 42 43 40 37 31 27 26 24 26 24 24 25 26 26 28 26 25 23 21 19 18 20 20 17 14 10 12 19 20 21 25 28 29 31 30 29 29 29 30 29 27 22 20 23 28 28 20 15
37 37 41 44 43 43 41 38 35 31 29 27 26 28 26 26 25 26 27 27 27 23 16 19 12 12 21 19 18 19 15 14 17 19 23 24 26 28 30 31 30 29 29 29 29 29 28 28 27 27 28 30 30 30
37 40 43 43 40 38 34 34 31 29 25 27 26 27 29 29 27 27 28 27 25 22 20 14 20 18 15 11 14 19 21 23 23 26 26 26 27 28 30 30 30 30 29 30 29 29 29 29 29 29 29 28 27 26
40 42 41 40 38 34 31 30 31 24 25 27 29 30 31 30 30 29 28 27 26 24 22 20 15 12 13 18 16 19 25 28 27 27 27 27 27 28 29 30 30 30 30 29 29 28 28 28 27 27 26 25 24 24
43 41 41 39 36 32 28 27 31 25 24 26 28 28 29 28 29 27 26 26 24 22 19 17 12 15 19 22 21 22 29 29 29 28 28 28 27 26 27 29 30 29 29 28 27 27 25 24 23 23 23 23 23 22
39 39 38 34 32 30 27 26 25 26 26 25 27 28 27 30 28 27 25 27 23 20 17 20 19 22 25 25 28 28 29 29 29 29 28 28 28 27 26 25 27 27 26 25 24 22 23 19 19 20 19 20 21 22
38 39 35 34 29 27 25 26 25 26 24 25 26 27 26 26 27 28 27 26 24 24 23 22 23 25 28 29 29 28 29 28 28 29 30 30 28 27 27 26 25 26 26 25 24 21 15 16 18 20 20 18 19 18
38 35 33 31 26 25 22 27 23 25 24 23 24 23 22 23 24 25 28 27 25 25 24 23 23 23 26 25 27 27 27 28 27 27 27 26 26 25 26 26 26 26 26 25 20 19 16 19 20 18 15 15 14 14
34 30 28 25 24 20 24 22 24 23 23 22 20 18 20 21 23 25 24 23 25 23 23 22 23 23 23 23 26 25 23 23 23 22 23 25 25 25 25 25 23 21 20 17 15 16 17 16 17 14 13 12 11 12
30 25 25 21 23 21 19 20 21 21 19 19 18 17 18 20 21 22 21 21 21 21 22 22 23 25 24 22 20 20 18 21 22 22 20 19 19 19 20 19 18 16 16 17 17 16 15 13 12 11 11 11 12 14
22 20 22 21 21 20 19 19 19 19 19 18 16 16 17 19 19 20 19 20 18 19 21 22 23 22 22 20 21 20 21 18 20 21 19 18 21 23 21 20 18 16 13 14 14 13 11 10 10 10 11 11 14 12
20 18 19 21 21 21 21 21 22 22 20 19 16 16 18 20 21 18 17 17 19 18 20 22 22 23 21 16 15 15 15 15 17 16 13 12 11 11 14 14 13 14 12 10 11 11 11 11 11 11 11 11 11 11
18 18 19 20 20 21 20 21 21 23 22 20 19 20 21 23 18 16 15 13 13 14 15 15 17 18 16 15 15 13 11 10 9 9 10 9 7 8 11 13 14 14 10 11 12 12 12 12 12 12 12 11 11 10
18 20 21 19 20 19 19 21 21 19 19 21 22 21 20 15 13 13 13 13 13 16 16 14 11 12 12 10 10 11 11 12 10 8 6 7 9 10 7 8 8 8 8 11 14 15 14 14 15 14 11 8 6 5
20 22 20 20 20 17 13 13 15 15 16 17 16 14 13 13 11 11 12 14 16 17 16 14 12 13 13 12 12 11 7 6 6 8 8 8 7 8 8 10 10 9 7 9 10 9 14 11 10 7 6 4 3 6
21 19 16 14 12 11 11 13 15 16 15 12 12 13 12 11 11 11 11 12 13 12 12 11 10 11 11 12 11 10 10 8 5 6 7 7 8 10 11 10 9 7 8 9 9 9 9 8 6 5 4 3 3 4
17 16 16 14 12 12 13 15 15 15 14 12 9 10 10 11 11 11 10 10 12 12 13 11 10 8 8 8 9 11 13 8 8 9 11 11 12 11 10 9 8 8 9 9 9 8 7 6 5 4 3 3 3 4
15 14 13 13 12 13 13 15 14 14 14 11 8 7 7 9 11 11 7 8 12 13 13 10 8 8 8 9 9 11 9 8 10 14 16 16 17 16 14 13 11 11 10 10 8 7 6 5 4 3 3 4 5 5

GFSWCAN_sfc_30mbdewp_108.txt.gz
Dewpoint
51 51 49 48 45 42 39 39 40 40 42 41 41 44 44 47 49 43 38 38 32 28 29 30 30 22 22 22 18 24 21 24 23 21 21 20 18 21 20 21 20 17 16 17 18 17 11 24 30 25 29 33 33 34
51 50 49 47 44 41 40 40 40 41 42 42 41 43 44 47 44 38 34 35 35 30 29 30 30 30 30 29 25 26 18 24 24 20 22 23 20 22 20 12 23 19 19 19 19 15 23 33 31 33 34 34 31 30
50 50 48 46 43 40 40 39 40 41 42 42 42 43 43 46 46 38 34 35 33 30 28 28 27 29 31 31 31 23 24 26 26 26 25 24 20 22 16 17 21 24 25 24 26 25 25 28 33 34 29 27 28 29
50 49 47 45 41 40 40 40 40 41 42 42 41 42 43 45 46 38 32 35 31 28 23 26 30 29 31 31 31 29 28 28 27 27 25 23 18 24 19 17 18 21 26 25 26 26 26 27 30 30 27 29 29 29
49 47 46 43 40 40 40 40 41 42 42 42 42 42 44 45 47 40 37 36 35 29 25 26 29 30 30 30 30 30 28 27 27 24 23 21 23 22 22 21 19 22 24 21 16 22 20 26 26 29 29 28 28 29
47 46 43 41 41 41 41 42 42 43 43 43 43 43 45 44 46 40 36 37 37 32 27 23 29 28 29 29 29 29 28 28 27 25 24 25 26 23 20 18 18 21 23 22 19 23 24 28 30 30 27 28 29 30
45 43 41 41 42 43 43 43 43 44 43 44 44 44 45 46 45 40 35 35 34 33 24 24 26 28 29 28 29 28 29 28 28 27 25 24 24 25 23 18 17 20 22 24 26 29 28 29 26 28 29 30 32 34
42 41 42 42 43 43 43 43 43 43 43 43 44 44 44 45 42 38 37 37 33 28 27 21 24 26 29 25 24 29 26 27 27 26 26 24 24 24 20 21 21 21 23 28 29 30 29 29 29 29 31 33 34 35
41 42 43 43 43 43 43 43 43 43 43 44 44 43 43 41 38 36 38 37 35 28 19 22 19 19 28 27 28 28 26 22 27 24 24 24 21 20 20 20 21 22 26 26 29 30 30 30 28 29 31 32 35 35
43 43 42 42 42 42 43 43 43 43 43 43 41 38 32 37 40 38 35 28 26 28 25 21 26 23 27 26 25 24 26 23 19 21 26 23 20 22 21 23 22 24 27 29 28 29 31 28 28 29 32 33 35 35
42 42 42 43 43 42 43 44 44 43 43 41 36 33 37 42 38 35 32 30 28 23 24 24 25 23 27 22 23 24 22 23 17 20 22 20 19 22 24 23 23 26 29 30 30 30 29 28 28 29 31 34 35 35
42 43 44 44 44 44 44 44 44 42 40 36 36 39 39 36 32 30 28 30 29 24 23 22 23 27 27 28 24 23 21 20 16 22 21 17 20 21 24 23 24 24 28 31 32 32 33 32 33 31 31 32 32 34
43 43 44 44 44 44 44 44 44 41 40 38 36 32 30 31 27 26 23 24 26 25 25 25 24 26 27 27 25 23 19 18 23 21 18 18 20 21 24 26 28 29 31 32 31 31 32 33 33 34 32 33 33 32
43 44 44 44 45 45 44 44 43 41 36 33 29 26 27 25 26 26 24 23 23 26 25 26 25 25 25 24 24 18 20 21 19 16 11 18 21 24 25 27 29 30 32 32 31 32 33 33 34 34 33 29 22 18
43 44 43 45 45 45 44 43 42 39 35 31 31 27 27 27 25 24 26 25 27 27 26 24 24 24 23 21 21 21 19 17 17 12 17 21 23 27 27 28 31 31 31 31 31 31 31 33 31 31 24 21 19 17
42 43 42 43 43 44 43 42 40 37 32 29 27 25 26 24 23 25 26 26 27 26 26 25 21 18 17 20 20 17 15 11 13 21 23 22 26 28 30 31 30 30 30 32 33 32 30 28 23 21 27 29 27 19
39 39 43 43 42 43 42 38 36 33 31 27 26 28 26 25 24 26 27 27 27 24 19 20 14 13 22 19 16 19 15 15 19 22 23 24 27 29 31 31 30 30 30 30 30 29 28 27 26 27 27 29 31 31
37 42 43 44 43 40 34 33 32 29 25 27 26 27 29 28 27 27 28 27 25 24 21 16 21 18 15 12 14 20 22 22 22 24 24 26 28 30 32 31 30 30 30 30 29 30 29 29 29 28 29 28 27 26
40 42 43 42 39 35 31 30 31 24 25 28 29 31 30 29 29 28 27 26 26 25 22 20 14 13 13 18 16 20 23 27 25 27 26 27 28 30 30 31 30 30 30 29 29 28 28 28 27 27 27 25 23 23
42 42 41 38 36 32 28 28 31 26 25 27 29 28 28 28 28 27 26 25 24 23 18 16 13 14 17 21 22 22 28 29 27 26 26 27 28 29 30 30 30 30 29 29 28 28 27 26 25 25 24 23 21 21
40 40 37 35 32 30 27 26 26 27 27 25 28 28 27 29 27 26 25 27 23 20 16 20 19 21 25 25 26 29 30 29 28 28 28 27 26 28 27 29 29 29 28 27 26 26 27 24 19 20 21 20 20 21
38 38 34 34 29 27 25 26 25 27 25 25 26 28 26 26 26 27 28 25 23 23 23 22 22 26 28 28 27 29 29 28 29 30 30 29 27 27 26 26 27 26 26 26 26 25 22 18 19 19 20 18 18 17
37 36 32 31 26 25 22 27 23 26 24 23 25 23 23 25 26 27 28 28 27 26 24 24 24 26 27 26 27 27 27 28 28 29 29 28 28 28 28 27 27 27 26 25 24 24 21 18 21 19 16 15 14 13
35 30 28 26 24 20 25 22 24 23 24 22 21 19 21 22 24 25 25 26 26 25 24 24 25 26 26 27 27 26 25 25 25 24 25 27 26 25 25 25 25 24 23 20 19 19 18 18 18 16 14 13 12 12
30 26 26 21 22 20 19 20 21 20 20 20 19 18 19 21 22 22 22 23 24 25 24 25 27 29 29 26 24 23 20 24 25 24 21 22 22 21 21 19 18 17 17 20 19 17 16 15 13 12 12 12 13 15
22 21 23 20 21 20 19 19 20 19 19 19 18 18 18 20 20 21 21 21 21 23 23 25 26 25 25 25 23 22 22 20 22 23 20 20 22 23 22 22 20 17 14 15 17 15 14 12 11 11 11 12 14 12
21 19 20 22 21 21 21 21 21 21 20 19 17 16 18 19 21 21 17 17 18 19 23 26 26 26 24 20 18 17 17 17 20 19 15 13 12 15 19 20 18 16 12 12 12 11 11 11 11 12 12 12 11 11
18 19 20 20 20 20 20 20 21 22 22 20 18 19 21 23 22 16 16 14 14 16 18 18 20 21 19 18 16 14 13 12 12 12 11 11 10 11 13 14 15 14 12 13 12 12 12 13 13 12 12 11 10 9
18 20 20 19 19 19 19 21 22 20 20 20 23 22 21 15 13 13 13 13 15 18 18 17 15 14 14 13 13 13 13 14 14 11 9 9 10 11 9 10 10 10 11 14 16 15 14 14 14 13 10 7 6 5
20 23 21 20 19 17 13 13 15 16 17 18 18 16 14 13 12 11 13 15 17 18 17 16 16 17 17 16 13 11 9 8 9 10 8 8 9 10 9 10 10 9 9 11 11 12 15 10 9 6 5 5 5 7
21 19 16 14 12 11 12 14 16 17 16 16 16 16 13 12 12 12 14 14 15 14 15 15 16 16 15 15 13 12 11 9 6 6 8 9 9 9 10 11 10 8 9 10 10 9 9 7 6 5 5 5 5 5
17 16 15 13 12 12 13 15 16 16 16 16 14 11 11 12 13 12 11 13 15 14 15 14 14 13 14 14 12 13 14 9 9 10 10 10 12 11 10 9 8 9 9 9 9 8 6 6 5 5 5 5 5 5
15 15 14 13 12 12 14 15 16 15 15 15 14 10 9 11 14 12 9 10 14 15 14 12 11 10 10 10 11 12 10 10 12 15 16 16 15 13 11 10 9 9 9 9 7 6 5 5 5 4 4 4 5 6

GFSWCAN_sfc_30mbdewp_111.txt.gz
Dewpoint
51 51 51 51 51 49 47 44 41 41 40 41 42 43 43 45 47 48 44 45 39 33 30 30 29 23 22 22 18 24 22 24 21 20 20 18 15 18 18 18 18 17 17 17 15 16 12 26 29 26 29 32 32 33
51 51 51 51 50 49 47 43 41 41 42 42 43 42 43 45 45 42 40 44 41 34 30 30 30 30 30 29 25 25 22 23 22 19 24 25 18 24 19 9 21 16 15 17 17 16 25 27 30 31 32 31 32 30
51 51 51 51 50 48 46 43 41 40 41 42 43 42 43 45 47 40 38 38 35 31 31 29 28 30 31 31 31 26 23 25 25 30 28 23 21 21 13 15 17 22 23 21 24 22 23 29 32 32 33 29 28 28
50 51 51 51 50 48 45 42 41 41 40 42 42 42 42 45 47 43 36 36 34 30 29 27 30 29 31 31 31 30 28 29 28 29 28 24 19 23 17 18 17 19 24 22 22 23 26 27 27 31 29 29 28 28
50 50 50 50 49 47 45 42 42 42 41 42 42 43 43 45 46 46 39 37 35 29 28 26 29 30 30 30 31 30 29 28 28 26 26 22 22 22 21 21 16 19 18 20 12 21 22 25 28 28 28 27 27 27
50 50 50 50 48 46 43 42 42 42 43 43 44 44 43 45 44 41 36 39 37 33 32 27 29 28 29 29 29 29 29 28 29 27 24 24 26 25 21 16 16 16 18 20 19 22 23 25 27 29 27 26 27 28
50 50 50 49 47 45 42 42 43 43 43 44 44 44 44 44 44 41 38 39 36 33 29 26 27 28 29 29 29 28 29 29 29 28 26 25 25 26 25 16 13 18 20 23 21 26 27 28 26 27 27 28 30 33
50 50 49 48 46 43 42 43 43 44 43 43 44 44 44 45 43 41 38 39 35 29 29 28 27 27 28 25 26 29 27 28 28 27 27 24 24 24 21 20 18 19 21 23 25 26 27 28 28 27 30 31 33 33
49 49 48 46 43 42 43 43 44 44 44 44 44 43 44 40 38 39 40 37 36 32 27 28 26 26 28 26 28 28 28 25 28 25 24 25 21 22 20 18 19 20 22 24 27 28 29 29 27 28 29 31 32 33
48 47 45 43 42 43 43 44 44 44 44 43 42 39 34 38 41 38 36 29 30 33 28 25 27 25 26 25 25 25 26 24 23 22 26 23 21 22 21 22 21 21 24 26 27 28 29 29 28 28 29 31 32 33
45 44 42 42 43 43 44 44 43 43 43 40 38 35 40 41 39 37 31 29 31 30 30 25 25 25 28 25 26 25 26 25 21 24 21 23 21 23 23 23 22 22 26 27 28 28 30 29 28 28 30 31 34 34
43 42 43 43 43 43 43 43 43 42 41 39 38 40 39 36 35 30 28 31 30 26 26 25 25 27 27 28 25 24 24 22 19 24 21 19 23 26 24 23 23 24 27 28 29 29 29 28 28 29 30 31 32 32
42 43 43 42 42 43 43 43 43 42 41 39 37 33 31 30 25 25 24 28 28 29 27 27 25 27 27 29 26 24 21 20 22 21 19 20 25 24 26 24 23 26 28 30 31 31 31 31 32 32 31 32 32 31
42 42 42 43 43 44 44 44 44 43 39 33 30 26 25 26 27 30 27 27 30 29 27 26 25 26 26 26 25 22 22 22 20 18 16 19 23 22 26 26 24 26 29 31 31 31 31 33 33 34 33 32 30 24
41 42 44 44 44 44 44 44 44 42 36 31 31 25 28 30 30 30 32 28 29 28 27 25 26 26 25 23 23 22 19 17 18 16 21 24 24 25 26 28 30 30 31 31 30 31 32 31 33 32 30 25 20 18
43 43 43 43 44 45 44 44 43 39 33 32 30 27 29 29 27 27 28 28 29 27 26 27 23 23 20 24 20 19 17 13 17 23 29 24 26 25 27 31 32 32 32 31 31 30 31 30 30 29 24 26 28 22
43 40 42 44 45 45 45 41 34 32 32 28 27 30 30 29 28 28 27 27 28 26 22 25 19 18 24 20 18 20 19 18 26 27 26 26 28 27 29 31 32 31 32 33 32 32 31 28 25 25 25 26 29 31
39 41 44 45 43 38 34 33 32 30 27 28 26 28 29 30 28 27 28 28 28 26 25 24 23 19 19 17 18 22 24 27 27 26 26 28 30 31 32 31 31 31 32 31 31 30 30 29 29 28 29 30 28 27
41 44 43 42 38 34 32 31 31 27 27 29 30 31 30 29 30 28 28 28 28 27 25 24 21 19 18 21 22 27 28 25 23 25 25 28 31 31 32 31 31 31 31 30 30 29 29 29 28 28 28 27 24 22
43 44 41 40 36 33 29 28 32 27 25 28 30 29 30 29 29 28 28 28 25 24 21 20 19 17 18 22 25 25 28 28 26 25 26 28 31 32 31 31 30 30 30 29 29 29 28 27 27 26 25 23 21 19
41 42 39 36 32 31 29 28 28 28 28 27 29 29 28 29 28 28 27 27 26 26 22 22 19 21 25 26 25 29 29 27 26 25 26 28 30 30 30 30 30 30 29 28 27 27 27 26 23 20 23 22 21 20
35 38 35 34 30 28 26 28 28 29 28 28 27 29 27 26 26 27 29 28 28 25 24 22 23 25 27 27 29 30 30 30 30 30 29 29 28 28 29 30 29 28 28 28 27 28 27 24 22 20 19 20 19 17
38 36 33 31 27 25 23 28 25 27 25 24 26 25 25 26 28 30 25 28 30 29 26 25 26 28 28 27 28 29 30 30 30 29 29 29 29 29 29 28 29 28 27 27 28 27 26 18 21 20 18 16 15 14
35 32 30 27 26 22 26 23 26 24 26 24 23 20 22 24 25 27 26 28 29 26 24 25 27 27 28 29 28 27 27 28 27 28 29 28 27 28 29 27 28 29 27 28 26 23 20 20 21 18 16 15 14 14
29 26 27 22 24 21 20 21 22 22 21 22 21 20 21 23 23 24 24 26 27 27 27 27 28 29 29 28 26 24 24 27 27 27 24 27 25 24 23 22 22 21 20 22 21 20 19 17 16 15 13 13 14 16
23 23 23 22 21 21 21 20 20 20 20 20 21 20 21 22 22 22 24 25 26 28 27 27 29 29 28 28 26 25 24 24 26 24 22 24 25 26 24 23 22 20 16 19 20 18 16 15 13 12 13 13 14 13
20 20 21 23 22 21 21 22 22 22 20 19 18 18 20 20 21 24 19 19 21 23 27 30 30 29 27 24 22 21 21 21 23 21 18 17 17 20 24 23 22 17 15 16 16 16 14 13 13 13 13 13 13 12
21 20 20 21 20 21 21 21 22 22 23 21 20 21 22 23 24 18 17 15 16 20 23 23 26 27 25 22 18 17 16 16 15 15 14 14 13 15 17 16 16 16 15 15 14 14 14 14 14 13 12 12 11 10
19 21 21 19 20 20 20 21 23 22 21 21 24 23 22 15 14 15 14 15 17 20 20 20 18 18 18 17 17 17 17 19 20 19 18 15 12 13 14 15 14 16 17 17 16 15 14 14 15 13 10 9 8 8
21 23 21 20 18 17 14 15 16 17 18 19 18 17 16 14 13 13 14 16 19 21 20 19 18 19 18 17 16 15 13 14 17 19 16 12 13 12 12 12 12 12 14 14 14 16 16 12 11 8 8 8 9 9
22 20 16 15 13 13 14 15 17 18 18 17 18 18 16 15 14 14 15 17 18 19 19 20 20 20 19 17 17 16 14 11 9 10 13 13 12 12 12 13 12 12 12 12 12 12 11 8 8 7 6 6 6 7
19 18 15 14 12 13 14 17 17 17 17 18 16 16 15 17 18 15 14 16 17 18 20 20 19 19 19 19 17 17 15 11 12 13 13 12 12 12 12 11 11 11 11 11 10 8 7 7 7 7 7 6 6 6
16 15 15 14 13 13 15 17 17 16 17 16 15 15 15 14 16 15 11 13 17 18 18 18 16 16 15 15 14 14 13 13 14 16 16 15 14 13 11 11 11 11 10 10 8 7 6 6 6 6 5 5 5 5

GFSWCAN_sfc_30mbdewp_114.txt.gz
Dewpoint
50 51 51 52 52 52 51 49 46 43 41 41 41 43 44 44 46 46 43 44 40 34 33 29 29 25 23 22 20 24 23 24 22 20 21 21 16 20 17 17 18 18 17 17 16 15 9 27 30 27 29 32 33 34
50 51 51 51 52 51 51 49 47 43 42 42 42 43 43 43 46 45 41 45 44 40 32 31 30 30 30 29 28 26 25 23 24 22 25 26 21 24 19 11 20 14 16 19 16 18 24 30 30 32 32 31 32 32
50 51 51 51 51 51 51 49 47 44 42 42 42 43 43 43 45 46 41 45 43 36 34 31 29 30 31 31 31 27 25 27 26 31 30 26 19 22 17 18 17 20 21 19 19 20 24 27 31 32 33 31 29 28
50 50 51 51 51 51 51 49 46 44 42 40 42 43 43 43 46 45 40 42 39 35 31 29 30 30 31 31 31 31 28 29 29 29 30 28 22 22 19 18 18 19 23 22 21 22 25 26 28 31 30 29 29 28
50 50 50 51 51 51 50 48 46 43 42 41 42 43 44 44 46 47 46 40 39 35 31 28 29 30 30 31 31 31 30 28 28 26 26 24 23 21 21 21 19 20 21 19 17 21 23 26 27 30 29 28 28 27
50 50 50 50 51 51 50 48 45 43 43 43 43 44 44 44 45 43 38 41 39 35 32 25 30 29 29 30 30 30 30 29 30 30 27 26 26 23 23 20 19 17 18 18 18 23 24 27 28 28 28 27 27 27
50 50 50 50 50 51 49 47 44 43 43 43 44 44 44 44 44 41 38 40 39 35 27 24 27 29 29 29 29 29 29 30 31 29 26 26 26 24 26 18 15 18 17 21 23 26 26 27 28 28 26 28 30 33
50 50 50 50 50 50 48 46 44 43 44 43 44 44 44 45 44 39 42 40 39 32 30 27 29 26 29 27 27 30 29 30 30 28 28 24 25 25 20 22 20 18 20 23 23 26 27 28 27 27 29 30 32 32
49 50 50 50 50 49 47 45 44 44 44 44 44 44 43 41 38 39 40 37 36 36 32 28 24 23 29 27 29 28 29 26 29 24 25 26 23 20 17 18 20 19 20 22 23 28 28 27 27 28 29 31 32 31
49 49 50 50 50 48 46 45 44 44 45 44 42 39 35 38 41 39 36 33 33 35 34 28 31 26 27 27 27 27 27 25 24 25 27 24 22 23 23 24 21 20 22 24 26 27 29 29 27 28 29 30 31 32
49 49 49 50 49 47 45 44 45 45 44 39 37 35 40 41 38 36 32 29 30 28 32 30 28 25 28 24 26 27 26 26 18 23 20 22 22 23 23 23 23 22 23 27 28 29 30 30 29 28 30 31 32 33
49 49 49 48 47 45 44 44 45 42 39 38 39 41 39 35 34 29 29 29 28 26 32 29 27 28 27 29 26 24 23 23 16 24 20 17 20 27 24 24 22 23 25 27 28 29 30 29 28 28 30 31 32 32
49 49 48 46 45 44 44 44 44 42 41 40 37 33 31 31 26 25 22 25 27 29 28 28 25 27 27 30 27 23 21 19 24 21 18 18 24 26 23 24 23 25 27 29 29 30 28 30 31 31 30 31 32 32
48 47 46 45 44 43 44 44 43 42 39 33 30 25 26 25 25 27 26 25 31 29 28 28 25 24 28 25 26 21 24 23 18 18 15 19 19 24 25 24 24 27 30 30 31 31 31 31 31 32 32 32 31 31
46 45 44 44 44 43 43 43 42 42 36 31 31 25 26 27 30 31 32 31 31 29 28 26 27 26 26 25 26 25 19 16 18 15 18 21 24 24 25 24 26 29 31 31 31 31 32 32 33 34 33 30 25 19
44 44 42 43 43 43 43 43 42 41 35 31 30 28 30 25 28 28 29 30 31 29 28 28 23 23 22 25 23 20 17 13 13 19 28 25 24 25 26 27 28 30 31 31 31 32 32 31 30 30 27 24 23 20
43 39 41 42 43 43 43 42 41 35 30 29 28 31 28 28 27 28 29 30 30 28 24 26 22 23 26 22 21 21 20 19 21 29 28 26 25 26 30 31 32 32 31 31 30 30 30 30 30 25 23 25 27 29
39 40 42 43 44 42 41 35 33 31 28 30 28 29 30 30 29 30 30 30 29 28 28 24 26 23 21 20 20 22 20 27 29 28 27 28 27 30 31 32 32 32 32 31 31 30 30 27 25 26 27 29 29 28
40 41 43 44 41 35 32 30 32 28 29 30 31 30 30 30 31 30 30 30 31 31 27 25 25 21 20 23 20 23 26 24 24 25 28 29 30 31 31 31 32 32 31 30 30 29 28 29 29 28 28 28 27 24
41 43 42 41 38 33 29 28 32 29 26 29 31 29 29 28 30 30 29 30 32 30 29 24 25 26 22 23 27 28 29 27 25 25 29 31 31 30 30 30 30 30 30 29 29 29 28 28 27 27 26 25 23 20
41 42 40 36 33 32 31 29 29 30 28 27 29 28 27 29 28 29 29 32 28 27 28 30 24 20 24 25 25 28 29 26 25 26 28 30 31 30 30 30 30 29 29 28 28 28 27 26 26 25 24 24 22 20
39 38 35 34 30 29 27 28 28 28 27 28 28 28 26 25 26 28 30 28 27 29 31 26 22 23 26 26 28 30 29 28 27 28 31 31 30 30 30 30 29 28 28 28 27 27 27 27 24 20 21 20 19 17
38 36 32 31 27 25 24 28 25 26 22 25 27 25 25 26 28 29 25 27 29 32 29 27 28 29 28 28 29 30 30 29 28 29 31 30 30 30 30 30 29 29 28 27 28 27 25 22 22 19 19 16 15 14
35 33 30 28 26 21 26 23 26 25 25 24 24 22 23 25 27 26 25 27 29 29 29 29 28 28 28 29 28 28 29 30 29 29 30 29 28 28 29 29 29 29 28 28 26 23 20 21 21 17 16 15 14 14
29 27 28 22 25 21 20 21 22 23 22 24 23 21 22 24 22 23 24 27 28 26 28 30 30 30 29 29 28 27 25 29 28 27 28 29 27 26 25 25 25 23 24 25 23 20 19 18 16 14 13 13 14 15
23 23 24 21 22 21 20 19 20 21 21 21 22 22 22 22 21 21 24 26 28 28 27 28 29 30 30 29 27 25 26 28 27 25 25 27 27 27 25 24 23 23 19 22 21 19 17 15 13 12 13 15 16 11
21 19 22 24 22 22 22 23 22 21 20 19 19 19 20 19 20 23 20 20 23 24 29 30 31 30 29 26 24 23 22 24 24 22 20 20 22 25 26 25 24 21 18 20 19 17 14 12 12 12 12 12 11 10
22 21 19 21 21 21 21 21 21 21 21 21 20 19 20 21 23 18 17 16 17 21 25 28 33 30 26 24 21 19 18 18 18 18 17 17 17 18 18 18 18 18 16 15 15 14 13 12 12 12 11 10 9 8
20 22 20 19 20 20 20 20 22 22 21 20 22 22 22 16 14 15 15 15 18 21 23 23 20 21 20 19 19 19 20 21 23 22 21 18 17 16 17 17 17 16 16 16 16 14 13 13 12 10 9 8 7 7
21 24 20 18 18 18 15 15 16 17 18 19 18 17 15 14 13 14 15 16 18 21 22 21 20 21 20 20 18 19 17 19 22 23 20 18 16 14 14 14 15 16 16 16 17 18 18 13 11 8 7 8 8 7
22 18 16 14 13 13 14 16 18 19 18 18 19 18 16 15 15 15 16 17 19 20 20 20 21 22 21 19 20 20 19 14 13 18 19 16 14 13 13 12 13 13 14 15 13 11 10 7 6 6 6 7 8 7
19 17 14 13 12 14 15 17 18 18 18 18 16 17 16 18 18 15 15 17 19 20 22 22 21 20 23 23 22 22 20 13 15 16 14 13 13 12 12 12 12 12 11 11 9 7 7 6 6 6 6 5 5 5
16 15 14 13 13 14 16 17 17 16 17 16 15 15 16 17 19 15 14 14 18 21 21 21 21 21 21 20 16 15 14 15 15 16 15 15 14 13 11 11 11 10 9 7 7 6 6 6 5 5 5 5 5 5

GFSWCAN_sfc_30mbdewp_117.txt.gz
Dewpoint
52 52 52 51 51 52 52 52 51 47 43 43 42 43 44 44 45 44 40 43 39 34 34 30 29 26 25 22 20 24 21 23 21 18 21 21 15 19 17 17 17 14 13 15 17 15 0 29 30 20 24 34 34 35
52 52 51 51 51 52 52 52 51 48 44 43 43 42 44 44 45 45 42 45 44 38 36 32 30 30 30 29 28 26 24 24 23 23 25 26 19 22 16 3 20 14 17 17 16 10 19 30 27 31 31 31 32 34
52 51 51 51 51 51 52 52 51 48 45 44 43 43 43 44 44 46 42 45 43 39 36 34 32 31 31 30 31 26 26 27 26 32 28 25 19 23 13 18 16 20 22 18 16 14 23 27 31 32 33 31 30 28
51 51 51 51 51 51 52 52 51 49 46 43 42 42 43 44 45 47 41 44 41 37 32 31 31 29 31 31 31 31 29 29 29 29 25 25 17 23 17 16 18 17 21 19 20 21 23 25 30 32 31 29 29 28
51 51 51 51 51 51 51 52 51 49 46 44 42 43 44 45 46 47 45 43 42 35 30 27 29 30 30 31 31 31 30 28 27 23 25 21 25 22 21 21 18 20 20 17 11 18 18 22 26 31 30 29 29 28
51 50 50 50 51 51 51 51 51 48 45 44 43 44 45 44 46 44 40 43 42 38 32 25 29 29 29 30 30 30 30 29 29 29 28 27 27 22 19 20 19 18 21 22 17 23 24 28 29 30 29 29 27 27
50 50 50 50 51 51 51 51 50 48 45 44 44 44 44 44 43 41 39 40 41 37 30 27 25 29 29 29 29 29 29 29 29 29 27 26 25 25 21 14 16 19 18 19 21 26 26 28 27 28 27 27 29 30
50 50 50 50 50 51 51 51 49 47 45 45 45 44 44 44 44 39 41 44 40 33 32 29 27 26 29 26 26 30 28 29 28 27 28 25 25 24 19 20 17 17 18 19 24 24 23 27 28 27 28 29 31 31
50 50 50 50 50 50 51 50 49 47 45 45 45 44 43 40 38 37 40 39 39 35 32 31 25 20 28 27 29 28 29 25 27 24 24 25 22 19 19 16 18 21 19 20 25 27 27 27 27 27 28 30 31 31
49 50 50 50 50 50 51 50 48 46 45 45 42 39 35 38 41 38 35 34 34 35 35 29 29 25 26 27 26 25 27 23 23 24 26 24 22 23 23 22 19 20 21 23 24 26 27 26 26 27 29 31 32 31
49 49 49 49 49 50 50 48 46 45 45 41 37 35 40 41 38 35 32 30 31 28 31 31 28 25 28 22 23 27 23 24 18 16 22 19 20 21 20 22 23 22 22 23 23 25 28 28 27 28 29 31 31 31
49 49 49 49 49 50 49 46 44 43 40 38 39 40 39 36 33 28 27 29 27 25 31 30 28 25 26 29 24 26 22 23 15 24 21 14 15 22 24 23 24 23 23 24 27 27 29 29 28 28 30 31 32 32
49 49 49 49 49 49 47 44 44 43 41 40 35 32 31 30 25 23 22 25 26 29 32 28 26 26 27 28 24 21 19 19 23 21 17 16 16 21 26 24 23 23 25 27 28 29 30 30 29 29 31 31 32 31
48 48 48 49 49 47 44 44 44 41 37 32 30 25 26 24 24 24 23 25 28 29 29 28 25 23 26 25 23 20 21 22 18 15 16 17 17 19 24 24 23 24 27 28 29 30 30 29 30 30 31 31 31 30
48 48 48 48 48 45 44 44 42 40 35 31 31 24 26 26 26 27 28 28 30 30 28 26 27 24 25 23 24 23 21 17 17 15 17 18 21 23 23 24 24 27 29 29 30 30 31 31 31 31 31 31 31 31
48 48 47 47 45 44 44 43 41 39 33 31 30 27 27 26 27 29 29 28 30 30 28 25 23 23 24 24 22 21 19 17 16 18 20 26 24 24 25 25 27 30 30 31 31 31 31 31 31 32 31 28 26 21
47 41 46 44 44 43 43 40 37 32 31 30 28 31 28 26 26 28 29 29 31 28 24 24 22 23 25 23 22 21 19 18 18 22 26 25 24 25 26 27 30 31 31 31 31 31 31 31 31 29 28 25 25 23
39 43 44 43 42 41 40 38 33 32 28 28 27 28 30 27 26 27 29 30 29 28 26 23 25 23 22 20 19 21 22 22 23 26 28 26 26 27 28 28 31 31 31 31 31 31 30 30 29 28 26 25 27 29
41 43 43 41 39 34 32 30 32 27 27 29 29 29 29 29 29 29 29 30 30 30 27 27 25 24 24 24 22 22 23 22 21 24 28 27 27 30 30 31 31 30 30 30 30 30 30 29 28 26 27 28 27 27
43 42 41 41 38 32 29 28 32 29 26 28 29 29 28 27 29 29 29 30 29 28 27 26 25 27 28 26 25 26 28 28 26 25 27 28 30 31 31 31 31 30 29 29 29 29 28 27 27 28 28 27 26 23
40 40 40 40 33 32 31 28 29 30 29 27 30 28 28 29 29 28 27 30 30 28 27 28 27 27 24 24 25 24 25 27 26 25 27 30 30 31 31 31 30 30 30 29 28 28 28 27 27 26 26 25 22 20
39 40 33 35 30 29 27 29 27 29 28 28 28 27 25 25 26 28 29 28 27 28 28 27 28 29 27 26 24 27 29 28 26 27 31 31 30 29 29 30 29 29 28 28 28 28 27 26 23 24 23 22 20 17
38 36 33 31 27 26 23 29 25 25 23 25 27 25 23 24 25 29 26 27 26 27 28 28 27 26 26 27 28 29 30 28 28 30 32 30 30 30 30 30 29 28 28 28 28 28 27 27 24 20 20 17 15 16
37 32 29 27 24 20 25 23 25 25 25 24 23 22 22 24 27 25 22 22 25 28 28 28 28 27 27 28 28 29 29 29 30 31 31 30 30 30 30 29 29 29 28 28 27 26 24 23 22 19 16 14 14 13
29 28 28 22 23 20 20 20 21 21 20 21 21 20 22 24 22 21 20 21 24 27 28 29 29 29 29 29 29 29 28 29 29 28 30 30 29 28 28 28 27 27 28 26 24 21 20 19 17 15 14 13 13 13
22 23 23 21 21 19 18 19 19 20 21 21 21 20 22 21 20 18 21 23 25 27 28 29 29 30 31 31 29 28 28 29 29 28 28 29 29 28 26 25 24 24 24 25 22 20 19 16 14 13 13 17 16 10
20 20 22 24 22 22 21 21 22 21 20 20 20 19 20 19 19 20 21 19 23 23 25 30 31 31 32 31 29 27 28 30 28 25 23 25 26 28 28 27 26 25 22 24 22 19 17 14 12 13 12 10 9 8
22 21 20 21 20 20 20 20 20 20 21 20 19 19 18 19 21 19 17 15 16 19 24 32 33 33 28 26 22 21 20 20 20 21 21 20 19 22 23 23 23 24 22 21 19 17 15 13 12 11 10 9 8 6
20 21 20 19 19 19 20 20 20 20 20 20 19 19 20 18 14 14 14 14 16 20 23 24 22 23 22 21 22 22 22 24 25 25 25 21 21 19 20 21 20 20 20 19 18 14 12 12 11 10 9 7 6 6
20 22 18 17 19 19 15 15 17 17 18 19 18 16 14 13 13 13 14 15 18 20 22 22 22 23 21 20 19 20 20 23 26 26 23 22 21 17 17 17 17 17 17 17 17 17 17 14 12 8 7 7 7 7
20 16 15 13 13 12 14 16 18 19 18 17 17 17 15 14 14 14 15 17 20 21 21 21 22 23 23 22 22 22 22 18 21 22 21 19 17 16 16 16 16 17 17 17 15 13 12 7 6 7 6 7 8 7
18 16 13 13 12 13 15 17 18 18 18 18 18 17 15 16 17 15 15 17 19 20 22 22 22 23 25 26 27 25 24 18 20 19 18 16 15 14 14 14 15 15 13 12 10 7 6 6 6 6 6 6 5 5
15 14 13 12 13 13 15 16 17 16 17 17 16 15 16 17 19 16 14 15 18 21 22 23 23 24 24 24 23 21 20 19 19 19 18 16 15 14 13 13 13 12 10 8 7 6 6 5 5 5 5 5 5 5